Time,TemperatureF,DewpointF,PressureIn,WindDirection,WindDirectionDegrees,WindSpeedMPH,WindSpeedGustMPH,Humidity,HourlyPrecipIn,Conditions,Clouds,dailyrainin,SoftwareType,DateUTC
2013-03-02 00:00:00,34.8,27.8,29.76,NNW,330,3.4,7.0,75,0.00,,---,0.00,VWS V14.01,2013-03-02 05:00:00,
2013-03-02 00:01:00,34.8,28.0,29.76,NW,309,0.0,5.0,76,0.00,,---,0.00,VWS V14.01,2013-03-02 05:01:00,
2013-03-02 00:02:00,34.8,28.1,29.76,NW,309,0.0,0.0,76,0.00,,---,0.00,VWS V14.01,2013-03-02 05:02:00,
2013-03-02 00:03:00,34.8,28.0,29.76,NW,309,0.0,5.0,76,0.00,,,0.00,VWS V14.01,2013-03-02 05:03:00,
2013-03-02 00:04:00,34.7,27.7,29.76,NW,309,0.0,0.0,75,0.00,,,0.00,VWS V14.01,2013-03-02 05:04:00,
2013-03-02 00:05:00,34.8,27.8,29.76,NW,309,0.0,0.0,75,0.00,,,0.00,VWS V14.01,2013-03-02 05:05:00,
2013-03-02 00:06:00,34.8,28.0,29.76,NW,309,0.0,0.0,76,0.00,,,0.00,VWS V14.01,2013-03-02 05:06:00,
2013-03-02 00:07:00,34.8,28.0,29.76,NW,309,0.0,0.0,76,0.00,,---,0.00,VWS V14.01,2013-03-02 05:07:00,
2013-03-02 00:08:00,34.8,28.0,29.76,NW,309,0.0,0.0,76,0.00,,,0.00,VWS V14.01,2013-03-02 05:08:00,
2013-03-02 00:09:00,34.8,28.1,29.76,NW,309,0.0,0.0,76,0.00,,,0.00,VWS V14.01,2013-03-02 05:09:00,
2013-03-02 00:10:00,34.8,28.2,29.76,NW,309,0.0,0.0,77,0.00,,---,0.00,VWS V14.01,2013-03-02 05:10:00,
2013-03-02 00:11:00,34.8,28.2,29.76,NW,309,0.0,0.0,77,0.00,,,0.00,VWS V14.01,2013-03-02 05:11:00,
2013-03-02 00:12:00,34.8,28.0,29.76,NW,309,0.0,0.0,76,0.00,,,0.00,VWS V14.01,2013-03-02 05:12:00,
2013-03-02 00:13:00,34.8,28.1,29.76,NW,309,0.0,0.0,76,0.00,,,0.00,VWS V14.01,2013-03-02 05:13:00,
2013-03-02 00:14:00,34.8,28.3,29.76,NW,309,0.0,3.0,77,0.00,,,0.00,VWS V14.01,2013-03-02 05:14:00,
2013-03-02 00:15:00,34.8,28.0,29.76,West,273,0.0,0.0,76,0.00,,---,0.00,VWS V14.01,2013-03-02 05:15:00,
2013-03-02 00:16:00,34.8,28.0,29.76,West,273,0.0,2.9,76,0.00,,,0.00,VWS V14.01,2013-03-02 05:16:00,
2013-03-02 00:17:00,34.8,28.0,29.76,West,273,0.0,0.0,76,0.00,,,0.00,VWS V14.01,2013-03-02 05:17:00,
2013-03-02 00:18:00,34.8,28.3,29.76,West,273,0.0,0.0,77,0.00,,,0.00,VWS V14.01,2013-03-02 05:18:00,
2013-03-02 00:19:00,34.8,28.0,29.76,West,273,0.0,0.0,76,0.00,,,0.00,VWS V14.01,2013-03-02 05:19:00,
2013-03-02 00:20:00,34.8,28.1,29.76,West,273,0.0,0.0,76,0.00,,---,0.00,VWS V14.01,2013-03-02 05:20:00,
2013-03-02 00:21:00,34.8,28.3,29.76,West,273,0.0,2.9,77,0.00,,,0.00,VWS V14.01,2013-03-02 05:21:00,
2013-03-02 00:22:00,34.8,28.2,29.76,West,273,0.0,0.0,77,0.00,,,0.00,VWS V14.01,2013-03-02 05:22:00,
2013-03-02 00:23:00,34.8,28.3,29.76,NNW,333,3.3,3.3,77,0.00,,,0.00,VWS V14.01,2013-03-02 05:23:00,
2013-03-02 00:24:00,34.9,28.3,29.76,NNW,329,0.0,3.3,77,0.00,,,0.00,VWS V14.01,2013-03-02 05:24:00,
2013-03-02 00:25:00,34.8,28.2,29.76,NNW,329,0.0,0.0,77,0.00,,---,0.00,VWS V14.01,2013-03-02 05:25:00,
2013-03-02 00:26:00,34.9,28.3,29.76,NNW,329,0.0,3.1,77,0.00,,,0.00,VWS V14.01,2013-03-02 05:26:00,
2013-03-02 00:27:00,34.8,28.2,29.76,NNW,329,0.0,0.0,77,0.00,,,0.00,VWS V14.01,2013-03-02 05:27:00,
2013-03-02 00:28:00,34.8,28.5,29.76,NNW,329,0.0,0.0,78,0.00,,,0.00,VWS V14.01,2013-03-02 05:28:00,
2013-03-02 00:29:00,34.8,28.4,29.76,NNW,329,0.0,0.0,77,0.00,,,0.00,VWS V14.01,2013-03-02 05:29:00,
2013-03-02 00:30:00,34.6,28.0,29.76,NW,326,6.8,8.0,76,0.00,,---,0.00,VWS V14.01,2013-03-02 05:30:00,
2013-03-02 00:31:00,34.7,28.0,29.76,NNW,332,7.5,8.4,76,0.00,,,0.00,VWS V14.01,2013-03-02 05:31:00,
2013-03-02 00:32:00,34.7,28.0,29.76,NNW,328,5.5,8.0,76,0.00,,,0.00,VWS V14.01,2013-03-02 05:32:00,
2013-03-02 00:33:00,34.6,28.1,29.76,NW,318,0.0,5.5,77,0.00,,,0.00,VWS V14.01,2013-03-02 05:33:00,
2013-03-02 00:34:00,34.7,28.3,29.76,North,359,6.8,7.0,77,0.00,,,0.00,VWS V14.01,2013-03-02 05:34:00,
2013-03-02 00:35:00,34.6,28.1,29.75,NNW,336,3.3,5.2,77,0.00,,---,0.00,VWS V14.01,2013-03-02 05:35:00,
2013-03-02 00:36:00,34.6,28.0,29.76,WNW,295,5.2,7.3,77,0.00,,,0.00,VWS V14.01,2013-03-02 05:36:00,
2013-03-02 00:37:00,34.6,28.2,29.75,NW,325,6.6,6.6,77,0.00,,,0.00,VWS V14.01,2013-03-02 05:37:00,
2013-03-02 00:38:00,34.6,28.4,29.76,West,270,5.0,7.2,78,0.00,,,0.00,VWS V14.01,2013-03-02 05:38:00,
2013-03-02 00:39:00,34.5,28.1,29.76,West,270,0.0,5.0,77,0.00,,,0.00,VWS V14.01,2013-03-02 05:39:00,
2013-03-02 00:40:00,34.6,28.2,29.76,West,270,0.0,0.0,77,0.00,,---,0.00,VWS V14.01,2013-03-02 05:40:00,
2013-03-02 00:41:00,34.6,28.2,29.76,West,270,0.0,0.0,77,0.00,,,0.00,VWS V14.01,2013-03-02 05:41:00,
2013-03-02 00:42:00,34.6,28.2,29.76,West,270,0.0,0.0,77,0.00,,,0.00,VWS V14.01,2013-03-02 05:42:00,
2013-03-02 00:43:00,34.6,28.2,29.76,West,270,0.0,0.0,77,0.00,,,0.00,VWS V14.01,2013-03-02 05:43:00,
2013-03-02 00:44:00,34.6,28.1,29.75,North,4,6.3,6.3,77,0.00,,,0.00,VWS V14.01,2013-03-02 05:44:00,
2013-03-02 00:45:00,34.5,28.0,29.75,West,259,0.0,4.6,77,0.00,,---,0.00,VWS V14.01,2013-03-02 05:45:00,
2013-03-02 00:46:00,34.4,27.8,29.75,NNE,30,0.0,8.5,76,0.00,,,0.00,VWS V14.01,2013-03-02 05:46:00,
2013-03-02 00:47:00,34.5,28.0,29.75,West,259,0.0,4.6,77,0.00,,,0.00,VWS V14.01,2013-03-02 05:47:00,
2013-03-02 00:48:00,34.5,28.6,29.76,West,259,0.0,0.0,79,0.00,,,0.00,VWS V14.01,2013-03-02 05:48:00,
2013-03-02 00:49:00,34.4,27.9,29.75,NW,322,2.9,4.8,77,0.00,,,0.00,VWS V14.01,2013-03-02 05:49:00,
2013-03-02 00:50:00,34.3,27.7,29.75,West,271,3.2,5.5,77,0.00,,---,0.00,VWS V14.01,2013-03-02 05:50:00,
2013-03-02 00:51:00,34.4,27.9,29.76,NW,322,0.0,0.0,77,0.00,,,0.00,VWS V14.01,2013-03-02 05:51:00,
2013-03-02 00:52:00,34.3,27.7,29.75,West,271,3.2,5.5,77,0.00,,,0.00,VWS V14.01,2013-03-02 05:52:00,
2013-03-02 00:53:00,34.3,27.8,29.76,West,271,0.0,3.2,77,0.00,,,0.00,VWS V14.01,2013-03-02 05:53:00,
2013-03-02 00:54:00,34.3,27.7,29.75,West,271,0.0,0.0,76,0.00,,,0.00,VWS V14.01,2013-03-02 05:54:00,
2013-03-02 00:55:00,34.4,28.0,29.76,NNW,330,5.7,7.0,77,0.00,,---,0.00,VWS V14.01,2013-03-02 05:55:00,
2013-03-02 00:56:00,34.4,27.8,29.75,NNW,347,0.0,4.3,77,0.00,,,0.00,VWS V14.01,2013-03-02 05:56:00,
2013-03-02 00:57:00,34.4,28.0,29.76,NNW,330,5.7,7.0,77,0.00,,,0.00,VWS V14.01,2013-03-02 05:57:00,
2013-03-02 00:58:00,34.3,27.7,29.75,NW,323,3.4,6.9,76,0.00,,,0.00,VWS V14.01,2013-03-02 05:58:00,
2013-03-02 00:59:00,34.4,27.8,29.75,NW,323,0.0,3.4,77,0.00,,,0.00,VWS V14.01,2013-03-02 05:59:00,
2013-03-02 01:00:00,34.4,28.1,29.76,NW,323,0.0,0.0,78,0.00,,---,0.00,VWS V14.01,2013-03-02 06:00:00,
2013-03-02 01:01:00,34.4,28.0,29.75,NW,323,0.0,0.0,77,0.00,,,0.00,VWS V14.01,2013-03-02 06:01:00,
2013-03-02 01:02:00,34.4,28.1,29.76,NW,323,0.0,0.0,78,0.00,,,0.00,VWS V14.01,2013-03-02 06:02:00,
2013-03-02 01:03:00,34.4,28.1,29.75,West,280,0.0,3.1,78,0.00,,,0.00,VWS V14.01,2013-03-02 06:03:00,
2013-03-02 01:04:00,34.4,27.8,29.75,NW,316,4.4,4.7,76,0.00,,,0.00,VWS V14.01,2013-03-02 06:04:00,
2013-03-02 01:05:00,34.3,27.3,29.75,NW,326,0.0,6.2,75,0.00,,---,0.00,VWS V14.01,2013-03-02 06:05:00,
2013-03-02 01:06:00,34.4,27.6,29.76,NW,308,6.0,6.0,76,0.00,,,0.00,VWS V14.01,2013-03-02 06:06:00,
2013-03-02 01:07:00,34.3,27.3,29.75,NW,326,0.0,6.2,75,0.00,,,0.00,VWS V14.01,2013-03-02 06:07:00,
2013-03-02 01:08:00,34.3,27.5,29.75,NNE,22,0.0,3.4,76,0.00,,,0.00,VWS V14.01,2013-03-02 06:08:00,
2013-03-02 01:09:00,34.3,27.7,29.75,NW,319,0.0,3.4,77,0.00,,,0.00,VWS V14.01,2013-03-02 06:09:00,
2013-03-02 01:10:00,34.3,27.7,29.75,NNW,330,0.0,0.0,76,0.00,,---,0.00,VWS V14.01,2013-03-02 06:10:00,
2013-03-02 01:11:00,34.3,27.5,29.75,NNW,330,0.0,7.0,76,0.00,,,0.00,VWS V14.01,2013-03-02 06:11:00,
2013-03-02 01:12:00,34.3,27.7,29.75,NNW,330,0.0,0.0,76,0.00,,,0.00,VWS V14.01,2013-03-02 06:12:00,
2013-03-02 01:13:00,34.2,27.4,29.75,NNW,330,0.0,0.0,76,0.00,,,0.00,VWS V14.01,2013-03-02 06:13:00,
2013-03-02 01:14:00,34.2,27.4,29.75,NNW,330,0.0,0.0,76,0.00,,,0.00,VWS V14.01,2013-03-02 06:14:00,
2013-03-02 01:15:00,34.3,27.6,29.75,NNW,330,0.0,0.0,76,0.00,,---,0.00,VWS V14.01,2013-03-02 06:15:00,
2013-03-02 01:16:00,34.3,27.7,29.75,NNW,330,0.0,0.0,76,0.00,,,0.00,VWS V14.01,2013-03-02 06:16:00,
2013-03-02 01:17:00,34.3,27.6,29.75,NNW,330,0.0,0.0,76,0.00,,,0.00,VWS V14.01,2013-03-02 06:17:00,
2013-03-02 01:18:00,34.3,27.6,29.75,NNW,330,0.0,0.0,76,0.00,,,0.00,VWS V14.01,2013-03-02 06:18:00,
2013-03-02 01:19:00,34.3,27.6,29.75,NNW,330,0.0,0.0,76,0.00,,,0.00,VWS V14.01,2013-03-02 06:19:00,
2013-03-02 01:20:00,34.3,27.7,29.75,WNW,300,5.9,5.9,77,0.00,,---,0.00,VWS V14.01,2013-03-02 06:20:00,
2013-03-02 01:21:00,34.3,27.5,29.75,NNW,330,0.0,0.0,76,0.00,,,0.00,VWS V14.01,2013-03-02 06:21:00,
2013-03-02 01:22:00,34.3,27.7,29.75,WNW,300,5.9,5.9,77,0.00,,,0.00,VWS V14.01,2013-03-02 06:22:00,
2013-03-02 01:23:00,34.2,27.3,29.75,WNW,287,0.0,7.1,76,0.00,,,0.00,VWS V14.01,2013-03-02 06:23:00,
2013-03-02 01:24:00,34.2,27.2,29.75,NW,322,4.3,9.4,75,0.00,,,0.00,VWS V14.01,2013-03-02 06:24:00,
2013-03-02 01:25:00,34.2,27.6,29.75,NW,312,0.0,0.0,76,0.00,,---,0.00,VWS V14.01,2013-03-02 06:25:00,
2013-03-02 01:26:00,34.1,27.3,29.75,NW,312,0.0,4.5,76,0.00,,,0.00,VWS V14.01,2013-03-02 06:26:00,
2013-03-02 01:27:00,34.2,27.6,29.75,NW,312,0.0,0.0,76,0.00,,,0.00,VWS V14.01,2013-03-02 06:27:00,
2013-03-02 01:28:00,34.1,27.5,29.75,NW,312,0.0,0.0,76,0.00,,,0.00,VWS V14.01,2013-03-02 06:28:00,
2013-03-02 01:29:00,34.2,27.6,29.75,NW,312,0.0,0.0,77,0.00,,,0.00,VWS V14.01,2013-03-02 06:29:00,
2013-03-02 01:30:00,34.1,27.4,29.75,NW,315,0.0,0.0,76,0.00,,---,0.00,VWS V14.01,2013-03-02 06:30:00,
2013-03-02 01:31:00,34.2,27.4,29.75,NW,315,0.0,6.1,76,0.00,,,0.00,VWS V14.01,2013-03-02 06:31:00,
2013-03-02 01:32:00,34.1,27.4,29.75,NW,315,0.0,0.0,76,0.00,,,0.00,VWS V14.01,2013-03-02 06:32:00,
2013-03-02 01:33:00,34.0,27.3,29.75,NW,315,0.0,2.9,76,0.00,,,0.00,VWS V14.01,2013-03-02 06:33:00,
2013-03-02 01:34:00,34.1,27.4,29.75,NNW,332,3.0,3.0,76,0.00,,,0.00,VWS V14.01,2013-03-02 06:34:00,
2013-03-02 01:35:00,34.1,27.6,29.75,NNW,332,0.0,0.0,77,0.00,,---,0.00,VWS V14.01,2013-03-02 06:35:00,
2013-03-02 01:36:00,34.1,27.6,29.75,NNW,332,0.0,0.0,77,0.00,,,0.00,VWS V14.01,2013-03-02 06:36:00,
2013-03-02 01:37:00,34.1,27.6,29.75,NNW,332,0.0,0.0,77,0.00,,,0.00,VWS V14.01,2013-03-02 06:37:00,
2013-03-02 01:38:00,34.0,27.5,29.75,NNW,339,6.4,8.0,77,0.00,,,0.00,VWS V14.01,2013-03-02 06:38:00,
2013-03-02 01:39:00,33.9,27.1,29.75,North,356,4.7,8.9,76,0.00,,,0.00,VWS V14.01,2013-03-02 06:39:00,
2013-03-02 01:40:00,33.9,27.4,29.75,West,274,4.5,6.1,77,0.00,,---,0.00,VWS V14.01,2013-03-02 06:40:00,
2013-03-02 01:41:00,33.9,27.1,29.75,WNW,290,0.0,6.7,76,0.00,,,0.00,VWS V14.01,2013-03-02 06:41:00,
2013-03-02 01:42:00,33.9,27.4,29.75,West,274,4.5,6.1,77,0.00,,,0.00,VWS V14.01,2013-03-02 06:42:00,
2013-03-02 01:43:00,33.8,27.1,29.75,NW,321,8.1,12.1,76,0.00,,,0.00,VWS V14.01,2013-03-02 06:43:00,
2013-03-02 01:44:00,33.9,27.3,29.75,WNW,292,0.0,8.3,76,0.00,,,0.00,VWS V14.01,2013-03-02 06:44:00,
2013-03-02 01:45:00,33.8,27.2,29.75,NNW,333,2.3,4.4,77,0.00,,---,0.00,VWS V14.01,2013-03-02 06:45:00,
2013-03-02 01:46:00,33.8,27.1,29.75,NNW,329,4.4,7.5,76,0.00,,,0.00,VWS V14.01,2013-03-02 06:46:00,
2013-03-02 01:47:00,33.8,27.2,29.75,NNW,333,2.3,4.4,77,0.00,,,0.00,VWS V14.01,2013-03-02 06:47:00,
2013-03-02 01:48:00,33.8,27.2,29.75,WNW,284,0.0,5.0,76,0.00,,,0.00,VWS V14.01,2013-03-02 06:48:00,
2013-03-02 01:49:00,33.8,27.3,29.75,WNW,284,0.0,0.0,77,0.00,,,0.00,VWS V14.01,2013-03-02 06:49:00,
2013-03-02 01:50:00,33.7,27.1,29.74,NNW,330,4.4,7.7,76,0.00,,---,0.00,VWS V14.01,2013-03-02 06:50:00,
2013-03-02 01:51:00,33.8,27.1,29.74,WNW,284,0.0,3.3,76,0.00,,,0.00,VWS V14.01,2013-03-02 06:51:00,
2013-03-02 01:52:00,33.7,27.1,29.74,NNW,330,4.4,7.7,76,0.00,,,0.00,VWS V14.01,2013-03-02 06:52:00,
2013-03-02 01:53:00,33.8,27.3,29.74,NW,312,0.0,4.4,77,0.00,,,0.00,VWS V14.01,2013-03-02 06:53:00,
2013-03-02 01:54:00,33.8,27.3,29.74,North,359,3.0,5.7,77,0.00,,,0.00,VWS V14.01,2013-03-02 06:54:00,
2013-03-02 01:55:00,33.7,27.1,29.74,WNW,285,0.0,10.6,76,0.00,,---,0.00,VWS V14.01,2013-03-02 06:55:00,
2013-03-02 01:56:00,33.8,27.6,29.74,North,359,0.0,0.0,78,0.00,,,0.00,VWS V14.01,2013-03-02 06:56:00,
2013-03-02 01:57:00,33.7,27.1,29.74,WNW,285,0.0,10.6,76,0.00,,,0.00,VWS V14.01,2013-03-02 06:57:00,
2013-03-02 01:58:00,33.7,27.3,29.74,NW,311,3.2,3.4,77,0.00,,,0.00,VWS V14.01,2013-03-02 06:58:00,
2013-03-02 01:59:00,33.7,27.2,29.74,NNW,330,6.4,7.2,77,0.00,,,0.00,VWS V14.01,2013-03-02 06:59:00,
2013-03-02 02:00:00,33.7,27.2,29.74,NW,314,3.0,3.0,77,0.00,,---,0.00,VWS V14.01,2013-03-02 07:00:00,
2013-03-02 02:01:00,33.7,27.4,29.74,NW,314,0.0,0.0,77,0.00,,,0.00,VWS V14.01,2013-03-02 07:01:00,
2013-03-02 02:02:00,33.7,27.2,29.74,NW,314,3.0,3.0,77,0.00,,,0.00,VWS V14.01,2013-03-02 07:02:00,
2013-03-02 02:03:00,33.7,27.4,29.74,NW,304,0.0,5.0,77,0.00,,,0.00,VWS V14.01,2013-03-02 07:03:00,
2013-03-02 02:04:00,33.8,27.5,29.74,NW,304,0.0,0.0,77,0.00,,,0.00,VWS V14.01,2013-03-02 07:04:00,
2013-03-02 02:05:00,33.7,27.4,29.74,WNW,295,0.0,3.0,77,0.00,,---,0.00,VWS V14.01,2013-03-02 07:05:00,
2013-03-02 02:06:00,33.7,27.4,29.74,WNW,295,0.0,0.0,77,0.00,,,0.00,VWS V14.01,2013-03-02 07:06:00,
2013-03-02 02:07:00,33.7,27.4,29.74,WNW,295,0.0,3.0,77,0.00,,,0.00,VWS V14.01,2013-03-02 07:07:00,
2013-03-02 02:08:00,33.7,27.5,29.74,NNW,336,6.0,6.1,78,0.00,,,0.00,VWS V14.01,2013-03-02 07:08:00,
2013-03-02 02:09:00,33.7,27.3,29.74,NW,318,0.0,6.0,77,0.00,,,0.00,VWS V14.01,2013-03-02 07:09:00,
2013-03-02 02:10:00,33.7,27.3,29.74,SW,233,0.0,3.0,77,0.00,,---,0.00,VWS V14.01,2013-03-02 07:10:00,
2013-03-02 02:11:00,33.7,27.3,29.74,NNW,336,0.0,4.6,77,0.00,,,0.00,VWS V14.01,2013-03-02 07:11:00,
2013-03-02 02:12:00,33.7,27.3,29.74,SW,233,0.0,3.0,77,0.00,,,0.00,VWS V14.01,2013-03-02 07:12:00,
2013-03-02 02:13:00,33.7,27.2,29.74,NW,318,4.5,7.6,77,0.00,,,0.00,VWS V14.01,2013-03-02 07:13:00,
2013-03-02 02:14:00,33.6,27.0,29.74,NW,314,5.8,8.2,77,0.00,,,0.00,VWS V14.01,2013-03-02 07:14:00,
2013-03-02 02:15:00,33.5,27.2,29.74,West,281,0.0,6.8,77,0.00,,---,0.00,VWS V14.01,2013-03-02 07:15:00,
2013-03-02 02:16:00,33.6,27.3,29.74,NW,316,4.4,4.4,77,0.00,,,0.00,VWS V14.01,2013-03-02 07:16:00,
2013-03-02 02:17:00,33.5,27.2,29.74,West,281,0.0,6.8,77,0.00,,,0.00,VWS V14.01,2013-03-02 07:17:00,
2013-03-02 02:18:00,33.6,27.5,29.74,West,281,0.0,2.9,78,0.00,,,0.00,VWS V14.01,2013-03-02 07:18:00,
2013-03-02 02:19:00,33.6,27.3,29.74,WNW,294,0.0,3.4,77,0.00,,,0.00,VWS V14.01,2013-03-02 07:19:00,
2013-03-02 02:20:00,33.5,27.2,29.74,North,353,0.0,0.0,77,0.00,,---,0.00,VWS V14.01,2013-03-02 07:20:00,
2013-03-02 02:21:00,33.5,27.2,29.74,North,353,0.0,0.0,77,0.00,,,0.00,VWS V14.01,2013-03-02 07:21:00,
2013-03-02 02:22:00,33.5,27.2,29.74,North,353,0.0,0.0,77,0.00,,,0.00,VWS V14.01,2013-03-02 07:22:00,
2013-03-02 02:23:00,33.6,27.4,29.74,North,353,0.0,0.0,78,0.00,,,0.00,VWS V14.01,2013-03-02 07:23:00,
2013-03-02 02:24:00,33.6,27.3,29.74,North,353,0.0,0.0,78,0.00,,,0.00,VWS V14.01,2013-03-02 07:24:00,
2013-03-02 02:25:00,33.5,27.3,29.74,NNW,333,0.0,3.5,78,0.00,,---,0.00,VWS V14.01,2013-03-02 07:25:00,
2013-03-02 02:26:00,33.5,27.4,29.74,NNW,333,0.0,2.4,78,0.00,,,0.00,VWS V14.01,2013-03-02 07:26:00,
2013-03-02 02:27:00,33.5,27.3,29.74,NNW,333,0.0,3.5,78,0.00,,,0.00,VWS V14.01,2013-03-02 07:27:00,
2013-03-02 02:28:00,33.5,27.3,29.74,NNW,333,4.3,4.3,78,0.00,,,0.00,VWS V14.01,2013-03-02 07:28:00,
2013-03-02 02:29:00,33.5,27.3,29.74,NW,323,0.0,6.6,78,0.00,,,0.00,VWS V14.01,2013-03-02 07:29:00,
2013-03-02 02:30:00,33.4,27.1,29.74,WSW,239,0.0,8.5,77,0.00,,---,0.00,VWS V14.01,2013-03-02 07:30:00,
2013-03-02 02:31:00,33.5,27.3,29.74,WNW,294,0.0,6.9,78,0.00,,,0.00,VWS V14.01,2013-03-02 07:31:00,
2013-03-02 02:32:00,33.4,27.1,29.74,WSW,239,0.0,8.5,77,0.00,,,0.00,VWS V14.01,2013-03-02 07:32:00,
2013-03-02 02:33:00,33.4,27.1,29.74,NNW,328,4.3,7.1,78,0.00,,,0.00,VWS V14.01,2013-03-02 07:33:00,
2013-03-02 02:34:00,33.4,27.1,29.74,NNW,329,6.8,7.6,77,0.00,,,0.00,VWS V14.01,2013-03-02 07:34:00,
2013-03-02 02:35:00,33.3,27.1,29.74,West,266,2.9,7.8,78,0.00,,---,0.00,VWS V14.01,2013-03-02 07:35:00,
2013-03-02 02:36:00,33.3,27.2,29.74,NW,309,3.1,4.2,78,0.00,,,0.00,VWS V14.01,2013-03-02 07:36:00,
2013-03-02 02:37:00,33.3,27.1,29.74,West,266,2.9,7.8,78,0.00,,,0.00,VWS V14.01,2013-03-02 07:37:00,
2013-03-02 02:38:00,33.2,27.0,29.74,NW,318,7.5,8.5,78,0.00,,,0.00,VWS V14.01,2013-03-02 07:38:00,
2013-03-02 02:39:00,33.3,27.0,29.74,NW,308,4.9,7.7,78,0.00,,,0.00,VWS V14.01,2013-03-02 07:39:00,
2013-03-02 02:40:00,33.3,27.1,29.74,NW,308,5.0,7.6,78,0.00,,---,0.00,VWS V14.01,2013-03-02 07:40:00,
2013-03-02 02:41:00,33.3,27.2,29.74,NW,309,3.2,3.4,78,0.00,,,0.00,VWS V14.01,2013-03-02 07:41:00,
2013-03-02 02:42:00,33.3,27.1,29.74,NW,308,5.0,7.6,78,0.00,,,0.00,VWS V14.01,2013-03-02 07:42:00,
2013-03-02 02:43:00,33.2,27.0,29.74,NW,308,0.0,5.0,78,0.00,,,0.00,VWS V14.01,2013-03-02 07:43:00,
2013-03-02 02:44:00,33.3,27.4,29.74,NW,308,0.0,0.0,79,0.00,,,0.00,VWS V14.01,2013-03-02 07:44:00,
2013-03-02 02:45:00,33.3,27.4,29.74,NW,325,1.9,7.4,78,0.00,,---,0.00,VWS V14.01,2013-03-02 07:45:00,
2013-03-02 02:46:00,33.3,27.3,29.74,NNW,330,6.5,6.5,78,0.00,,,0.00,VWS V14.01,2013-03-02 07:46:00,
2013-03-02 02:47:00,33.3,27.4,29.74,NW,325,1.9,7.4,78,0.00,,,0.00,VWS V14.01,2013-03-02 07:47:00,
2013-03-02 02:48:00,33.2,27.1,29.74,NNW,332,2.3,6.5,78,0.00,,,0.00,VWS V14.01,2013-03-02 07:48:00,
2013-03-02 02:49:00,33.2,27.0,29.74,NNW,329,7.6,9.1,78,0.00,,,0.00,VWS V14.01,2013-03-02 07:49:00,
2013-03-02 02:50:00,33.2,27.3,29.74,NW,308,3.4,3.4,79,0.00,,---,0.00,VWS V14.01,2013-03-02 07:50:00,
2013-03-02 02:51:00,33.2,27.1,29.74,NW,318,3.4,6.3,78,0.00,,,0.00,VWS V14.01,2013-03-02 07:51:00,
2013-03-02 02:52:00,33.2,27.3,29.74,NW,308,3.4,3.4,79,0.00,,,0.00,VWS V14.01,2013-03-02 07:52:00,
2013-03-02 02:53:00,33.3,27.6,29.74,WNW,288,0.0,5.4,79,0.00,,,0.00,VWS V14.01,2013-03-02 07:53:00,
2013-03-02 02:54:00,33.3,27.6,29.74,WNW,288,0.0,0.0,79,0.00,,,0.00,VWS V14.01,2013-03-02 07:54:00,
2013-03-02 02:55:00,33.3,27.2,29.74,West,270,0.0,4.8,78,0.00,,---,0.00,VWS V14.01,2013-03-02 07:55:00,
2013-03-02 02:56:00,33.2,27.0,29.74,North,359,4.8,6.8,78,0.00,,,0.00,VWS V14.01,2013-03-02 07:56:00,
2013-03-02 02:57:00,33.3,27.2,29.74,West,270,0.0,4.8,78,0.00,,,0.00,VWS V14.01,2013-03-02 07:57:00,
2013-03-02 02:58:00,33.2,27.1,29.74,West,270,0.0,0.0,78,0.00,,,0.00,VWS V14.01,2013-03-02 07:58:00,
2013-03-02 02:59:00,33.3,27.4,29.74,West,270,0.0,0.0,79,0.00,,,0.00,VWS V14.01,2013-03-02 07:59:00,
2013-03-02 03:00:00,33.3,27.2,29.74,West,270,0.0,0.0,78,0.00,,---,0.00,VWS V14.01,2013-03-02 08:00:00,
2013-03-02 03:01:00,33.3,27.2,29.74,West,270,0.0,0.0,78,0.00,,,0.00,VWS V14.01,2013-03-02 08:01:00,
2013-03-02 03:02:00,33.3,27.2,29.74,West,270,0.0,0.0,78,0.00,,,0.00,VWS V14.01,2013-03-02 08:02:00,
2013-03-02 03:03:00,33.3,27.2,29.74,NNW,335,0.0,3.4,78,0.00,,,0.00,VWS V14.01,2013-03-02 08:03:00,
2013-03-02 03:04:00,33.3,27.4,29.74,NW,305,0.0,4.2,79,0.00,,,0.00,VWS V14.01,2013-03-02 08:04:00,
2013-03-02 03:05:00,33.3,27.3,29.74,NW,305,0.0,0.0,78,0.00,,---,0.00,VWS V14.01,2013-03-02 08:05:00,
2013-03-02 03:06:00,33.3,27.3,29.74,NW,305,0.0,0.0,78,0.00,,,0.00,VWS V14.01,2013-03-02 08:06:00,
2013-03-02 03:07:00,33.3,27.3,29.74,NW,305,0.0,0.0,78,0.00,,,0.00,VWS V14.01,2013-03-02 08:07:00,
2013-03-02 03:08:00,33.3,27.3,29.74,NW,305,0.0,0.0,78,0.00,,,0.00,VWS V14.01,2013-03-02 08:08:00,
2013-03-02 03:09:00,33.3,27.4,29.74,NNW,329,5.8,6.5,78,0.00,,,0.00,VWS V14.01,2013-03-02 08:09:00,
2013-03-02 03:10:00,33.1,27.2,29.74,NW,318,6.7,7.0,79,0.00,,---,0.00,VWS V14.01,2013-03-02 08:10:00,
2013-03-02 03:11:00,33.1,27.3,29.74,North,1,0.0,5.2,79,0.00,,,0.00,VWS V14.01,2013-03-02 08:11:00,
2013-03-02 03:12:00,33.1,27.2,29.74,NW,318,6.7,7.0,79,0.00,,,0.00,VWS V14.01,2013-03-02 08:12:00,
2013-03-02 03:13:00,33.0,27.1,29.74,NNW,343,4.8,7.1,78,0.00,,,0.00,VWS V14.01,2013-03-02 08:13:00,
2013-03-02 03:14:00,33.1,27.2,29.74,North,7,0.0,4.8,79,0.00,,,0.00,VWS V14.01,2013-03-02 08:14:00,
2013-03-02 03:15:00,33.2,27.4,29.74,North,7,0.0,0.0,79,0.00,,---,0.00,VWS V14.01,2013-03-02 08:15:00,
2013-03-02 03:16:00,33.1,27.2,29.74,North,7,0.0,0.0,79,0.00,,,0.00,VWS V14.01,2013-03-02 08:16:00,
2013-03-02 03:17:00,33.2,27.4,29.74,North,7,0.0,0.0,79,0.00,,,0.00,VWS V14.01,2013-03-02 08:17:00,
2013-03-02 03:18:00,33.2,27.2,29.74,North,7,0.0,0.0,78,0.00,,,0.00,VWS V14.01,2013-03-02 08:18:00,
2013-03-02 03:19:00,33.2,27.3,29.74,North,7,0.0,0.0,79,0.00,,,0.00,VWS V14.01,2013-03-02 08:19:00,
2013-03-02 03:20:00,33.1,27.3,29.74,NW,312,3.2,5.7,79,0.00,,---,0.00,VWS V14.01,2013-03-02 08:20:00,
2013-03-02 03:21:00,33.0,27.3,29.74,NNW,335,0.0,5.1,79,0.00,,,0.00,VWS V14.01,2013-03-02 08:21:00,
2013-03-02 03:22:00,33.1,27.3,29.74,NW,312,3.2,5.7,79,0.00,,,0.00,VWS V14.01,2013-03-02 08:22:00,
2013-03-02 03:23:00,33.0,27.1,29.74,NNE,22,4.8,4.8,79,0.00,,,0.00,VWS V14.01,2013-03-02 08:23:00,
2013-03-02 03:24:00,33.0,27.0,29.74,NNW,339,6.6,9.7,78,0.00,,,0.00,VWS V14.01,2013-03-02 08:24:00,
2013-03-02 03:25:00,33.1,27.3,29.74,North,352,3.1,5.4,79,0.00,,---,0.00,VWS V14.01,2013-03-02 08:25:00,
2013-03-02 03:26:00,33.0,27.2,29.74,NW,308,0.0,0.0,79,0.00,,,0.00,VWS V14.01,2013-03-02 08:26:00,
2013-03-02 03:27:00,33.1,27.3,29.74,North,352,3.1,5.4,79,0.00,,,0.00,VWS V14.01,2013-03-02 08:27:00,
2013-03-02 03:28:00,33.1,27.5,29.74,NNW,335,0.0,6.2,80,0.00,,,0.00,VWS V14.01,2013-03-02 08:28:00,
2013-03-02 03:29:00,33.0,27.5,29.74,NNW,335,0.0,0.0,80,0.00,,,0.00,VWS V14.01,2013-03-02 08:29:00,
2013-03-02 03:30:00,33.1,27.6,29.74,NW,322,0.0,0.0,80,0.00,,---,0.00,VWS V14.01,2013-03-02 08:30:00,
2013-03-02 03:31:00,33.1,27.4,29.74,NW,322,0.0,4.2,79,0.00,,,0.00,VWS V14.01,2013-03-02 08:31:00,
2013-03-02 03:32:00,33.1,27.6,29.74,NW,322,0.0,0.0,80,0.00,,,0.00,VWS V14.01,2013-03-02 08:32:00,
2013-03-02 03:33:00,33.1,27.4,29.74,NNW,329,4.2,7.3,79,0.00,,,0.00,VWS V14.01,2013-03-02 08:33:00,
2013-03-02 03:34:00,33.0,27.2,29.74,NNW,333,0.0,6.1,79,0.00,,,0.00,VWS V14.01,2013-03-02 08:34:00,
2013-03-02 03:35:00,33.1,27.3,29.74,NNW,333,6.6,6.7,79,0.00,,---,0.00,VWS V14.01,2013-03-02 08:35:00,
2013-03-02 03:36:00,33.0,27.3,29.74,NW,321,0.0,5.5,79,0.00,,,0.00,VWS V14.01,2013-03-02 08:36:00,
2013-03-02 03:37:00,33.1,27.3,29.74,NNW,333,6.6,6.7,79,0.00,,,0.00,VWS V14.01,2013-03-02 08:37:00,
2013-03-02 03:38:00,33.1,27.2,29.74,NNE,14,0.0,6.6,79,0.00,,,0.00,VWS V14.01,2013-03-02 08:38:00,
2013-03-02 03:39:00,33.0,27.5,29.74,NNW,342,4.2,7.5,80,0.00,,,0.00,VWS V14.01,2013-03-02 08:39:00,
2013-03-02 03:40:00,32.9,27.3,29.74,West,263,0.0,8.0,80,0.00,,---,0.00,VWS V14.01,2013-03-02 08:40:00,
2013-03-02 03:41:00,33.0,27.2,29.74,North,349,6.8,8.3,79,0.00,,,0.00,VWS V14.01,2013-03-02 08:41:00,
2013-03-02 03:42:00,32.9,27.3,29.74,West,263,0.0,8.0,80,0.00,,,0.00,VWS V14.01,2013-03-02 08:42:00,
2013-03-02 03:43:00,32.9,27.2,29.74,West,263,0.0,0.0,79,0.00,,,0.00,VWS V14.01,2013-03-02 08:43:00,
2013-03-02 03:44:00,33.0,27.3,29.74,WNW,294,0.0,5.2,79,0.00,,,0.00,VWS V14.01,2013-03-02 08:44:00,
2013-03-02 03:45:00,33.0,27.3,29.74,North,352,5.4,6.0,79,0.00,,---,0.00,VWS V14.01,2013-03-02 08:45:00,
2013-03-02 03:46:00,33.1,27.5,29.74,WNW,294,0.0,0.0,80,0.00,,,0.00,VWS V14.01,2013-03-02 08:46:00,
2013-03-02 03:47:00,33.0,27.3,29.74,North,352,5.4,6.0,79,0.00,,,0.00,VWS V14.01,2013-03-02 08:47:00,
2013-03-02 03:48:00,32.8,27.0,29.74,North,1,5.9,8.9,79,0.00,,,0.00,VWS V14.01,2013-03-02 08:48:00,
2013-03-02 03:49:00,32.8,27.0,29.74,WNW,288,4.7,7.5,79,0.00,,,0.00,VWS V14.01,2013-03-02 08:49:00,
2013-03-02 03:50:00,32.8,27.2,29.74,WNW,285,5.5,7.0,80,0.00,,---,0.00,VWS V14.01,2013-03-02 08:50:00,
2013-03-02 03:51:00,32.8,27.2,29.74,WNW,302,4.6,4.9,80,0.00,,,0.00,VWS V14.01,2013-03-02 08:51:00,
2013-03-02 03:52:00,32.8,27.2,29.74,WNW,285,5.5,7.0,80,0.00,,,0.00,VWS V14.01,2013-03-02 08:52:00,
2013-03-02 03:53:00,32.9,27.3,29.74,NNW,330,4.2,6.7,80,0.00,,,0.00,VWS V14.01,2013-03-02 08:53:00,
2013-03-02 03:54:00,32.9,27.2,29.74,NNW,343,0.0,7.0,79,0.00,,,0.00,VWS V14.01,2013-03-02 08:54:00,
2013-03-02 03:55:00,32.9,27.4,29.74,NNW,343,0.0,0.0,80,0.00,,---,0.00,VWS V14.01,2013-03-02 08:55:00,
2013-03-02 03:56:00,32.9,27.5,29.74,NNW,343,0.0,0.0,80,0.00,,,0.00,VWS V14.01,2013-03-02 08:56:00,
2013-03-02 03:57:00,32.9,27.4,29.74,NNW,343,0.0,0.0,80,0.00,,,0.00,VWS V14.01,2013-03-02 08:57:00,
2013-03-02 03:58:00,32.9,27.4,29.74,WNW,294,0.0,4.3,80,0.00,,,0.00,VWS V14.01,2013-03-02 08:58:00,
2013-03-02 03:59:00,32.9,27.3,29.74,NW,308,0.0,4.2,80,0.00,,,0.00,VWS V14.01,2013-03-02 08:59:00,
2013-03-02 04:00:00,33.0,27.5,29.74,NW,308,2.7,2.7,80,0.00,,---,0.00,VWS V14.01,2013-03-02 09:00:00,
2013-03-02 04:01:00,33.0,27.6,29.74,NW,308,0.0,0.0,80,0.00,,,0.00,VWS V14.01,2013-03-02 09:01:00,
2013-03-02 04:02:00,33.0,27.5,29.74,NW,308,2.7,2.7,80,0.00,,,0.00,VWS V14.01,2013-03-02 09:02:00,
2013-03-02 04:03:00,33.0,27.3,29.74,NW,308,0.0,2.7,79,0.00,,,0.00,VWS V14.01,2013-03-02 09:03:00,
2013-03-02 04:04:00,33.0,27.2,29.74,NNW,338,3.4,5.8,79,0.00,,,0.00,VWS V14.01,2013-03-02 09:04:00,
2013-03-02 04:05:00,33.0,27.3,29.74,NNW,328,6.3,7.3,79,0.00,,---,0.00,VWS V14.01,2013-03-02 09:05:00,
2013-03-02 04:06:00,33.0,27.5,29.74,NNW,338,0.0,0.0,80,0.00,,,0.00,VWS V14.01,2013-03-02 09:06:00,
2013-03-02 04:07:00,33.0,27.3,29.74,NNW,328,6.3,7.3,79,0.00,,,0.00,VWS V14.01,2013-03-02 09:07:00,
2013-03-02 04:08:00,32.9,27.1,29.74,North,359,0.0,8.3,79,0.00,,,0.00,VWS V14.01,2013-03-02 09:08:00,
2013-03-02 04:09:00,32.9,27.5,29.74,North,359,3.4,3.4,80,0.00,,,0.00,VWS V14.01,2013-03-02 09:09:00,
2013-03-02 04:10:00,32.9,27.1,29.74,WNW,302,5.0,9.3,79,0.00,,---,0.00,VWS V14.01,2013-03-02 09:10:00,
2013-03-02 04:11:00,32.9,27.2,29.74,NW,323,6.6,7.4,79,0.00,,,0.00,VWS V14.01,2013-03-02 09:11:00,
2013-03-02 04:12:00,32.9,27.1,29.74,WNW,302,5.0,9.3,79,0.00,,,0.00,VWS V14.01,2013-03-02 09:12:00,
2013-03-02 04:13:00,32.7,26.9,29.74,NW,315,0.0,6.8,79,0.00,,,0.00,VWS V14.01,2013-03-02 09:13:00,
2013-03-02 04:14:00,32.8,27.0,29.74,WNW,290,0.0,5.2,79,0.00,,,0.00,VWS V14.01,2013-03-02 09:14:00,
2013-03-02 04:15:00,32.9,27.2,29.74,NW,304,6.7,10.7,79,0.00,,---,0.00,VWS V14.01,2013-03-02 09:15:00,
2013-03-02 04:16:00,32.9,27.3,29.74,WNW,290,0.0,0.0,80,0.00,,,0.00,VWS V14.01,2013-03-02 09:16:00,
2013-03-02 04:17:00,32.9,27.2,29.74,NW,304,6.7,10.7,79,0.00,,,0.00,VWS V14.01,2013-03-02 09:17:00,
2013-03-02 04:18:00,32.8,27.1,29.74,WNW,290,0.0,6.7,79,0.00,,,0.00,VWS V14.01,2013-03-02 09:18:00,
2013-03-02 04:19:00,32.8,27.3,29.74,WNW,290,0.0,0.0,80,0.00,,,0.00,VWS V14.01,2013-03-02 09:19:00,
2013-03-02 04:20:00,32.8,27.1,29.74,WNW,290,0.0,0.0,79,0.00,,---,0.00,VWS V14.01,2013-03-02 09:20:00,
2013-03-02 04:21:00,32.7,27.0,29.74,WNW,290,0.0,0.0,79,0.00,,,0.00,VWS V14.01,2013-03-02 09:21:00,
2013-03-02 04:22:00,32.8,27.1,29.74,WNW,290,0.0,0.0,79,0.00,,,0.00,VWS V14.01,2013-03-02 09:22:00,
2013-03-02 04:23:00,32.7,27.0,29.74,NNW,332,6.5,6.5,79,0.00,,,0.00,VWS V14.01,2013-03-02 09:23:00,
2013-03-02 04:24:00,32.8,27.5,29.74,WSW,249,0.0,6.5,81,0.00,,,0.00,VWS V14.01,2013-03-02 09:24:00,
2013-03-02 04:25:00,32.7,27.0,29.74,NW,314,0.0,0.0,79,0.00,,---,0.00,VWS V14.01,2013-03-02 09:25:00,
2013-03-02 04:26:00,32.8,27.1,29.74,NW,314,0.0,4.5,79,0.00,,,0.00,VWS V14.01,2013-03-02 09:26:00,
2013-03-02 04:27:00,32.7,27.0,29.74,NW,314,0.0,0.0,79,0.00,,,0.00,VWS V14.01,2013-03-02 09:27:00,
2013-03-02 04:28:00,32.8,27.2,29.74,NW,307,0.0,5.9,80,0.00,,,0.00,VWS V14.01,2013-03-02 09:28:00,
2013-03-02 04:29:00,32.8,27.1,29.74,NW,307,0.0,0.0,79,0.00,,,0.00,VWS V14.01,2013-03-02 09:29:00,
2013-03-02 04:30:00,32.9,27.5,29.74,NW,307,0.0,0.0,80,0.00,,---,0.00,VWS V14.01,2013-03-02 09:30:00,
2013-03-02 04:31:00,32.8,27.2,29.74,NW,307,0.0,0.0,80,0.00,,,0.00,VWS V14.01,2013-03-02 09:31:00,
2013-03-02 04:32:00,32.9,27.5,29.74,NW,307,0.0,0.0,80,0.00,,,0.00,VWS V14.01,2013-03-02 09:32:00,
2013-03-02 04:33:00,32.9,27.3,29.74,NW,307,0.0,0.0,80,0.00,,,0.00,VWS V14.01,2013-03-02 09:33:00,
2013-03-02 04:34:00,32.8,27.0,29.74,NW,307,0.0,0.0,79,0.00,,,0.00,VWS V14.01,2013-03-02 09:34:00,
2013-03-02 04:35:00,32.8,27.3,29.74,NNE,27,0.0,6.6,80,0.00,,---,0.00,VWS V14.01,2013-03-02 09:35:00,
2013-03-02 04:36:00,32.8,27.3,29.74,NW,323,6.6,6.9,80,0.00,,,0.00,VWS V14.01,2013-03-02 09:36:00,
2013-03-02 04:37:00,32.8,27.3,29.74,NNE,27,0.0,6.6,80,0.00,,,0.00,VWS V14.01,2013-03-02 09:37:00,
2013-03-02 04:38:00,32.9,27.1,29.74,NNE,27,0.0,0.0,79,0.00,,,0.00,VWS V14.01,2013-03-02 09:38:00,
2013-03-02 04:39:00,32.9,27.2,29.74,NNW,347,3.0,4.7,79,0.00,,,0.00,VWS V14.01,2013-03-02 09:39:00,
2013-03-02 04:40:00,32.9,27.1,29.74,NW,321,5.4,6.7,79,0.00,,---,0.00,VWS V14.01,2013-03-02 09:40:00,
2013-03-02 04:41:00,32.9,27.1,29.74,NNW,347,0.0,0.0,79,0.00,,,0.00,VWS V14.01,2013-03-02 09:41:00,
2013-03-02 04:42:00,32.9,27.1,29.74,NW,321,5.4,6.7,79,0.00,,,0.00,VWS V14.01,2013-03-02 09:42:00,
2013-03-02 04:43:00,32.8,26.9,29.74,NW,315,3.3,7.1,79,0.00,,,0.00,VWS V14.01,2013-03-02 09:43:00,
2013-03-02 04:44:00,32.8,27.0,29.74,NW,308,0.0,7.1,79,0.00,,,0.00,VWS V14.01,2013-03-02 09:44:00,
2013-03-02 04:45:00,32.7,26.9,29.74,NW,305,3.2,6.5,79,0.00,,---,0.00,VWS V14.01,2013-03-02 09:45:00,
2013-03-02 04:46:00,32.7,26.9,29.74,NNW,329,6.5,7.9,79,0.00,,,0.00,VWS V14.01,2013-03-02 09:46:00,
2013-03-02 04:47:00,32.7,26.9,29.74,NW,305,3.2,6.5,79,0.00,,,0.00,VWS V14.01,2013-03-02 09:47:00,
2013-03-02 04:48:00,32.7,27.0,29.74,North,4,4.8,6.6,79,0.00,,,0.00,VWS V14.01,2013-03-02 09:48:00,
2013-03-02 04:49:00,32.8,27.0,29.74,WNW,284,3.4,6.2,79,0.00,,,0.00,VWS V14.01,2013-03-02 09:49:00,
2013-03-02 04:50:00,32.8,27.3,29.74,WNW,284,0.0,0.0,80,0.00,,---,0.00,VWS V14.01,2013-03-02 09:50:00,
2013-03-02 04:51:00,32.8,27.2,29.74,WNW,284,0.0,0.0,80,0.00,,,0.00,VWS V14.01,2013-03-02 09:51:00,
2013-03-02 04:52:00,32.8,27.3,29.74,WNW,284,0.0,0.0,80,0.00,,,0.00,VWS V14.01,2013-03-02 09:52:00,
2013-03-02 04:53:00,32.8,27.2,29.74,WNW,284,0.0,0.0,80,0.00,,,0.00,VWS V14.01,2013-03-02 09:53:00,
2013-03-02 04:54:00,32.8,27.2,29.74,WNW,284,0.0,0.0,80,0.00,,,0.00,VWS V14.01,2013-03-02 09:54:00,
2013-03-02 04:55:00,32.7,27.0,29.74,WNW,301,0.0,0.0,79,0.00,,---,0.00,VWS V14.01,2013-03-02 09:55:00,
2013-03-02 04:56:00,32.6,27.0,29.74,WNW,301,0.0,3.0,80,0.00,,,0.00,VWS V14.01,2013-03-02 09:56:00,
2013-03-02 04:57:00,32.7,27.0,29.74,WNW,301,0.0,0.0,79,0.00,,,0.00,VWS V14.01,2013-03-02 09:57:00,
2013-03-02 04:58:00,32.6,26.8,29.74,WNW,301,0.0,3.2,79,0.00,,,0.00,VWS V14.01,2013-03-02 09:58:00,
2013-03-02 04:59:00,32.7,26.9,29.74,WNW,301,0.0,0.0,79,0.00,,,0.00,VWS V14.01,2013-03-02 09:59:00,
2013-03-02 05:00:00,32.8,27.2,29.74,WNW,301,0.0,0.0,80,0.00,,---,0.00,VWS V14.01,2013-03-02 10:00:00,
2013-03-02 05:01:00,32.8,27.2,29.74,WNW,301,0.0,0.0,80,0.00,,,0.00,VWS V14.01,2013-03-02 10:01:00,
2013-03-02 05:02:00,32.8,27.2,29.74,WNW,301,0.0,0.0,80,0.00,,,0.00,VWS V14.01,2013-03-02 10:02:00,
2013-03-02 05:03:00,32.8,27.2,29.74,WNW,301,0.0,0.0,80,0.00,,,0.00,VWS V14.01,2013-03-02 10:03:00,
2013-03-02 05:04:00,32.8,27.1,29.74,WNW,301,0.0,0.0,79,0.00,,,0.00,VWS V14.01,2013-03-02 10:04:00,
2013-03-02 05:05:00,32.8,27.4,29.74,NW,307,3.4,3.4,80,0.00,,---,0.00,VWS V14.01,2013-03-02 10:05:00,
2013-03-02 05:06:00,32.8,27.1,29.74,WNW,301,0.0,0.0,79,0.00,,,0.00,VWS V14.01,2013-03-02 10:06:00,
2013-03-02 05:07:00,32.8,27.4,29.74,NW,307,3.4,3.4,80,0.00,,,0.00,VWS V14.01,2013-03-02 10:07:00,
2013-03-02 05:08:00,32.8,27.1,29.74,NW,307,0.0,3.4,79,0.00,,,0.00,VWS V14.01,2013-03-02 10:08:00,
2013-03-02 05:09:00,32.8,27.2,29.74,NW,307,0.0,0.0,80,0.00,,,0.00,VWS V14.01,2013-03-02 10:09:00,
2013-03-02 05:10:00,32.7,27.0,29.74,West,278,0.0,5.7,79,0.00,,---,0.00,VWS V14.01,2013-03-02 10:10:00,
2013-03-02 05:11:00,32.8,27.1,29.74,West,263,0.0,0.0,79,0.00,,,0.00,VWS V14.01,2013-03-02 10:11:00,
2013-03-02 05:12:00,32.7,27.0,29.74,West,278,0.0,5.7,79,0.00,,,0.00,VWS V14.01,2013-03-02 10:12:00,
2013-03-02 05:13:00,32.9,27.5,29.74,North,7,0.0,5.5,80,0.00,,,0.00,VWS V14.01,2013-03-02 10:13:00,
2013-03-02 05:14:00,32.8,27.2,29.74,North,7,0.0,0.0,80,0.00,,,0.00,VWS V14.01,2013-03-02 10:14:00,
2013-03-02 05:15:00,32.8,27.4,29.74,North,7,0.0,0.0,80,0.00,,,0.00,VWS V14.01,2013-03-02 10:15:00,
2013-03-02 05:16:00,32.7,27.2,29.74,North,7,0.0,0.0,80,0.00,,---,0.00,VWS V14.01,2013-03-02 10:16:00,
2013-03-02 05:17:00,32.7,27.2,29.74,North,7,0.0,0.0,80,0.00,,,0.00,VWS V14.01,2013-03-02 10:17:00,
2013-03-02 05:18:00,32.8,27.3,29.74,North,7,0.0,0.0,80,0.00,,,0.00,VWS V14.01,2013-03-02 10:18:00,
2013-03-02 05:19:00,32.7,27.2,29.74,North,7,0.0,0.0,80,0.00,,,0.00,VWS V14.01,2013-03-02 10:19:00,
2013-03-02 05:20:00,32.7,27.1,29.74,North,7,0.0,0.0,80,0.00,,,0.00,VWS V14.01,2013-03-02 10:20:00,
2013-03-02 05:21:00,32.6,27.1,29.74,WNW,295,4.3,4.9,80,0.00,,---,0.00,VWS V14.01,2013-03-02 10:21:00,
2013-03-02 05:22:00,32.8,27.5,29.74,North,7,0.0,0.0,81,0.00,,,0.00,VWS V14.01,2013-03-02 10:22:00,
2013-03-02 05:23:00,32.7,27.2,29.74,NW,307,4.3,5.6,80,0.00,,,0.00,VWS V14.01,2013-03-02 10:23:00,
2013-03-02 05:24:00,32.7,27.2,29.74,NW,307,0.0,4.3,80,0.00,,,0.00,VWS V14.01,2013-03-02 10:24:00,
2013-03-02 05:25:00,32.6,27.1,29.74,NW,307,0.0,0.0,80,0.00,,,0.00,VWS V14.01,2013-03-02 10:25:00,
2013-03-02 05:26:00,32.6,27.1,29.74,NW,323,0.0,6.4,80,0.00,,---,0.00,VWS V14.01,2013-03-02 10:26:00,
2013-03-02 05:27:00,32.6,27.1,29.74,NNW,332,6.4,7.0,80,0.00,,,0.00,VWS V14.01,2013-03-02 10:27:00,
2013-03-02 05:28:00,32.7,27.2,29.74,NW,323,4.2,6.4,80,0.00,,,0.00,VWS V14.01,2013-03-02 10:28:00,
2013-03-02 05:29:00,32.6,27.2,29.74,WNW,287,0.0,5.5,80,0.00,,,0.00,VWS V14.01,2013-03-02 10:29:00,
2013-03-02 05:30:00,32.6,27.1,29.74,WNW,287,0.0,0.0,80,0.00,,,0.00,VWS V14.01,2013-03-02 10:30:00,
2013-03-02 05:31:00,32.5,27.3,29.74,NNW,346,0.0,0.0,81,0.00,,---,0.00,VWS V14.01,2013-03-02 10:31:00,
2013-03-02 05:32:00,32.5,27.1,29.74,NNW,346,0.0,5.1,80,0.00,,,0.00,VWS V14.01,2013-03-02 10:32:00,
2013-03-02 05:33:00,32.5,27.4,29.74,NNW,346,0.0,0.0,81,0.00,,,0.00,VWS V14.01,2013-03-02 10:33:00,
2013-03-02 05:34:00,32.5,27.6,29.74,NNW,346,0.0,0.0,82,0.00,,,0.00,VWS V14.01,2013-03-02 10:34:00,
2013-03-02 05:35:00,32.5,27.1,29.74,NW,314,5.0,7.0,80,0.00,,,0.00,VWS V14.01,2013-03-02 10:35:00,
2013-03-02 05:36:00,32.5,27.3,29.74,NW,314,0.0,0.0,81,0.00,,---,0.00,VWS V14.01,2013-03-02 10:36:00,
2013-03-02 05:37:00,32.5,27.1,29.74,NW,314,0.0,2.5,80,0.00,,,0.00,VWS V14.01,2013-03-02 10:37:00,
2013-03-02 05:38:00,32.6,27.4,29.74,NW,314,0.0,0.0,81,0.00,,,0.00,VWS V14.01,2013-03-02 10:38:00,
2013-03-02 05:39:00,32.6,27.5,29.74,NW,314,0.0,0.0,81,0.00,,,0.00,VWS V14.01,2013-03-02 10:39:00,
2013-03-02 05:40:00,32.6,27.4,29.74,NW,314,0.0,0.0,81,0.00,,,0.00,VWS V14.01,2013-03-02 10:40:00,
2013-03-02 05:41:00,32.5,27.3,29.74,NW,323,5.1,5.1,81,0.00,,---,0.00,VWS V14.01,2013-03-02 10:41:00,
2013-03-02 05:42:00,32.5,27.3,29.74,NW,312,0.0,5.8,81,0.00,,,0.00,VWS V14.01,2013-03-02 10:42:00,
2013-03-02 05:43:00,32.5,27.3,29.74,NW,312,3.5,3.5,81,0.00,,,0.00,VWS V14.01,2013-03-02 10:43:00,
2013-03-02 05:44:00,32.4,27.1,29.74,WNW,300,6.6,9.0,81,0.00,,,0.00,VWS V14.01,2013-03-02 10:44:00,
2013-03-02 05:45:00,32.3,27.1,29.74,NNW,328,6.5,7.5,81,0.00,,,0.00,VWS V14.01,2013-03-02 10:45:00,
2013-03-02 05:46:00,32.2,27.1,29.74,NNW,339,5.3,6.0,81,0.00,,---,0.00,VWS V14.01,2013-03-02 10:46:00,
2013-03-02 05:47:00,32.2,27.1,29.74,NW,326,0.0,0.0,81,0.00,,,0.00,VWS V14.01,2013-03-02 10:47:00,
2013-03-02 05:48:00,32.3,27.2,29.74,NNW,335,6.0,9.2,81,0.00,,,0.00,VWS V14.01,2013-03-02 10:48:00,
2013-03-02 05:49:00,32.2,27.0,29.74,NW,323,8.6,8.7,81,0.00,,,0.00,VWS V14.01,2013-03-02 10:49:00,
2013-03-02 05:50:00,32.1,26.9,29.74,WNW,291,8.3,11.9,81,0.00,,,0.00,VWS V14.01,2013-03-02 10:50:00,
2013-03-02 05:51:00,32.1,27.2,29.74,WNW,297,3.2,3.2,82,0.00,,---,0.00,VWS V14.01,2013-03-02 10:51:00,
2013-03-02 05:52:00,32.0,27.1,29.74,WNW,292,0.0,3.5,82,0.00,,,0.00,VWS V14.01,2013-03-02 10:52:00,
2013-03-02 05:53:00,32.1,27.1,29.74,WNW,292,0.0,0.0,82,0.00,,,0.00,VWS V14.01,2013-03-02 10:53:00,
2013-03-02 05:54:00,32.1,27.3,29.74,NNW,336,6.2,6.2,82,0.00,,,0.00,VWS V14.01,2013-03-02 10:54:00,
2013-03-02 05:55:00,32.2,27.4,29.74,NW,309,0.0,6.5,82,0.00,,,0.00,VWS V14.01,2013-03-02 10:55:00,
2013-03-02 05:56:00,32.0,27.2,29.74,NW,307,6.1,7.5,82,0.00,,---,0.00,VWS V14.01,2013-03-02 10:56:00,
2013-03-02 05:57:00,32.1,27.4,29.74,WNW,298,5.9,5.9,82,0.00,,,0.00,VWS V14.01,2013-03-02 10:57:00,
2013-03-02 05:58:00,32.1,27.3,29.74,West,267,5.1,6.9,82,0.00,,,0.00,VWS V14.01,2013-03-02 10:58:00,
2013-03-02 05:59:00,32.0,27.2,29.74,NW,319,4.2,7.5,82,0.00,,,0.00,VWS V14.01,2013-03-02 10:59:00,
2013-03-02 06:00:00,32.0,27.2,29.74,NW,308,6.5,8.2,82,0.00,,,0.00,VWS V14.01,2013-03-02 11:00:00,
2013-03-02 06:01:00,32.0,27.2,29.74,West,267,0.0,6.8,82,0.00,,,0.00,VWS V14.01,2013-03-02 11:01:00,
2013-03-02 06:02:00,32.1,27.4,29.74,West,267,0.0,0.0,83,0.00,,---,0.00,VWS V14.01,2013-03-02 11:02:00,
2013-03-02 06:03:00,32.0,27.5,29.74,West,267,0.0,2.5,83,0.00,,,0.00,VWS V14.01,2013-03-02 11:03:00,
2013-03-02 06:04:00,31.9,27.2,29.74,West,267,0.0,0.0,82,0.00,,,0.00,VWS V14.01,2013-03-02 11:04:00,
2013-03-02 06:05:00,31.9,27.4,29.74,WSW,252,0.0,2.9,83,0.00,,,0.00,VWS V14.01,2013-03-02 11:05:00,
2013-03-02 06:06:00,32.0,27.3,29.74,WSW,252,0.0,0.0,82,0.00,,,0.00,VWS V14.01,2013-03-02 11:06:00,
2013-03-02 06:07:00,31.9,27.1,29.74,NNW,329,3.4,6.9,82,0.00,,---,0.00,VWS V14.01,2013-03-02 11:07:00,
2013-03-02 06:08:00,32.0,27.3,29.74,WSW,252,0.0,0.0,83,0.00,,,0.00,VWS V14.01,2013-03-02 11:08:00,
2013-03-02 06:09:00,32.0,27.2,29.74,NNW,329,0.0,6.9,82,0.00,,,0.00,VWS V14.01,2013-03-02 11:09:00,
2013-03-02 06:10:00,31.9,27.1,29.74,North,6,4.3,4.7,82,0.00,,,0.00,VWS V14.01,2013-03-02 11:10:00,
2013-03-02 06:11:00,31.9,27.1,29.74,North,4,0.0,4.3,82,0.00,,,0.00,VWS V14.01,2013-03-02 11:11:00,
2013-03-02 06:12:00,31.8,27.3,29.74,North,4,0.0,0.0,83,0.00,,---,0.00,VWS V14.01,2013-03-02 11:12:00,
2013-03-02 06:13:00,31.8,27.2,29.74,North,4,0.0,0.0,83,0.00,,,0.00,VWS V14.01,2013-03-02 11:13:00,
2013-03-02 06:14:00,31.8,27.3,29.74,North,4,0.0,0.0,83,0.00,,,0.00,VWS V14.01,2013-03-02 11:14:00,
2013-03-02 06:15:00,31.8,27.2,29.74,NNW,330,5.3,5.9,83,0.00,,,0.00,VWS V14.01,2013-03-02 11:15:00,
2013-03-02 06:16:00,31.8,27.1,29.74,WNW,284,0.0,5.4,83,0.00,,,0.00,VWS V14.01,2013-03-02 11:16:00,
2013-03-02 06:17:00,31.8,27.2,29.74,NNW,330,0.0,0.0,83,0.00,,---,0.00,VWS V14.01,2013-03-02 11:17:00,
2013-03-02 06:18:00,31.7,27.1,29.74,NNW,330,0.0,4.7,83,0.00,,,0.00,VWS V14.01,2013-03-02 11:18:00,
2013-03-02 06:19:00,31.8,27.4,29.74,NNW,330,0.0,0.0,84,0.00,,,0.00,VWS V14.01,2013-03-02 11:19:00,
2013-03-02 06:20:00,31.9,27.4,29.74,NNW,330,0.0,0.0,83,0.00,,,0.00,VWS V14.01,2013-03-02 11:20:00,
2013-03-02 06:21:00,31.8,27.3,29.74,NNW,330,0.0,0.0,83,0.00,,,0.00,VWS V14.01,2013-03-02 11:21:00,
2013-03-02 06:22:00,31.7,27.0,29.74,NNW,330,0.0,0.0,82,0.00,,---,0.00,VWS V14.01,2013-03-02 11:22:00,
2013-03-02 06:23:00,31.8,27.1,29.74,NNW,330,0.0,0.0,82,0.00,,,0.00,VWS V14.01,2013-03-02 11:23:00,
2013-03-02 06:24:00,31.8,27.1,29.74,NNW,330,0.0,0.0,82,0.00,,,0.00,VWS V14.01,2013-03-02 11:24:00,
2013-03-02 06:25:00,31.8,27.1,29.74,NNW,330,0.0,0.0,83,0.00,,,0.00,VWS V14.01,2013-03-02 11:25:00,
2013-03-02 06:26:00,31.9,27.2,29.74,NNW,330,0.0,0.0,83,0.00,,,0.00,VWS V14.01,2013-03-02 11:26:00,
2013-03-02 06:27:00,31.8,27.1,29.74,NNW,330,0.0,0.0,82,0.00,,---,0.00,VWS V14.01,2013-03-02 11:27:00,
2013-03-02 06:28:00,31.7,27.0,29.74,NNW,330,0.0,0.0,82,0.00,,,0.00,VWS V14.01,2013-03-02 11:28:00,
2013-03-02 06:29:00,31.8,27.1,29.74,NNW,330,0.0,0.0,82,0.00,,,0.00,VWS V14.01,2013-03-02 11:29:00,
2013-03-02 06:30:00,31.8,27.1,29.74,NNW,330,0.0,0.0,82,0.00,,,0.00,VWS V14.01,2013-03-02 11:30:00,
2013-03-02 06:31:00,31.7,26.9,29.74,NNW,330,0.0,0.0,82,0.00,,,0.00,VWS V14.01,2013-03-02 11:31:00,
2013-03-02 06:32:00,31.7,27.0,29.74,NNW,330,0.0,0.0,83,0.00,,---,0.00,VWS V14.01,2013-03-02 11:32:00,
2013-03-02 06:33:00,31.7,27.0,29.74,NNW,330,0.0,0.0,83,0.00,,,0.00,VWS V14.01,2013-03-02 11:33:00,
2013-03-02 06:34:00,31.7,27.0,29.74,NNW,330,0.0,0.0,83,0.00,,,0.00,VWS V14.01,2013-03-02 11:34:00,
2013-03-02 06:35:00,31.7,27.0,29.75,NNW,330,0.0,0.0,83,0.00,,,0.00,VWS V14.01,2013-03-02 11:35:00,
2013-03-02 06:36:00,31.7,27.1,29.74,NNW,330,0.0,0.0,83,0.00,,,0.00,VWS V14.01,2013-03-02 11:36:00,
2013-03-02 06:37:00,31.8,27.1,29.74,NNW,330,0.0,0.0,82,0.00,,---,0.00,VWS V14.01,2013-03-02 11:37:00,
2013-03-02 06:38:00,31.6,26.9,29.75,NNW,330,0.0,0.0,82,0.00,,,0.00,VWS V14.01,2013-03-02 11:38:00,
2013-03-02 06:39:00,31.7,27.0,29.74,NNW,330,0.0,0.0,82,0.00,,,0.00,VWS V14.01,2013-03-02 11:39:00,
2013-03-02 06:40:00,31.8,27.1,29.74,NNW,330,0.0,0.0,82,0.00,,,0.00,VWS V14.01,2013-03-02 11:40:00,
2013-03-02 06:41:00,31.8,27.1,29.74,NNW,330,0.0,0.0,82,0.00,,,0.00,VWS V14.01,2013-03-02 11:41:00,
2013-03-02 06:42:00,31.7,27.0,29.74,NNW,330,0.0,0.0,82,0.00,,---,0.00,VWS V14.01,2013-03-02 11:42:00,
2013-03-02 06:43:00,31.6,26.9,29.74,NNW,330,0.0,0.0,82,0.00,,,0.00,VWS V14.01,2013-03-02 11:43:00,
2013-03-02 06:44:00,31.7,27.0,29.74,NNW,330,0.0,0.0,82,0.00,,,0.00,VWS V14.01,2013-03-02 11:44:00,
2013-03-02 06:45:00,31.8,27.1,29.74,NNW,330,0.0,0.0,83,0.00,,,0.00,VWS V14.01,2013-03-02 11:45:00,
2013-03-02 06:46:00,31.8,27.1,29.74,NNW,330,0.0,0.0,82,0.00,,,0.00,VWS V14.01,2013-03-02 11:46:00,
2013-03-02 06:47:00,31.8,27.1,29.74,NNW,330,0.0,0.0,82,0.00,,---,0.00,VWS V14.01,2013-03-02 11:47:00,
2013-03-02 06:48:00,31.7,26.9,29.74,NNW,330,0.0,0.0,82,0.00,,,0.00,VWS V14.01,2013-03-02 11:48:00,
2013-03-02 06:49:00,31.7,27.0,29.74,NNW,330,0.0,0.0,82,0.00,,,0.00,VWS V14.01,2013-03-02 11:49:00,
2013-03-02 06:50:00,31.8,27.1,29.74,NNW,330,0.0,0.0,82,0.00,,,0.00,VWS V14.01,2013-03-02 11:50:00,
2013-03-02 06:51:00,31.8,27.0,29.74,NNW,330,0.0,0.0,82,0.00,,,0.00,VWS V14.01,2013-03-02 11:51:00,
2013-03-02 06:52:00,31.7,26.9,29.74,NNW,330,0.0,0.0,82,0.00,,---,0.00,VWS V14.01,2013-03-02 11:52:00,
2013-03-02 06:53:00,31.7,26.8,29.75,NNW,330,0.0,0.0,82,0.00,,,0.00,VWS V14.01,2013-03-02 11:53:00,
2013-03-02 06:54:00,31.7,26.9,29.74,NNW,330,0.0,0.0,82,0.00,,,0.00,VWS V14.01,2013-03-02 11:54:00,
2013-03-02 06:55:00,31.8,27.0,29.74,NNW,330,0.0,0.0,82,0.00,,,0.00,VWS V14.01,2013-03-02 11:55:00,
2013-03-02 06:56:00,31.8,27.0,29.74,NNW,330,0.0,0.0,82,0.00,,,0.00,VWS V14.01,2013-03-02 11:56:00,
2013-03-02 06:57:00,31.9,27.2,29.74,NNW,330,0.0,0.0,83,0.00,,---,0.00,VWS V14.01,2013-03-02 11:57:00,
2013-03-02 06:58:00,31.8,27.1,29.74,NNW,330,0.0,0.0,82,0.00,,,0.00,VWS V14.01,2013-03-02 11:58:00,
2013-03-02 06:59:00,31.9,27.2,29.74,NNW,330,0.0,0.0,83,0.00,,,0.00,VWS V14.01,2013-03-02 11:59:00,
2013-03-02 07:00:00,31.8,27.1,29.74,NNW,330,0.0,0.0,83,0.00,,,0.00,VWS V14.01,2013-03-02 12:00:00,
2013-03-02 07:01:00,31.9,27.1,29.74,NNW,330,0.0,0.0,82,0.00,,,0.00,VWS V14.01,2013-03-02 12:01:00,
2013-03-02 07:02:00,32.0,27.0,29.74,NNW,330,0.0,0.0,82,0.00,,---,0.00,VWS V14.01,2013-03-02 12:02:00,
2013-03-02 07:03:00,31.9,27.1,29.74,NNW,330,0.0,0.0,82,0.00,,,0.00,VWS V14.01,2013-03-02 12:03:00,
2013-03-02 07:04:00,32.0,27.0,29.74,NNW,330,0.0,0.0,82,0.00,,,0.00,VWS V14.01,2013-03-02 12:04:00,
2013-03-02 07:05:00,32.1,27.1,29.74,NNW,330,0.0,0.0,82,0.00,,,0.00,VWS V14.01,2013-03-02 12:05:00,
2013-03-02 07:06:00,32.1,27.1,29.74,NNW,330,0.0,0.0,82,0.00,,,0.00,VWS V14.01,2013-03-02 12:06:00,
2013-03-02 07:07:00,32.2,27.4,29.74,NNW,330,0.0,0.0,82,0.00,,---,0.00,VWS V14.01,2013-03-02 12:07:00,
2013-03-02 07:08:00,32.1,27.3,29.74,NNW,330,0.0,0.0,82,0.00,,,0.00,VWS V14.01,2013-03-02 12:08:00,
2013-03-02 07:09:00,32.2,27.4,29.74,NNW,330,0.0,0.0,82,0.00,,,0.00,VWS V14.01,2013-03-02 12:09:00,
2013-03-02 07:10:00,32.2,27.4,29.74,NNW,330,0.0,0.0,82,0.00,,,0.00,VWS V14.01,2013-03-02 12:10:00,
2013-03-02 07:11:00,32.4,27.6,29.74,NNW,330,0.0,0.0,82,0.00,,,0.00,VWS V14.01,2013-03-02 12:11:00,
2013-03-02 07:12:00,32.6,27.8,29.74,NNW,330,0.0,0.0,82,0.00,,---,0.00,VWS V14.01,2013-03-02 12:12:00,
2013-03-02 07:13:00,32.5,27.7,29.74,NNW,330,0.0,0.0,82,0.00,,,0.00,VWS V14.01,2013-03-02 12:13:00,
2013-03-02 07:14:00,32.6,27.8,29.74,NNW,330,0.0,0.0,82,0.00,,,0.00,VWS V14.01,2013-03-02 12:14:00,
2013-03-02 07:15:00,32.7,27.7,29.74,NNW,330,0.0,0.0,82,0.00,,,0.00,VWS V14.01,2013-03-02 12:15:00,
2013-03-02 07:16:00,32.7,27.7,29.74,NNW,330,0.0,0.0,82,0.00,,,0.00,VWS V14.01,2013-03-02 12:16:00,
2013-03-02 07:17:00,32.9,27.8,29.74,NNW,330,0.0,0.0,81,0.00,,---,0.00,VWS V14.01,2013-03-02 12:17:00,
2013-03-02 07:18:00,32.7,27.6,29.74,NNW,330,0.0,0.0,81,0.00,,,0.00,VWS V14.01,2013-03-02 12:18:00,
2013-03-02 07:19:00,32.9,27.8,29.74,NNW,330,0.0,0.0,81,0.00,,,0.00,VWS V14.01,2013-03-02 12:19:00,
2013-03-02 07:20:00,32.9,27.6,29.74,NNW,330,0.0,0.0,81,0.00,,,0.00,VWS V14.01,2013-03-02 12:20:00,
2013-03-02 07:21:00,32.9,27.5,29.74,NNW,330,0.0,0.0,80,0.00,,,0.00,VWS V14.01,2013-03-02 12:21:00,
2013-03-02 07:22:00,32.9,27.1,29.74,NNW,330,0.0,0.0,79,0.00,,---,0.00,VWS V14.01,2013-03-02 12:22:00,
2013-03-02 07:23:00,33.0,27.4,29.74,NNW,330,0.0,0.0,80,0.00,,,0.00,VWS V14.01,2013-03-02 12:23:00,
2013-03-02 07:24:00,32.9,27.1,29.74,NNW,330,0.0,0.0,79,0.00,,,0.00,VWS V14.01,2013-03-02 12:24:00,
2013-03-02 07:25:00,32.9,27.0,29.74,NNW,330,0.0,0.0,79,0.00,,,0.00,VWS V14.01,2013-03-02 12:25:00,
2013-03-02 07:26:00,33.0,27.2,29.74,NNW,330,0.0,0.0,79,0.00,,,0.00,VWS V14.01,2013-03-02 12:26:00,
2013-03-02 07:27:00,32.9,27.3,29.74,NNW,330,0.0,0.0,80,0.00,,---,0.00,VWS V14.01,2013-03-02 12:27:00,
2013-03-02 07:28:00,32.9,27.4,29.75,NNW,330,0.0,0.0,80,0.00,,,0.00,VWS V14.01,2013-03-02 12:28:00,
2013-03-02 07:29:00,32.9,27.3,29.74,NNW,330,0.0,0.0,80,0.00,,,0.00,VWS V14.01,2013-03-02 12:29:00,
2013-03-02 07:30:00,32.9,27.2,29.74,NNW,330,0.0,0.0,79,0.00,,,0.00,VWS V14.01,2013-03-02 12:30:00,
2013-03-02 07:31:00,33.0,27.4,29.74,NNW,330,0.0,0.0,80,0.00,,,0.00,VWS V14.01,2013-03-02 12:31:00,
2013-03-02 07:32:00,33.1,27.3,29.74,NNW,330,0.0,0.0,79,0.00,,---,0.00,VWS V14.01,2013-03-02 12:32:00,
2013-03-02 07:33:00,33.1,27.5,29.75,NNW,330,0.0,0.0,80,0.00,,,0.00,VWS V14.01,2013-03-02 12:33:00,
2013-03-02 07:34:00,33.1,27.3,29.74,NNW,330,0.0,0.0,79,0.00,,,0.00,VWS V14.01,2013-03-02 12:34:00,
2013-03-02 07:35:00,33.1,27.4,29.75,NNW,330,0.0,0.0,79,0.00,,,0.00,VWS V14.01,2013-03-02 12:35:00,
2013-03-02 07:36:00,33.2,27.6,29.75,NNW,330,0.0,0.0,80,0.00,,,0.00,VWS V14.01,2013-03-02 12:36:00,
2013-03-02 07:37:00,33.3,27.6,29.75,NNW,330,0.0,0.0,79,0.00,,---,0.00,VWS V14.01,2013-03-02 12:37:00,
2013-03-02 07:38:00,33.3,27.7,29.75,NNW,330,0.0,0.0,80,0.00,,,0.00,VWS V14.01,2013-03-02 12:38:00,
2013-03-02 07:39:00,33.3,27.6,29.75,NNW,330,0.0,0.0,79,0.00,,,0.00,VWS V14.01,2013-03-02 12:39:00,
2013-03-02 07:40:00,33.4,27.7,29.75,NNW,330,0.0,0.0,79,0.00,,,0.00,VWS V14.01,2013-03-02 12:40:00,
2013-03-02 07:41:00,33.6,27.9,29.75,NNW,330,0.0,0.0,79,0.00,,,0.00,VWS V14.01,2013-03-02 12:41:00,
2013-03-02 07:42:00,33.7,27.7,29.74,NNW,330,0.0,0.0,78,0.00,,---,0.00,VWS V14.01,2013-03-02 12:42:00,
2013-03-02 07:43:00,33.7,27.8,29.75,NNW,330,0.0,0.0,79,0.00,,,0.00,VWS V14.01,2013-03-02 12:43:00,
2013-03-02 07:44:00,33.7,27.7,29.74,NNW,330,0.0,0.0,78,0.00,,,0.00,VWS V14.01,2013-03-02 12:44:00,
2013-03-02 07:45:00,33.7,27.4,29.75,NNW,333,5.5,5.5,77,0.00,,,0.00,VWS V14.01,2013-03-02 12:45:00,
2013-03-02 07:46:00,33.7,27.1,29.74,WNW,288,0.0,7.1,76,0.00,,,0.00,VWS V14.01,2013-03-02 12:46:00,
2013-03-02 07:47:00,33.6,27.1,29.74,WNW,287,0.0,3.3,77,0.00,,---,0.00,VWS V14.01,2013-03-02 12:47:00,
2013-03-02 07:48:00,33.6,26.9,29.74,WNW,287,3.3,3.3,76,0.00,,,0.00,VWS V14.01,2013-03-02 12:48:00,
2013-03-02 07:49:00,33.6,27.1,29.74,WNW,287,0.0,3.3,77,0.00,,,0.00,VWS V14.01,2013-03-02 12:49:00,
2013-03-02 07:50:00,33.6,27.4,29.74,WNW,287,0.0,0.0,78,0.00,,,0.00,VWS V14.01,2013-03-02 12:50:00,
2013-03-02 07:51:00,33.7,27.6,29.74,WNW,287,0.0,0.0,78,0.00,,,0.00,VWS V14.01,2013-03-02 12:51:00,
2013-03-02 07:52:00,33.6,27.0,29.74,WNW,287,0.0,0.0,76,0.00,,---,0.00,VWS V14.01,2013-03-02 12:52:00,
2013-03-02 07:53:00,33.7,27.1,29.74,WNW,287,0.0,0.0,76,0.00,,,0.00,VWS V14.01,2013-03-02 12:53:00,
2013-03-02 07:54:00,33.6,27.0,29.74,WNW,287,0.0,0.0,76,0.00,,,0.00,VWS V14.01,2013-03-02 12:54:00,
2013-03-02 07:55:00,33.7,27.2,29.75,WNW,287,0.0,0.0,77,0.00,,,0.00,VWS V14.01,2013-03-02 12:55:00,
2013-03-02 07:56:00,33.7,27.5,29.74,WNW,287,0.0,0.0,78,0.00,,,0.00,VWS V14.01,2013-03-02 12:56:00,
2013-03-02 07:57:00,33.7,27.1,29.75,West,273,0.0,0.0,77,0.00,,---,0.00,VWS V14.01,2013-03-02 12:57:00,
2013-03-02 07:58:00,33.6,27.0,29.75,West,273,0.0,0.0,76,0.00,,,0.00,VWS V14.01,2013-03-02 12:58:00,
2013-03-02 07:59:00,33.7,27.1,29.75,West,273,0.0,0.0,77,0.00,,,0.00,VWS V14.01,2013-03-02 12:59:00,
2013-03-02 08:00:00,33.7,27.3,29.75,West,273,0.0,0.0,77,0.00,,,0.00,VWS V14.01,2013-03-02 13:00:00,
2013-03-02 08:01:00,33.8,27.5,29.75,West,273,0.0,0.0,77,0.00,,,0.00,VWS V14.01,2013-03-02 13:01:00,
2013-03-02 08:02:00,33.8,27.1,29.75,NW,305,0.0,4.9,76,0.00,,---,0.00,VWS V14.01,2013-03-02 13:02:00,
2013-03-02 08:03:00,33.7,27.0,29.75,WNW,284,0.0,4.8,76,0.00,,,0.00,VWS V14.01,2013-03-02 13:03:00,
2013-03-02 08:04:00,33.8,27.1,29.75,NW,305,0.0,4.9,76,0.00,,,0.00,VWS V14.01,2013-03-02 13:04:00,
2013-03-02 08:05:00,33.8,27.1,29.75,NNW,328,4.9,5.0,76,0.00,,,0.00,VWS V14.01,2013-03-02 13:05:00,
2013-03-02 08:06:00,33.8,26.8,29.75,WNW,291,0.0,5.5,75,0.00,,,0.00,VWS V14.01,2013-03-02 13:06:00,
2013-03-02 08:07:00,33.7,26.9,29.75,NNW,336,6.3,7.3,76,0.00,,---,0.00,VWS V14.01,2013-03-02 13:07:00,
2013-03-02 08:08:00,33.7,27.0,29.75,NNW,330,7.0,8.8,76,0.00,,,0.00,VWS V14.01,2013-03-02 13:08:00,
2013-03-02 08:09:00,33.7,26.9,29.75,NNW,336,6.3,7.3,76,0.00,,,0.00,VWS V14.01,2013-03-02 13:09:00,
2013-03-02 08:10:00,33.5,26.5,29.75,NW,322,6.3,9.1,75,0.00,,,0.00,VWS V14.01,2013-03-02 13:10:00,
2013-03-02 08:11:00,33.5,26.5,29.75,NNW,329,3.5,7.0,75,0.00,,,0.00,VWS V14.01,2013-03-02 13:11:00,
2013-03-02 08:12:00,33.4,26.6,29.74,NW,305,0.0,5.2,76,0.00,,---,0.00,VWS V14.01,2013-03-02 13:12:00,
2013-03-02 08:13:00,33.5,26.6,29.74,NNW,346,5.2,7.7,76,0.00,,,0.00,VWS V14.01,2013-03-02 13:13:00,
2013-03-02 08:14:00,33.4,26.6,29.74,NW,305,0.0,5.2,76,0.00,,,0.00,VWS V14.01,2013-03-02 13:14:00,
2013-03-02 08:15:00,33.4,26.8,29.74,NW,304,5.2,8.7,76,0.00,,,0.00,VWS V14.01,2013-03-02 13:15:00,
2013-03-02 08:16:00,33.4,26.5,29.74,NNW,330,0.0,7.8,76,0.00,,,0.00,VWS V14.01,2013-03-02 13:16:00,
2013-03-02 08:17:00,33.3,26.5,29.74,WNW,295,6.7,9.6,76,0.00,,---,0.00,VWS V14.01,2013-03-02 13:17:00,
2013-03-02 08:18:00,33.4,26.5,29.74,North,11,0.0,9.6,75,0.00,,,0.00,VWS V14.01,2013-03-02 13:18:00,
2013-03-02 08:19:00,33.3,26.5,29.74,WNW,295,6.7,9.6,76,0.00,,,0.00,VWS V14.01,2013-03-02 13:19:00,
2013-03-02 08:20:00,33.3,26.5,29.75,North,359,3.2,8.1,76,0.00,,,0.00,VWS V14.01,2013-03-02 13:20:00,
2013-03-02 08:21:00,33.4,26.8,29.74,NNW,330,3.4,3.4,76,0.00,,,0.00,VWS V14.01,2013-03-02 13:21:00,
2013-03-02 08:22:00,33.4,26.8,29.75,West,280,0.0,7.5,76,0.00,,---,0.00,VWS V14.01,2013-03-02 13:22:00,
2013-03-02 08:23:00,33.4,26.9,29.75,NNW,333,5.3,6.4,77,0.00,,,0.00,VWS V14.01,2013-03-02 13:23:00,
2013-03-02 08:24:00,33.4,26.8,29.75,West,280,0.0,7.5,76,0.00,,,0.00,VWS V14.01,2013-03-02 13:24:00,
2013-03-02 08:25:00,33.5,26.8,29.75,West,280,0.0,0.0,76,0.00,,,0.00,VWS V14.01,2013-03-02 13:25:00,
2013-03-02 08:26:00,33.5,26.8,29.75,North,359,4.8,5.0,76,0.00,,,0.00,VWS V14.01,2013-03-02 13:26:00,
2013-03-02 08:27:00,33.6,27.0,29.74,NNW,336,5.0,5.5,76,0.00,,---,0.00,VWS V14.01,2013-03-02 13:27:00,
2013-03-02 08:28:00,33.6,26.9,29.74,NNE,17,3.5,5.1,76,0.00,,,0.00,VWS V14.01,2013-03-02 13:28:00,
2013-03-02 08:29:00,33.6,27.0,29.74,NNW,336,5.0,5.5,76,0.00,,,0.00,VWS V14.01,2013-03-02 13:29:00,
2013-03-02 08:30:00,33.6,27.1,29.74,North,359,0.0,5.0,77,0.00,,,0.00,VWS V14.01,2013-03-02 13:30:00,
2013-03-02 08:31:00,33.7,27.0,29.74,WNW,300,3.4,6.9,76,0.00,,,0.00,VWS V14.01,2013-03-02 13:31:00,
2013-03-02 08:32:00,33.6,26.6,29.74,NNW,342,3.3,6.4,75,0.00,,---,0.00,VWS V14.01,2013-03-02 13:32:00,
2013-03-02 08:33:00,33.6,26.5,29.74,North,359,5.4,8.1,75,0.00,,,0.00,VWS V14.01,2013-03-02 13:33:00,
2013-03-02 08:34:00,33.6,26.6,29.74,NNW,342,3.3,6.4,75,0.00,,,0.00,VWS V14.01,2013-03-02 13:34:00,
2013-03-02 08:35:00,33.6,26.8,29.74,NW,305,0.0,6.5,76,0.00,,,0.00,VWS V14.01,2013-03-02 13:35:00,
2013-03-02 08:36:00,33.7,26.7,29.74,NW,305,0.0,0.0,75,0.00,,,0.00,VWS V14.01,2013-03-02 13:36:00,
2013-03-02 08:37:00,33.8,27.1,29.74,NW,305,0.0,0.0,76,0.00,,---,0.00,VWS V14.01,2013-03-02 13:37:00,
2013-03-02 08:38:00,33.8,26.8,29.75,NW,305,0.0,0.0,75,0.00,,,0.00,VWS V14.01,2013-03-02 13:38:00,
2013-03-02 08:39:00,33.8,27.1,29.74,NW,305,0.0,0.0,76,0.00,,,0.00,VWS V14.01,2013-03-02 13:39:00,
2013-03-02 08:40:00,33.9,27.2,29.75,NW,315,0.0,4.4,76,0.00,,,0.00,VWS V14.01,2013-03-02 13:40:00,
2013-03-02 08:41:00,33.8,27.3,29.75,North,3,5.0,5.0,77,0.00,,,0.00,VWS V14.01,2013-03-02 13:41:00,
2013-03-02 08:42:00,33.9,27.1,29.74,West,266,0.0,0.0,76,0.00,,---,0.00,VWS V14.01,2013-03-02 13:42:00,
2013-03-02 08:43:00,33.8,26.7,29.75,West,266,0.0,7.1,75,0.00,,,0.00,VWS V14.01,2013-03-02 13:43:00,
2013-03-02 08:44:00,33.9,27.1,29.74,West,266,0.0,0.0,76,0.00,,,0.00,VWS V14.01,2013-03-02 13:44:00,
2013-03-02 08:45:00,34.0,27.0,29.74,West,281,0.0,2.4,75,0.00,,,0.00,VWS V14.01,2013-03-02 13:45:00,
2013-03-02 08:46:00,34.0,26.9,29.74,West,281,0.0,0.0,75,0.00,,,0.00,VWS V14.01,2013-03-02 13:46:00,
2013-03-02 08:47:00,34.1,27.1,29.74,NW,309,2.4,7.7,75,0.00,,---,0.00,VWS V14.01,2013-03-02 13:47:00,
2013-03-02 08:48:00,34.0,27.2,29.74,West,281,0.0,4.3,76,0.00,,,0.00,VWS V14.01,2013-03-02 13:48:00,
2013-03-02 08:49:00,34.1,27.1,29.74,NW,309,2.4,7.7,75,0.00,,,0.00,VWS V14.01,2013-03-02 13:49:00,
2013-03-02 08:50:00,34.2,27.1,29.74,NW,315,6.1,6.1,75,0.00,,,0.00,VWS V14.01,2013-03-02 13:50:00,
2013-03-02 08:51:00,34.3,27.0,29.74,NNE,13,3.4,6.2,74,0.00,,,0.00,VWS V14.01,2013-03-02 13:51:00,
2013-03-02 08:52:00,34.6,27.9,29.74,NNW,336,0.0,0.0,76,0.00,,---,0.00,VWS V14.01,2013-03-02 13:52:00,
2013-03-02 08:53:00,34.4,27.6,29.74,NNW,336,0.0,0.0,76,0.00,,,0.00,VWS V14.01,2013-03-02 13:53:00,
2013-03-02 08:54:00,34.6,27.9,29.74,NNW,336,0.0,0.0,76,0.00,,,0.00,VWS V14.01,2013-03-02 13:54:00,
2013-03-02 08:55:00,34.7,28.0,29.74,NNW,336,0.0,0.0,76,0.00,,,0.00,VWS V14.01,2013-03-02 13:55:00,
2013-03-02 08:56:00,34.7,27.3,29.74,NNW,328,6.6,6.7,74,0.00,,,0.00,VWS V14.01,2013-03-02 13:56:00,
2013-03-02 08:57:00,34.8,27.3,29.74,WNW,291,0.0,0.0,74,0.00,,---,0.00,VWS V14.01,2013-03-02 13:57:00,
2013-03-02 08:58:00,34.7,27.1,29.74,WNW,291,0.0,6.5,74,0.00,,,0.00,VWS V14.01,2013-03-02 13:58:00,
2013-03-02 08:59:00,34.8,27.3,29.74,WNW,291,0.0,0.0,74,0.00,,,0.00,VWS V14.01,2013-03-02 13:59:00,
2013-03-02 09:00:00,34.8,27.1,29.74,NW,314,5.5,6.6,73,0.00,,,0.00,VWS V14.01,2013-03-02 14:00:00,
2013-03-02 09:01:00,34.8,27.0,29.74,NW,307,0.0,7.4,73,0.00,,,0.00,VWS V14.01,2013-03-02 14:01:00,
2013-03-02 09:02:00,34.8,27.4,29.74,NNW,338,8.0,8.0,74,0.00,,---,0.00,VWS V14.01,2013-03-02 14:02:00,
2013-03-02 09:03:00,34.8,27.3,29.74,NW,307,0.0,0.0,74,0.00,,,0.00,VWS V14.01,2013-03-02 14:03:00,
2013-03-02 09:04:00,34.8,27.4,29.74,NNW,338,8.0,8.0,74,0.00,,,0.00,VWS V14.01,2013-03-02 14:04:00,
2013-03-02 09:05:00,34.8,27.3,29.74,NW,318,7.0,8.2,74,0.00,,,0.00,VWS V14.01,2013-03-02 14:05:00,
2013-03-02 09:06:00,34.8,27.2,29.74,North,354,5.7,7.0,74,0.00,,,0.00,VWS V14.01,2013-03-02 14:06:00,
2013-03-02 09:07:00,34.5,27.0,29.74,NNE,15,3.4,5.9,74,0.00,,---,0.00,VWS V14.01,2013-03-02 14:07:00,
2013-03-02 09:08:00,34.6,27.0,29.74,West,280,0.0,6.0,73,0.00,,,0.00,VWS V14.01,2013-03-02 14:08:00,
2013-03-02 09:09:00,34.5,27.0,29.74,NNE,15,3.4,5.9,74,0.00,,,0.00,VWS V14.01,2013-03-02 14:09:00,
2013-03-02 09:10:00,34.5,27.0,29.74,NNW,343,0.0,4.5,74,0.00,,,0.00,VWS V14.01,2013-03-02 14:10:00,
2013-03-02 09:11:00,34.5,27.2,29.74,NNW,343,0.0,0.0,74,0.00,,,0.00,VWS V14.01,2013-03-02 14:11:00,
2013-03-02 09:12:00,34.5,27.0,29.74,NNE,17,6.1,6.1,74,0.00,,---,0.00,VWS V14.01,2013-03-02 14:12:00,
2013-03-02 09:13:00,34.5,27.3,29.74,North,1,0.0,2.7,75,0.00,,,0.00,VWS V14.01,2013-03-02 14:13:00,
2013-03-02 09:14:00,34.5,27.0,29.74,NNE,17,6.1,6.1,74,0.00,,,0.00,VWS V14.01,2013-03-02 14:14:00,
2013-03-02 09:15:00,34.5,27.2,29.74,NNE,15,6.5,7.7,74,0.00,,,0.00,VWS V14.01,2013-03-02 14:15:00,
2013-03-02 09:16:00,34.4,26.9,29.74,North,4,5.3,7.1,74,0.00,,,0.00,VWS V14.01,2013-03-02 14:16:00,
2013-03-02 09:17:00,34.2,26.7,29.74,North,0,5.7,10.4,74,0.00,,---,0.00,VWS V14.01,2013-03-02 14:17:00,
2013-03-02 09:18:00,34.3,26.8,29.74,NW,315,9.4,10.3,74,0.00,,,0.00,VWS V14.01,2013-03-02 14:18:00,
2013-03-02 09:19:00,34.2,26.7,29.74,North,0,5.7,10.4,74,0.00,,,0.00,VWS V14.01,2013-03-02 14:19:00,
2013-03-02 09:20:00,34.3,26.8,29.74,NW,319,8.1,9.9,74,0.00,,,0.00,VWS V14.01,2013-03-02 14:20:00,
2013-03-02 09:21:00,34.2,27.0,29.74,North,359,3.2,8.3,75,0.00,,,0.00,VWS V14.01,2013-03-02 14:21:00,
2013-03-02 09:22:00,34.4,26.9,29.74,North,357,7.4,10.4,74,0.00,,---,0.00,VWS V14.01,2013-03-02 14:22:00,
2013-03-02 09:23:00,34.4,27.5,29.74,NW,325,7.2,7.5,76,0.00,,,0.00,VWS V14.01,2013-03-02 14:23:00,
2013-03-02 09:24:00,34.4,26.9,29.74,North,357,7.4,10.4,74,0.00,,,0.00,VWS V14.01,2013-03-02 14:24:00,
2013-03-02 09:25:00,34.4,26.9,29.74,NW,321,8.5,11.2,74,0.00,,,0.00,VWS V14.01,2013-03-02 14:25:00,
2013-03-02 09:26:00,34.4,26.9,29.74,WSW,242,0.0,9.1,74,0.00,,,0.00,VWS V14.01,2013-03-02 14:26:00,
2013-03-02 09:27:00,34.5,27.2,29.74,NW,321,5.3,8.8,74,0.00,,---,0.00,VWS V14.01,2013-03-02 14:27:00,
2013-03-02 09:28:00,34.6,27.2,29.74,NNW,332,8.0,8.7,74,0.00,,,0.00,VWS V14.01,2013-03-02 14:28:00,
2013-03-02 09:29:00,34.5,27.2,29.74,NW,321,5.3,8.8,74,0.00,,,0.00,VWS V14.01,2013-03-02 14:29:00,
2013-03-02 09:30:00,34.3,26.5,29.74,NW,314,9.3,10.8,73,0.00,,,0.00,VWS V14.01,2013-03-02 14:30:00,
2013-03-02 09:31:00,34.4,26.8,29.74,WNW,290,7.7,12.7,73,0.00,,,0.00,VWS V14.01,2013-03-02 14:31:00,
2013-03-02 09:32:00,34.2,26.9,29.74,NNW,340,6.9,8.8,74,0.00,,---,0.00,VWS V14.01,2013-03-02 14:32:00,
2013-03-02 09:33:00,34.0,26.6,29.74,NW,325,8.0,9.8,74,0.00,,,0.00,VWS V14.01,2013-03-02 14:33:00,
2013-03-02 09:34:00,34.2,26.9,29.74,NNW,340,6.9,8.8,74,0.00,,,0.00,VWS V14.01,2013-03-02 14:34:00,
2013-03-02 09:35:00,34.2,26.8,29.74,NW,308,8.1,12.6,74,0.00,,,0.00,VWS V14.01,2013-03-02 14:35:00,
2013-03-02 09:36:00,34.2,27.0,29.74,NW,325,8.1,8.8,74,0.00,,,0.00,VWS V14.01,2013-03-02 14:36:00,
2013-03-02 09:37:00,34.3,26.8,29.74,WSW,239,0.0,7.8,74,0.00,,---,0.00,VWS V14.01,2013-03-02 14:37:00,
2013-03-02 09:38:00,34.3,26.8,29.74,NNW,329,6.3,9.3,74,0.00,,,0.00,VWS V14.01,2013-03-02 14:38:00,
2013-03-02 09:39:00,34.3,26.8,29.74,WSW,239,0.0,7.8,74,0.00,,,0.00,VWS V14.01,2013-03-02 14:39:00,
2013-03-02 09:40:00,34.3,26.9,29.74,North,359,5.7,9.8,74,0.00,,,0.00,VWS V14.01,2013-03-02 14:40:00,
2013-03-02 09:41:00,34.3,27.0,29.74,WNW,291,6.7,8.9,74,0.00,,,0.00,VWS V14.01,2013-03-02 14:41:00,
2013-03-02 09:42:00,34.5,27.1,29.74,West,281,4.7,7.5,74,0.00,,---,0.00,VWS V14.01,2013-03-02 14:42:00,
2013-03-02 09:43:00,34.6,27.1,29.74,WNW,284,0.0,8.3,74,0.00,,,0.00,VWS V14.01,2013-03-02 14:43:00,
2013-03-02 09:44:00,34.5,27.1,29.74,West,281,4.7,7.5,74,0.00,,,0.00,VWS V14.01,2013-03-02 14:44:00,
2013-03-02 09:45:00,34.6,27.2,29.73,West,281,0.0,4.7,74,0.00,,,0.00,VWS V14.01,2013-03-02 14:45:00,
2013-03-02 09:46:00,34.7,27.1,29.73,WNW,298,8.5,9.9,74,0.00,,,0.00,VWS V14.01,2013-03-02 14:46:00,
2013-03-02 09:47:00,34.7,26.9,29.73,NNW,345,7.7,10.6,73,0.00,,---,0.00,VWS V14.01,2013-03-02 14:47:00,
2013-03-02 09:48:00,34.7,26.9,29.73,NNW,340,8.2,9.8,73,0.00,,,0.00,VWS V14.01,2013-03-02 14:48:00,
2013-03-02 09:49:00,34.7,26.9,29.73,NNW,345,7.7,10.6,73,0.00,,,0.00,VWS V14.01,2013-03-02 14:49:00,
2013-03-02 09:50:00,34.7,27.0,29.73,NW,314,7.5,8.9,73,0.00,,,0.00,VWS V14.01,2013-03-02 14:50:00,
2013-03-02 09:51:00,34.8,27.0,29.73,WNW,301,0.0,7.6,73,0.00,,,0.00,VWS V14.01,2013-03-02 14:51:00,
2013-03-02 09:52:00,34.9,27.3,29.73,NNE,17,11.2,11.2,74,0.00,,---,0.00,VWS V14.01,2013-03-02 14:52:00,
2013-03-02 09:53:00,34.8,27.1,29.73,North,4,6.2,9.0,73,0.00,,,0.00,VWS V14.01,2013-03-02 14:53:00,
2013-03-02 09:54:00,34.9,27.3,29.73,NNE,17,11.2,11.2,74,0.00,,,0.00,VWS V14.01,2013-03-02 14:54:00,
2013-03-02 09:55:00,34.8,27.0,29.73,NW,321,6.4,11.2,73,0.00,,,0.00,VWS V14.01,2013-03-02 14:55:00,
2013-03-02 09:56:00,34.9,27.1,29.73,NW,325,6.6,8.0,73,0.00,,,0.00,VWS V14.01,2013-03-02 14:56:00,
2013-03-02 09:57:00,35.0,27.6,29.73,North,353,0.0,0.0,74,0.00,,---,0.00,VWS V14.01,2013-03-02 14:57:00,
2013-03-02 09:58:00,34.9,27.2,29.73,North,353,0.0,6.0,73,0.00,,,0.00,VWS V14.01,2013-03-02 14:58:00,
2013-03-02 09:59:00,35.0,27.6,29.73,North,353,0.0,0.0,74,0.00,,,0.00,VWS V14.01,2013-03-02 14:59:00,
2013-03-02 10:00:00,35.1,27.5,29.73,North,353,0.0,0.0,73,0.00,,,0.00,VWS V14.01,2013-03-02 15:00:00,
2013-03-02 10:01:00,35.1,27.5,29.73,North,359,2.7,7.9,73,0.00,,,0.00,VWS V14.01,2013-03-02 15:01:00,
2013-03-02 10:02:00,35.3,27.4,29.73,NW,325,4.3,7.3,72,0.00,,---,0.00,VWS V14.01,2013-03-02 15:02:00,
2013-03-02 10:03:00,35.3,27.6,29.73,NW,326,0.0,0.0,73,0.00,,,0.00,VWS V14.01,2013-03-02 15:03:00,
2013-03-02 10:04:00,35.3,27.4,29.73,NW,325,4.3,7.3,72,0.00,,,0.00,VWS V14.01,2013-03-02 15:04:00,
2013-03-02 10:05:00,35.3,27.2,29.73,North,3,6.0,11.1,72,0.00,,,0.00,VWS V14.01,2013-03-02 15:05:00,
2013-03-02 10:06:00,35.0,26.9,29.73,NNE,32,4.5,8.3,72,0.00,,,0.00,VWS V14.01,2013-03-02 15:06:00,
2013-03-02 10:07:00,35.0,27.4,29.73,NNW,336,8.0,8.6,73,0.00,,---,0.00,VWS V14.01,2013-03-02 15:07:00,
2013-03-02 10:08:00,35.0,27.1,29.73,WNW,298,5.7,7.4,73,0.00,,,0.00,VWS V14.01,2013-03-02 15:08:00,
2013-03-02 10:09:00,35.0,27.4,29.73,NNW,336,8.0,8.6,73,0.00,,,0.00,VWS V14.01,2013-03-02 15:09:00,
2013-03-02 10:10:00,35.0,27.1,29.73,NW,325,6.8,9.3,72,0.00,,,0.00,VWS V14.01,2013-03-02 15:10:00,
2013-03-02 10:11:00,35.0,27.0,29.73,NNW,340,8.2,9.1,72,0.00,,,0.00,VWS V14.01,2013-03-02 15:11:00,
2013-03-02 10:12:00,35.0,27.4,29.73,NNW,328,3.0,7.1,73,0.00,,---,0.00,VWS V14.01,2013-03-02 15:12:00,
2013-03-02 10:13:00,34.9,27.0,29.73,NW,322,6.0,9.9,73,0.00,,,0.00,VWS V14.01,2013-03-02 15:13:00,
2013-03-02 10:14:00,35.0,27.4,29.73,NNW,328,3.0,7.1,73,0.00,,,0.00,VWS V14.01,2013-03-02 15:14:00,
2013-03-02 10:15:00,35.1,27.2,29.73,NNW,345,5.9,7.3,73,0.00,,,0.00,VWS V14.01,2013-03-02 15:15:00,
2013-03-02 10:16:00,35.1,27.0,29.73,NNW,347,7.8,9.3,72,0.00,,,0.00,VWS V14.01,2013-03-02 15:16:00,
2013-03-02 10:17:00,35.3,27.5,29.73,NNW,333,7.8,9.2,73,0.00,,---,0.00,VWS V14.01,2013-03-02 15:17:00,
2013-03-02 10:18:00,35.3,27.5,29.73,NNE,13,5.2,7.5,73,0.00,,,0.00,VWS V14.01,2013-03-02 15:18:00,
2013-03-02 10:19:00,35.3,27.5,29.73,NNW,333,7.8,9.2,73,0.00,,,0.00,VWS V14.01,2013-03-02 15:19:00,
2013-03-02 10:20:00,35.2,27.2,29.73,NNE,31,6.0,9.2,72,0.00,,,0.00,VWS V14.01,2013-03-02 15:20:00,
2013-03-02 10:21:00,35.2,27.2,29.73,North,1,6.8,9.7,72,0.00,,,0.00,VWS V14.01,2013-03-02 15:21:00,
2013-03-02 10:22:00,35.3,27.1,29.73,North,3,7.1,8.6,72,0.00,,---,0.00,VWS V14.01,2013-03-02 15:22:00,
2013-03-02 10:23:00,35.3,27.6,29.73,NNW,338,6.5,7.5,73,0.00,,,0.00,VWS V14.01,2013-03-02 15:23:00,
2013-03-02 10:24:00,35.3,27.1,29.73,North,3,7.1,8.6,72,0.00,,,0.00,VWS V14.01,2013-03-02 15:24:00,
2013-03-02 10:25:00,35.2,26.9,29.73,North,3,5.8,8.2,71,0.00,,,0.00,VWS V14.01,2013-03-02 15:25:00,
2013-03-02 10:26:00,35.1,27.0,29.73,North,352,7.8,10.9,72,0.00,,,0.00,VWS V14.01,2013-03-02 15:26:00,
2013-03-02 10:27:00,35.1,27.3,29.73,NNW,342,3.4,9.5,73,0.00,,---,0.00,VWS V14.01,2013-03-02 15:27:00,
2013-03-02 10:28:00,35.0,27.1,29.73,WNW,294,8.6,9.9,73,0.00,,,0.00,VWS V14.01,2013-03-02 15:28:00,
2013-03-02 10:29:00,35.1,27.3,29.73,NNW,342,3.4,9.5,73,0.00,,,0.00,VWS V14.01,2013-03-02 15:29:00,
2013-03-02 10:30:00,35.2,27.3,29.73,NW,305,6.3,8.1,72,0.00,,,0.00,VWS V14.01,2013-03-02 15:30:00,
2013-03-02 10:31:00,35.3,27.5,29.73,NW,305,0.0,6.3,73,0.00,,,0.00,VWS V14.01,2013-03-02 15:31:00,
2013-03-02 10:32:00,35.5,27.4,29.73,NNE,15,0.0,7.0,72,0.00,,---,0.00,VWS V14.01,2013-03-02 15:32:00,
2013-03-02 10:33:00,35.5,27.5,29.73,NNE,24,0.0,1.5,72,0.00,,,0.00,VWS V14.01,2013-03-02 15:33:00,
2013-03-02 10:34:00,35.5,27.4,29.73,NNE,15,0.0,7.0,72,0.00,,,0.00,VWS V14.01,2013-03-02 15:34:00,
2013-03-02 10:35:00,35.6,28.0,29.73,NNE,18,0.0,2.9,73,0.00,,,0.00,VWS V14.01,2013-03-02 15:35:00,
2013-03-02 10:36:00,35.8,27.9,29.73,NNE,18,0.0,0.0,73,0.00,,,0.00,VWS V14.01,2013-03-02 15:36:00,
2013-03-02 10:37:00,36.0,27.8,29.73,NNW,328,0.0,0.0,72,0.00,,---,0.00,VWS V14.01,2013-03-02 15:37:00,
2013-03-02 10:38:00,35.9,27.8,29.73,NNW,328,0.0,6.2,72,0.00,,,0.00,VWS V14.01,2013-03-02 15:38:00,
2013-03-02 10:39:00,36.0,27.8,29.73,NNW,328,0.0,0.0,72,0.00,,,0.00,VWS V14.01,2013-03-02 15:39:00,
2013-03-02 10:40:00,36.2,28.1,29.73,NNW,328,0.0,0.0,72,0.00,,,0.00,VWS V14.01,2013-03-02 15:40:00,
2013-03-02 10:41:00,36.3,27.9,29.73,NNW,328,0.0,0.0,71,0.00,,,0.00,VWS V14.01,2013-03-02 15:41:00,
2013-03-02 10:42:00,36.5,28.0,29.73,NNW,328,0.0,0.0,71,0.00,,---,0.00,VWS V14.01,2013-03-02 15:42:00,
2013-03-02 10:43:00,36.4,27.9,29.73,NNW,328,0.0,0.0,71,0.00,,,0.00,VWS V14.01,2013-03-02 15:43:00,
2013-03-02 10:44:00,36.5,28.0,29.73,NNW,328,0.0,0.0,71,0.00,,,0.00,VWS V14.01,2013-03-02 15:44:00,
2013-03-02 10:45:00,36.6,28.1,29.73,NNW,328,4.3,4.3,71,0.00,,,0.00,VWS V14.01,2013-03-02 15:45:00,
2013-03-02 10:46:00,36.7,27.7,29.73,West,271,3.4,8.5,70,0.00,,,0.00,VWS V14.01,2013-03-02 15:46:00,
2013-03-02 10:47:00,36.1,27.2,29.73,NNW,329,6.1,8.5,70,0.00,,---,0.00,VWS V14.01,2013-03-02 15:47:00,
2013-03-02 10:48:00,36.3,27.3,29.73,North,6,7.3,9.4,69,0.00,,,0.00,VWS V14.01,2013-03-02 15:48:00,
2013-03-02 10:49:00,36.1,27.2,29.73,NNW,329,6.1,8.5,70,0.00,,,0.00,VWS V14.01,2013-03-02 15:49:00,
2013-03-02 10:50:00,36.2,27.8,29.73,NNE,27,4.3,7.8,71,0.00,,,0.00,VWS V14.01,2013-03-02 15:50:00,
2013-03-02 10:51:00,36.3,28.4,29.73,NNW,335,4.7,7.2,73,0.00,,,0.00,VWS V14.01,2013-03-02 15:51:00,
2013-03-02 10:52:00,36.4,27.9,29.73,NE,34,2.9,6.3,71,0.00,,---,0.00,VWS V14.01,2013-03-02 15:52:00,
2013-03-02 10:53:00,36.4,27.5,29.73,WNW,302,0.0,7.4,70,0.00,,,0.00,VWS V14.01,2013-03-02 15:53:00,
2013-03-02 10:54:00,36.4,27.9,29.73,NE,34,2.9,6.3,71,0.00,,,0.00,VWS V14.01,2013-03-02 15:54:00,
2013-03-02 10:55:00,36.5,27.8,29.73,NNE,17,0.0,6.5,70,0.00,,,0.00,VWS V14.01,2013-03-02 15:55:00,
2013-03-02 10:56:00,36.5,27.4,29.73,NW,325,0.0,8.0,69,0.00,,,0.00,VWS V14.01,2013-03-02 15:56:00,
2013-03-02 10:57:00,36.5,27.2,29.73,North,8,7.9,8.1,69,0.00,,---,0.00,VWS V14.01,2013-03-02 15:57:00,
2013-03-02 10:58:00,36.6,27.6,29.73,NW,323,7.6,8.3,70,0.00,,,0.00,VWS V14.01,2013-03-02 15:58:00,
2013-03-02 10:59:00,36.5,27.2,29.73,North,8,7.9,8.1,69,0.00,,,0.00,VWS V14.01,2013-03-02 15:59:00,
2013-03-02 11:00:00,36.4,27.2,29.72,NNW,336,4.3,9.2,69,0.00,,,0.00,VWS V14.01,2013-03-02 16:00:00,
2013-03-02 11:01:00,36.4,27.8,29.73,North,8,3.3,7.3,71,0.00,,,0.00,VWS V14.01,2013-03-02 16:01:00,
2013-03-02 11:02:00,36.5,27.4,29.73,NNW,332,0.0,4.9,69,0.00,,---,0.00,VWS V14.01,2013-03-02 16:02:00,
2013-03-02 11:03:00,36.4,27.4,29.73,NNW,332,4.9,7.0,70,0.00,,,0.00,VWS V14.01,2013-03-02 16:03:00,
2013-03-02 11:04:00,36.5,27.4,29.73,NNW,332,0.0,4.9,69,0.00,,,0.00,VWS V14.01,2013-03-02 16:04:00,
2013-03-02 11:05:00,36.3,27.3,29.73,NNW,328,9.8,10.1,70,0.00,,,0.00,VWS V14.01,2013-03-02 16:05:00,
2013-03-02 11:06:00,36.2,27.2,29.72,NNW,345,9.5,10.4,70,0.00,,,0.00,VWS V14.01,2013-03-02 16:06:00,
2013-03-02 11:07:00,36.2,27.6,29.72,NNW,338,5.8,7.0,71,0.00,,---,0.00,VWS V14.01,2013-03-02 16:07:00,
2013-03-02 11:08:00,36.2,27.4,29.73,NW,309,4.8,8.1,70,0.00,,,0.00,VWS V14.01,2013-03-02 16:08:00,
2013-03-02 11:09:00,36.2,27.6,29.72,NNW,338,5.8,7.0,71,0.00,,,0.00,VWS V14.01,2013-03-02 16:09:00,
2013-03-02 11:10:00,36.4,27.8,29.72,NNW,328,4.5,5.8,71,0.00,,,0.00,VWS V14.01,2013-03-02 16:10:00,
2013-03-02 11:11:00,36.4,27.6,29.72,West,264,3.5,8.5,70,0.00,,,0.00,VWS V14.01,2013-03-02 16:11:00,
2013-03-02 11:12:00,36.4,27.7,29.72,NW,304,4.7,7.8,70,0.00,,---,0.00,VWS V14.01,2013-03-02 16:12:00,
2013-03-02 11:13:00,36.3,27.4,29.72,NNW,336,5.2,8.6,70,0.00,,,0.00,VWS V14.01,2013-03-02 16:13:00,
2013-03-02 11:14:00,36.4,27.7,29.72,NW,304,4.7,7.8,70,0.00,,,0.00,VWS V14.01,2013-03-02 16:14:00,
2013-03-02 11:15:00,36.2,27.4,29.72,North,352,3.0,13.0,70,0.00,,,0.00,VWS V14.01,2013-03-02 16:15:00,
2013-03-02 11:16:00,36.1,27.1,29.72,NNW,345,6.6,10.3,69,0.00,,,0.00,VWS V14.01,2013-03-02 16:16:00,
2013-03-02 11:17:00,36.1,27.5,29.72,North,359,8.5,9.1,70,0.00,,---,0.00,VWS V14.01,2013-03-02 16:17:00,
2013-03-02 11:18:00,36.1,27.2,29.72,NNW,343,5.5,9.1,70,0.00,,,0.00,VWS V14.01,2013-03-02 16:18:00,
2013-03-02 11:19:00,36.1,27.5,29.72,North,359,8.5,9.1,70,0.00,,,0.00,VWS V14.01,2013-03-02 16:19:00,
2013-03-02 11:20:00,36.0,27.3,29.72,North,7,5.8,9.1,70,0.00,,,0.00,VWS V14.01,2013-03-02 16:20:00,
2013-03-02 11:21:00,36.1,27.5,29.72,North,1,3.3,7.8,71,0.00,,,0.00,VWS V14.01,2013-03-02 16:21:00,
2013-03-02 11:22:00,36.7,28.5,29.72,WNW,297,0.0,6.8,72,0.00,,---,0.00,VWS V14.01,2013-03-02 16:22:00,
2013-03-02 11:23:00,36.4,28.2,29.72,North,1,0.0,0.0,72,0.00,,,0.00,VWS V14.01,2013-03-02 16:23:00,
2013-03-02 11:24:00,36.7,28.5,29.72,WNW,297,0.0,6.8,72,0.00,,,0.00,VWS V14.01,2013-03-02 16:24:00,
2013-03-02 11:25:00,36.8,28.0,29.72,WNW,297,0.0,0.0,70,0.00,,,0.00,VWS V14.01,2013-03-02 16:25:00,
2013-03-02 11:26:00,36.9,27.7,29.72,NNW,329,0.0,8.4,69,0.00,,,0.00,VWS V14.01,2013-03-02 16:26:00,
2013-03-02 11:27:00,36.9,27.5,29.72,NNE,20,6.5,7.8,69,0.00,,---,0.00,VWS V14.01,2013-03-02 16:27:00,
2013-03-02 11:28:00,37.0,27.8,29.72,NW,326,0.0,4.6,69,0.00,,,0.00,VWS V14.01,2013-03-02 16:28:00,
2013-03-02 11:29:00,36.9,27.5,29.72,NNE,20,6.5,7.8,69,0.00,,,0.00,VWS V14.01,2013-03-02 16:29:00,
2013-03-02 11:30:00,36.9,27.8,29.72,NNW,336,9.7,9.7,69,0.00,,,0.00,VWS V14.01,2013-03-02 16:30:00,
2013-03-02 11:31:00,36.7,27.4,29.72,North,11,9.9,11.2,69,0.00,,,0.00,VWS V14.01,2013-03-02 16:31:00,
2013-03-02 11:32:00,36.4,27.4,29.72,North,359,5.6,9.1,69,0.00,,---,0.00,VWS V14.01,2013-03-02 16:32:00,
2013-03-02 11:33:00,36.6,27.7,29.72,NW,312,6.1,10.2,70,0.00,,,0.00,VWS V14.01,2013-03-02 16:33:00,
2013-03-02 11:34:00,36.4,27.4,29.72,North,359,5.6,9.1,69,0.00,,,0.00,VWS V14.01,2013-03-02 16:34:00,
2013-03-02 11:35:00,36.4,27.6,29.72,NNW,340,7.8,9.9,70,0.00,,,0.00,VWS V14.01,2013-03-02 16:35:00,
2013-03-02 11:36:00,36.4,27.5,29.72,North,359,0.0,8.7,70,0.00,,,0.00,VWS V14.01,2013-03-02 16:36:00,
2013-03-02 11:37:00,36.8,27.6,29.72,North,6,6.5,10.9,69,0.00,,---,0.00,VWS V14.01,2013-03-02 16:37:00,
2013-03-02 11:38:00,36.9,28.3,29.72,North,11,8.6,8.9,71,0.00,,,0.00,VWS V14.01,2013-03-02 16:38:00,
2013-03-02 11:39:00,36.8,27.6,29.72,North,6,6.5,10.9,69,0.00,,,0.00,VWS V14.01,2013-03-02 16:39:00,
2013-03-02 11:40:00,36.9,27.9,29.72,NNW,336,6.3,9.1,70,0.00,,,0.00,VWS V14.01,2013-03-02 16:40:00,
2013-03-02 11:41:00,37.0,27.9,29.72,North,352,4.2,9.5,69,0.00,,,0.00,VWS V14.01,2013-03-02 16:41:00,
2013-03-02 11:42:00,37.1,27.9,29.72,NNW,342,4.8,7.7,69,0.00,,---,0.00,VWS V14.01,2013-03-02 16:42:00,
2013-03-02 11:43:00,37.1,27.7,29.72,NNW,339,3.4,7.0,68,0.00,,,0.00,VWS V14.01,2013-03-02 16:43:00,
2013-03-02 11:44:00,37.1,27.9,29.72,NNW,342,4.8,7.7,69,0.00,,,0.00,VWS V14.01,2013-03-02 16:44:00,
2013-03-02 11:45:00,37.2,28.0,29.72,NW,322,0.0,5.2,69,0.00,,,0.00,VWS V14.01,2013-03-02 16:45:00,
2013-03-02 11:46:00,37.4,29.0,29.72,WNW,301,4.5,4.5,71,0.00,,,0.00,VWS V14.01,2013-03-02 16:46:00,
2013-03-02 11:47:00,37.9,27.8,29.72,NW,325,4.8,9.9,66,0.00,,---,0.00,VWS V14.01,2013-03-02 16:47:00,
2013-03-02 11:48:00,37.9,28.3,29.72,WNW,301,0.0,0.0,68,0.00,,,0.00,VWS V14.01,2013-03-02 16:48:00,
2013-03-02 11:49:00,37.9,27.8,29.72,NW,325,4.8,9.9,66,0.00,,,0.00,VWS V14.01,2013-03-02 16:49:00,
2013-03-02 11:50:00,37.9,27.7,29.72,WNW,292,5.2,6.5,66,0.00,,,0.00,VWS V14.01,2013-03-02 16:50:00,
2013-03-02 11:51:00,37.9,27.8,29.72,WNW,292,0.0,5.2,66,0.00,,,0.00,VWS V14.01,2013-03-02 16:51:00,
2013-03-02 11:52:00,37.9,27.9,29.71,NNW,329,4.2,4.2,67,0.00,,---,0.00,VWS V14.01,2013-03-02 16:52:00,
2013-03-02 11:53:00,38.0,28.0,29.72,NNW,329,4.2,4.9,67,0.00,,,0.00,VWS V14.01,2013-03-02 16:53:00,
2013-03-02 11:54:00,37.9,27.9,29.72,NNW,329,4.2,4.2,67,0.00,,,0.00,VWS V14.01,2013-03-02 16:54:00,
2013-03-02 11:55:00,38.0,28.0,29.72,West,278,0.0,5.7,67,0.00,,,0.00,VWS V14.01,2013-03-02 16:55:00,
2013-03-02 11:56:00,38.1,28.3,29.72,West,278,0.0,0.0,67,0.00,,,0.00,VWS V14.01,2013-03-02 16:56:00,
2013-03-02 11:57:00,38.2,28.4,29.72,WNW,298,3.3,4.9,68,0.00,,---,0.00,VWS V14.01,2013-03-02 16:57:00,
2013-03-02 11:58:00,38.2,28.4,29.72,NW,305,3.2,4.7,67,0.00,,,0.00,VWS V14.01,2013-03-02 16:58:00,
2013-03-02 11:59:00,38.2,28.4,29.72,WNW,298,3.3,4.9,68,0.00,,,0.00,VWS V14.01,2013-03-02 16:59:00,
2013-03-02 12:00:00,38.2,28.1,29.72,WNW,295,0.0,6.9,67,0.00,,,0.00,VWS V14.01,2013-03-02 17:00:00,
2013-03-02 12:01:00,38.2,27.8,29.72,WNW,295,0.0,0.0,66,0.00,,,0.00,VWS V14.01,2013-03-02 17:01:00,
2013-03-02 12:02:00,38.4,28.3,29.71,WNW,301,3.2,7.1,67,0.00,,---,0.00,VWS V14.01,2013-03-02 17:02:00,
2013-03-02 12:03:00,38.3,28.5,29.72,North,359,0.0,0.0,67,0.00,,,0.00,VWS V14.01,2013-03-02 17:03:00,
2013-03-02 12:04:00,38.4,28.3,29.72,WNW,301,3.2,7.1,67,0.00,,,0.00,VWS V14.01,2013-03-02 17:04:00,
2013-03-02 12:05:00,38.4,27.8,29.72,NNW,332,0.0,7.4,65,0.00,,,0.00,VWS V14.01,2013-03-02 17:05:00,
2013-03-02 12:06:00,38.4,28.0,29.72,NW,312,5.6,6.0,66,0.00,,,0.00,VWS V14.01,2013-03-02 17:06:00,
2013-03-02 12:07:00,38.3,28.2,29.71,NW,316,0.0,4.7,67,0.00,,---,0.00,VWS V14.01,2013-03-02 17:07:00,
2013-03-02 12:08:00,38.3,28.2,29.72,NNW,340,4.5,8.3,67,0.00,,,0.00,VWS V14.01,2013-03-02 17:08:00,
2013-03-02 12:09:00,38.3,28.2,29.72,NW,316,0.0,4.7,67,0.00,,,0.00,VWS V14.01,2013-03-02 17:09:00,
2013-03-02 12:10:00,38.3,28.1,29.72,NE,34,2.9,5.2,66,0.00,,,0.00,VWS V14.01,2013-03-02 17:10:00,
2013-03-02 12:11:00,38.3,27.8,29.72,NNW,335,0.0,4.3,66,0.00,,,0.00,VWS V14.01,2013-03-02 17:11:00,
2013-03-02 12:12:00,38.0,27.4,29.71,NNW,330,5.7,9.5,65,0.00,,---,0.00,VWS V14.01,2013-03-02 17:12:00,
2013-03-02 12:13:00,38.2,27.7,29.71,NNW,335,0.0,0.0,66,0.00,,,0.00,VWS V14.01,2013-03-02 17:13:00,
2013-03-02 12:14:00,38.0,27.4,29.71,NNW,330,5.7,9.5,65,0.00,,,0.00,VWS V14.01,2013-03-02 17:14:00,
2013-03-02 12:15:00,37.8,27.5,29.71,NNW,335,6.6,9.1,66,0.00,,,0.00,VWS V14.01,2013-03-02 17:15:00,
2013-03-02 12:16:00,37.8,27.8,29.71,NW,321,0.0,7.0,67,0.00,,,0.00,VWS V14.01,2013-03-02 17:16:00,
2013-03-02 12:17:00,37.8,27.8,29.71,WNW,300,0.0,0.0,67,0.00,,---,0.00,VWS V14.01,2013-03-02 17:17:00,
2013-03-02 12:18:00,37.8,27.6,29.71,WNW,300,0.0,3.5,66,0.00,,,0.00,VWS V14.01,2013-03-02 17:18:00,
2013-03-02 12:19:00,37.8,27.8,29.71,WNW,300,0.0,0.0,67,0.00,,,0.00,VWS V14.01,2013-03-02 17:19:00,
2013-03-02 12:20:00,37.8,27.5,29.71,WNW,300,0.0,0.0,66,0.00,,,0.00,VWS V14.01,2013-03-02 17:20:00,
2013-03-02 12:21:00,37.9,27.8,29.71,WNW,300,0.0,0.0,67,0.00,,,0.00,VWS V14.01,2013-03-02 17:21:00,
2013-03-02 12:22:00,38.0,27.6,29.71,North,11,2.9,4.9,66,0.00,,---,0.00,VWS V14.01,2013-03-02 17:22:00,
2013-03-02 12:23:00,38.0,28.0,29.71,NE,35,4.4,10.5,67,0.00,,,0.00,VWS V14.01,2013-03-02 17:23:00,
2013-03-02 12:24:00,38.0,27.6,29.71,North,11,2.9,4.9,66,0.00,,,0.00,VWS V14.01,2013-03-02 17:24:00,
2013-03-02 12:25:00,38.0,27.6,29.71,NNW,338,0.0,4.6,66,0.00,,,0.00,VWS V14.01,2013-03-02 17:25:00,
2013-03-02 12:26:00,38.0,27.9,29.71,NNW,333,5.0,5.0,67,0.00,,,0.00,VWS V14.01,2013-03-02 17:26:00,
2013-03-02 12:27:00,37.8,27.6,29.71,North,359,4.9,5.7,66,0.00,,---,0.00,VWS V14.01,2013-03-02 17:27:00,
2013-03-02 12:28:00,37.9,27.9,29.71,North,11,4.3,5.5,67,0.00,,,0.00,VWS V14.01,2013-03-02 17:28:00,
2013-03-02 12:29:00,37.8,27.6,29.71,North,359,4.9,5.7,66,0.00,,,0.00,VWS V14.01,2013-03-02 17:29:00,
2013-03-02 12:30:00,37.6,27.4,29.71,North,359,0.0,5.5,66,0.00,,,0.00,VWS V14.01,2013-03-02 17:30:00,
2013-03-02 12:31:00,37.4,27.2,29.71,NNW,343,0.0,6.4,66,0.00,,,0.00,VWS V14.01,2013-03-02 17:31:00,
2013-03-02 12:32:00,37.2,27.1,29.70,NNE,24,5.3,7.8,67,0.00,,---,0.00,VWS V14.01,2013-03-02 17:32:00,
2013-03-02 12:33:00,37.4,27.1,29.70,NNE,24,5.7,7.8,66,0.00,,,0.00,VWS V14.01,2013-03-02 17:33:00,
2013-03-02 12:34:00,37.2,27.1,29.70,NNE,24,5.3,7.8,67,0.00,,,0.00,VWS V14.01,2013-03-02 17:34:00,
2013-03-02 12:35:00,37.3,27.6,29.70,NNE,24,0.0,5.3,68,0.00,,,0.00,VWS V14.01,2013-03-02 17:35:00,
2013-03-02 12:36:00,37.3,27.4,29.70,North,6,0.0,7.7,67,0.00,,,0.00,VWS V14.01,2013-03-02 17:36:00,
2013-03-02 12:37:00,37.4,27.6,29.70,NW,319,0.0,6.0,67,0.00,,---,0.00,VWS V14.01,2013-03-02 17:37:00,
2013-03-02 12:38:00,37.4,27.4,29.70,West,276,0.0,3.4,67,0.00,,,0.00,VWS V14.01,2013-03-02 17:38:00,
2013-03-02 12:39:00,37.4,27.6,29.70,NW,319,0.0,6.0,67,0.00,,,0.00,VWS V14.01,2013-03-02 17:39:00,
2013-03-02 12:40:00,37.5,27.4,29.70,NW,319,0.0,0.0,66,0.00,,,0.00,VWS V14.01,2013-03-02 17:40:00,
2013-03-02 12:41:00,37.7,27.7,29.70,NW,319,0.0,3.4,67,0.00,,,0.00,VWS V14.01,2013-03-02 17:41:00,
2013-03-02 12:42:00,37.7,27.6,29.70,NNW,329,0.0,5.4,67,0.00,,---,0.00,VWS V14.01,2013-03-02 17:42:00,
2013-03-02 12:43:00,37.6,27.4,29.70,NW,312,0.0,8.3,66,0.00,,,0.00,VWS V14.01,2013-03-02 17:43:00,
2013-03-02 12:44:00,37.7,27.6,29.70,NNW,329,0.0,5.4,67,0.00,,,0.00,VWS V14.01,2013-03-02 17:44:00,
2013-03-02 12:45:00,37.7,27.5,29.70,NW,309,0.0,4.9,66,0.00,,,0.00,VWS V14.01,2013-03-02 17:45:00,
2013-03-02 12:46:00,37.6,27.4,29.70,North,3,5.9,8.8,66,0.00,,,0.00,VWS V14.01,2013-03-02 17:46:00,
2013-03-02 12:47:00,37.6,27.4,29.70,WNW,300,0.0,5.9,66,0.00,,---,0.00,VWS V14.01,2013-03-02 17:47:00,
2013-03-02 12:48:00,37.6,27.6,29.70,NW,321,5.9,9.0,67,0.00,,,0.00,VWS V14.01,2013-03-02 17:48:00,
2013-03-02 12:49:00,37.6,27.4,29.70,WNW,300,0.0,5.9,66,0.00,,,0.00,VWS V14.01,2013-03-02 17:49:00,
2013-03-02 12:50:00,37.5,27.5,29.70,West,273,0.0,6.0,67,0.00,,,0.00,VWS V14.01,2013-03-02 17:50:00,
2013-03-02 12:51:00,37.5,27.7,29.70,WNW,302,4.2,4.6,68,0.00,,,0.00,VWS V14.01,2013-03-02 17:51:00,
2013-03-02 12:52:00,37.6,27.7,29.70,NNW,330,6.4,6.4,67,0.00,,---,0.00,VWS V14.01,2013-03-02 17:52:00,
2013-03-02 12:53:00,37.5,27.6,29.70,NW,319,0.0,8.0,67,0.00,,,0.00,VWS V14.01,2013-03-02 17:53:00,
2013-03-02 12:54:00,37.6,27.7,29.70,NNW,330,6.4,6.4,67,0.00,,,0.00,VWS V14.01,2013-03-02 17:54:00,
2013-03-02 12:55:00,37.7,27.7,29.70,WNW,291,0.0,6.7,67,0.00,,,0.00,VWS V14.01,2013-03-02 17:55:00,
2013-03-02 12:56:00,37.8,27.8,29.70,WNW,291,0.0,0.0,67,0.00,,,0.00,VWS V14.01,2013-03-02 17:56:00,
2013-03-02 12:57:00,37.6,27.3,29.70,NW,321,0.0,8.4,66,0.00,,---,0.00,VWS V14.01,2013-03-02 17:57:00,
2013-03-02 12:58:00,37.6,27.5,29.70,NNE,13,0.0,9.8,66,0.00,,,0.00,VWS V14.01,2013-03-02 17:58:00,
2013-03-02 12:59:00,37.6,27.3,29.70,NW,321,0.0,8.4,66,0.00,,,0.00,VWS V14.01,2013-03-02 17:59:00,
2013-03-02 13:00:00,37.5,27.4,29.70,NW,321,0.0,0.0,66,0.00,,,0.00,VWS V14.01,2013-03-02 18:00:00,
2013-03-02 13:01:00,37.4,27.7,29.70,NW,321,0.0,0.0,68,0.00,,,0.00,VWS V14.01,2013-03-02 18:01:00,
2013-03-02 13:02:00,37.1,27.3,29.70,North,359,2.4,8.8,67,0.00,,---,0.00,VWS V14.01,2013-03-02 18:02:00,
2013-03-02 13:03:00,37.3,27.4,29.70,NNW,339,8.6,9.3,67,0.00,,,0.00,VWS V14.01,2013-03-02 18:03:00,
2013-03-02 13:04:00,37.1,27.3,29.70,North,359,2.4,8.8,67,0.00,,,0.00,VWS V14.01,2013-03-02 18:04:00,
2013-03-02 13:05:00,37.3,27.7,29.70,North,359,2.7,2.7,68,0.00,,,0.00,VWS V14.01,2013-03-02 18:05:00,
2013-03-02 13:06:00,37.1,27.2,29.70,NNW,339,6.8,9.4,67,0.00,,,0.00,VWS V14.01,2013-03-02 18:06:00,
2013-03-02 13:07:00,37.3,27.8,29.70,North,352,3.5,7.7,68,0.00,,---,0.00,VWS V14.01,2013-03-02 18:07:00,
2013-03-02 13:08:00,37.3,27.9,29.70,WNW,284,0.0,3.3,68,0.00,,,0.00,VWS V14.01,2013-03-02 18:08:00,
2013-03-02 13:09:00,37.3,27.8,29.70,North,352,3.5,7.7,68,0.00,,,0.00,VWS V14.01,2013-03-02 18:09:00,
2013-03-02 13:10:00,37.3,27.5,29.70,NW,322,7.1,11.1,68,0.00,,,0.00,VWS V14.01,2013-03-02 18:10:00,
2013-03-02 13:11:00,37.2,27.5,29.70,NW,309,0.0,8.8,68,0.00,,,0.00,VWS V14.01,2013-03-02 18:11:00,
2013-03-02 13:12:00,37.4,27.9,29.70,North,359,0.0,5.5,68,0.00,,---,0.00,VWS V14.01,2013-03-02 18:12:00,
2013-03-02 13:13:00,37.3,28.0,29.70,NW,309,0.0,0.0,69,0.00,,,0.00,VWS V14.01,2013-03-02 18:13:00,
2013-03-02 13:14:00,37.4,27.9,29.70,North,359,0.0,5.5,68,0.00,,,0.00,VWS V14.01,2013-03-02 18:14:00,
2013-03-02 13:15:00,37.5,28.1,29.70,North,359,0.0,0.0,69,0.00,,,0.00,VWS V14.01,2013-03-02 18:15:00,
2013-03-02 13:16:00,37.5,27.9,29.70,North,359,0.0,2.6,68,0.00,,,0.00,VWS V14.01,2013-03-02 18:16:00,
2013-03-02 13:17:00,37.8,28.3,29.70,North,359,0.0,0.0,68,0.00,,---,0.00,VWS V14.01,2013-03-02 18:17:00,
2013-03-02 13:18:00,37.7,28.0,29.70,North,359,0.0,0.0,68,0.00,,,0.00,VWS V14.01,2013-03-02 18:18:00,
2013-03-02 13:19:00,37.8,28.3,29.70,North,359,0.0,0.0,68,0.00,,,0.00,VWS V14.01,2013-03-02 18:19:00,
2013-03-02 13:20:00,37.8,28.3,29.70,North,359,0.0,0.0,68,0.00,,,0.00,VWS V14.01,2013-03-02 18:20:00,
2013-03-02 13:21:00,37.8,28.0,29.70,NW,311,4.8,5.8,67,0.00,,,0.00,VWS V14.01,2013-03-02 18:21:00,
2013-03-02 13:22:00,37.8,28.0,29.70,NW,309,0.0,7.1,67,0.00,,---,0.00,VWS V14.01,2013-03-02 18:22:00,
2013-03-02 13:23:00,37.9,28.1,29.70,North,10,3.4,3.4,68,0.00,,,0.00,VWS V14.01,2013-03-02 18:23:00,
2013-03-02 13:24:00,37.8,28.0,29.70,NW,309,0.0,7.1,67,0.00,,,0.00,VWS V14.01,2013-03-02 18:24:00,
2013-03-02 13:25:00,37.7,27.9,29.70,NW,309,0.0,0.0,68,0.00,,,0.00,VWS V14.01,2013-03-02 18:25:00,
2013-03-02 13:26:00,37.7,27.9,29.70,NW,309,0.0,0.0,67,0.00,,,0.00,VWS V14.01,2013-03-02 18:26:00,
2013-03-02 13:27:00,37.8,28.3,29.70,NW,309,0.0,0.0,68,0.00,,---,0.00,VWS V14.01,2013-03-02 18:27:00,
2013-03-02 13:28:00,37.8,28.3,29.70,NW,309,0.0,0.0,68,0.00,,,0.00,VWS V14.01,2013-03-02 18:28:00,
2013-03-02 13:29:00,37.8,28.3,29.70,NW,309,0.0,0.0,68,0.00,,,0.00,VWS V14.01,2013-03-02 18:29:00,
2013-03-02 13:30:00,37.9,28.4,29.70,NW,309,0.0,0.0,68,0.00,,,0.00,VWS V14.01,2013-03-02 18:30:00,
2013-03-02 13:31:00,37.9,28.3,29.70,NW,309,0.0,0.0,68,0.00,,,0.00,VWS V14.01,2013-03-02 18:31:00,
2013-03-02 13:32:00,38.0,28.0,29.70,NW,309,0.0,0.0,67,0.00,,---,0.00,VWS V14.01,2013-03-02 18:32:00,
2013-03-02 13:33:00,38.0,28.2,29.70,NW,309,0.0,0.0,68,0.00,,,0.00,VWS V14.01,2013-03-02 18:33:00,
2013-03-02 13:34:00,38.0,28.0,29.70,NW,309,0.0,0.0,67,0.00,,,0.00,VWS V14.01,2013-03-02 18:34:00,
2013-03-02 13:35:00,38.0,28.0,29.70,NW,309,0.0,0.0,67,0.00,,,0.00,VWS V14.01,2013-03-02 18:35:00,
2013-03-02 13:36:00,37.9,28.0,29.70,NNW,347,6.6,6.8,67,0.00,,,0.00,VWS V14.01,2013-03-02 18:36:00,
2013-03-02 13:37:00,37.6,27.8,29.70,NNW,328,0.0,0.0,67,0.00,,---,0.00,VWS V14.01,2013-03-02 18:37:00,
2013-03-02 13:38:00,37.7,27.7,29.70,NNW,328,0.0,0.0,67,0.00,,,0.00,VWS V14.01,2013-03-02 18:38:00,
2013-03-02 13:39:00,37.6,27.8,29.70,NNW,328,0.0,0.0,67,0.00,,,0.00,VWS V14.01,2013-03-02 18:39:00,
2013-03-02 13:40:00,37.6,27.9,29.70,NNW,328,0.0,0.0,68,0.00,,,0.00,VWS V14.01,2013-03-02 18:40:00,
2013-03-02 13:41:00,37.6,28.4,29.70,NNW,328,0.0,0.0,69,0.00,,,0.00,VWS V14.01,2013-03-02 18:41:00,
2013-03-02 13:42:00,37.5,27.9,29.70,NNW,346,5.3,6.1,68,0.00,,---,0.00,VWS V14.01,2013-03-02 18:42:00,
2013-03-02 13:43:00,37.6,28.4,29.70,NNW,328,0.0,0.0,69,0.00,,,0.00,VWS V14.01,2013-03-02 18:43:00,
2013-03-02 13:44:00,37.5,27.9,29.70,NNW,346,5.3,6.1,68,0.00,,,0.00,VWS V14.01,2013-03-02 18:44:00,
2013-03-02 13:45:00,37.4,27.7,29.70,NNW,340,0.0,5.6,68,0.00,,,0.00,VWS V14.01,2013-03-02 18:45:00,
2013-03-02 13:46:00,37.4,28.2,29.69,NW,314,0.0,7.1,69,0.00,,,0.00,VWS V14.01,2013-03-02 18:46:00,
2013-03-02 13:47:00,37.3,27.9,29.70,NW,304,0.0,5.8,68,0.00,,---,0.00,VWS V14.01,2013-03-02 18:47:00,
2013-03-02 13:48:00,37.2,27.6,29.70,NW,318,5.8,5.8,68,0.00,,,0.00,VWS V14.01,2013-03-02 18:48:00,
2013-03-02 13:49:00,37.3,27.9,29.70,NW,304,0.0,5.8,68,0.00,,,0.00,VWS V14.01,2013-03-02 18:49:00,
2013-03-02 13:50:00,37.3,28.0,29.69,NW,304,0.0,0.0,69,0.00,,,0.00,VWS V14.01,2013-03-02 18:50:00,
2013-03-02 13:51:00,37.3,28.0,29.69,NNE,28,4.8,5.5,69,0.00,,,0.00,VWS V14.01,2013-03-02 18:51:00,
2013-03-02 13:52:00,37.4,28.1,29.69,NW,308,4.7,8.4,69,0.00,,---,0.00,VWS V14.01,2013-03-02 18:52:00,
2013-03-02 13:53:00,37.4,28.6,29.69,NE,38,0.0,0.0,70,0.00,,,0.00,VWS V14.01,2013-03-02 18:53:00,
2013-03-02 13:54:00,37.4,28.1,29.69,NW,308,4.7,8.4,69,0.00,,,0.00,VWS V14.01,2013-03-02 18:54:00,
2013-03-02 13:55:00,37.3,27.8,29.69,NNW,332,0.0,7.5,68,0.00,,,0.00,VWS V14.01,2013-03-02 18:55:00,
2013-03-02 13:56:00,37.3,27.9,29.69,WNW,294,0.0,4.3,68,0.00,,,0.00,VWS V14.01,2013-03-02 18:56:00,
2013-03-02 13:57:00,37.3,28.2,29.69,NNW,339,5.7,6.8,69,0.00,,---,0.00,VWS V14.01,2013-03-02 18:57:00,
2013-03-02 13:58:00,37.4,28.1,29.69,NW,312,4.2,4.4,69,0.00,,,0.00,VWS V14.01,2013-03-02 18:58:00,
2013-03-02 13:59:00,37.3,28.2,29.69,NNW,339,5.7,6.8,69,0.00,,,0.00,VWS V14.01,2013-03-02 18:59:00,
2013-03-02 14:00:00,37.2,28.0,29.69,NNW,339,6.9,7.8,69,0.00,,,0.00,VWS V14.01,2013-03-02 19:00:00,
2013-03-02 14:01:00,37.2,27.9,29.69,NW,311,0.0,8.2,69,0.00,,,0.00,VWS V14.01,2013-03-02 19:01:00,
2013-03-02 14:02:00,37.0,28.2,29.69,West,267,0.0,4.9,70,0.00,,---,0.00,VWS V14.01,2013-03-02 19:02:00,
2013-03-02 14:03:00,37.1,28.1,29.69,North,8,0.0,6.3,70,0.00,,,0.00,VWS V14.01,2013-03-02 19:03:00,
2013-03-02 14:04:00,37.0,28.2,29.69,West,267,0.0,4.9,70,0.00,,,0.00,VWS V14.01,2013-03-02 19:04:00,
2013-03-02 14:05:00,37.0,28.2,29.69,West,267,0.0,0.0,70,0.00,,,0.00,VWS V14.01,2013-03-02 19:05:00,
2013-03-02 14:06:00,37.0,28.2,29.69,North,359,5.8,8.3,70,0.00,,,0.00,VWS V14.01,2013-03-02 19:06:00,
2013-03-02 14:07:00,36.9,28.2,29.69,North,359,0.0,7.4,70,0.00,,---,0.00,VWS V14.01,2013-03-02 19:07:00,
2013-03-02 14:08:00,36.9,28.1,29.69,NNW,347,6.6,8.5,70,0.00,,,0.00,VWS V14.01,2013-03-02 19:08:00,
2013-03-02 14:09:00,36.9,28.2,29.69,North,359,0.0,7.4,70,0.00,,,0.00,VWS V14.01,2013-03-02 19:09:00,
2013-03-02 14:10:00,36.9,28.2,29.69,North,359,0.0,0.0,70,0.00,,,0.00,VWS V14.01,2013-03-02 19:10:00,
2013-03-02 14:11:00,36.9,28.3,29.69,NW,325,5.1,7.1,71,0.00,,,0.00,VWS V14.01,2013-03-02 19:11:00,
2013-03-02 14:12:00,36.8,28.2,29.69,NNW,342,7.6,7.6,71,0.00,,---,0.00,VWS V14.01,2013-03-02 19:12:00,
2013-03-02 14:13:00,36.9,28.5,29.69,NW,304,0.0,6.8,71,0.00,,,0.00,VWS V14.01,2013-03-02 19:13:00,
2013-03-02 14:14:00,36.8,28.2,29.69,NNW,342,7.6,7.6,71,0.00,,,0.00,VWS V14.01,2013-03-02 19:14:00,
2013-03-02 14:15:00,36.8,28.3,29.69,North,359,0.0,8.5,71,0.00,,,0.00,VWS V14.01,2013-03-02 19:15:00,
2013-03-02 14:16:00,36.9,28.2,29.69,NW,319,0.0,8.0,70,0.00,,,0.00,VWS V14.01,2013-03-02 19:16:00,
2013-03-02 14:17:00,37.0,28.6,29.69,NW,319,0.0,0.0,71,0.00,,---,0.00,VWS V14.01,2013-03-02 19:17:00,
2013-03-02 14:18:00,37.0,28.4,29.69,NW,319,0.0,0.0,71,0.00,,,0.00,VWS V14.01,2013-03-02 19:18:00,
2013-03-02 14:19:00,37.0,28.6,29.69,NW,319,0.0,0.0,71,0.00,,,0.00,VWS V14.01,2013-03-02 19:19:00,
2013-03-02 14:20:00,37.1,28.5,29.69,NW,319,0.0,0.0,71,0.00,,,0.00,VWS V14.01,2013-03-02 19:20:00,
2013-03-02 14:21:00,37.2,28.8,29.69,NW,319,0.0,0.0,71,0.00,,,0.00,VWS V14.01,2013-03-02 19:21:00,
2013-03-02 14:22:00,37.3,28.5,29.69,NW,319,0.0,0.0,70,0.00,,---,0.00,VWS V14.01,2013-03-02 19:22:00,
2013-03-02 14:23:00,37.3,28.4,29.69,NW,319,0.0,0.0,70,0.00,,,0.00,VWS V14.01,2013-03-02 19:23:00,
2013-03-02 14:24:00,37.3,28.5,29.69,NW,319,0.0,0.0,70,0.00,,,0.00,VWS V14.01,2013-03-02 19:24:00,
2013-03-02 14:25:00,37.2,28.2,29.69,NW,319,0.0,0.0,70,0.00,,,0.00,VWS V14.01,2013-03-02 19:25:00,
2013-03-02 14:26:00,37.2,28.3,29.68,NW,319,0.0,0.0,70,0.00,,,0.00,VWS V14.01,2013-03-02 19:26:00,
2013-03-02 14:27:00,37.3,28.4,29.69,NNE,17,7.0,8.8,70,0.00,,---,0.00,VWS V14.01,2013-03-02 19:27:00,
2013-03-02 14:28:00,37.3,28.5,29.69,North,6,5.6,6.9,70,0.00,,,0.00,VWS V14.01,2013-03-02 19:28:00,
2013-03-02 14:29:00,37.3,28.4,29.68,NNE,17,7.0,8.8,70,0.00,,,0.00,VWS V14.01,2013-03-02 19:29:00,
2013-03-02 14:30:00,37.3,28.3,29.68,WSW,248,4.2,7.3,70,0.00,,,0.00,VWS V14.01,2013-03-02 19:30:00,
2013-03-02 14:31:00,37.3,28.3,29.68,NW,316,0.0,8.1,70,0.00,,,0.00,VWS V14.01,2013-03-02 19:31:00,
2013-03-02 14:32:00,37.2,28.4,29.69,NNW,333,4.3,7.4,70,0.00,,---,0.00,VWS V14.01,2013-03-02 19:32:00,
2013-03-02 14:33:00,37.2,28.3,29.68,NW,305,0.0,7.6,70,0.00,,,0.00,VWS V14.01,2013-03-02 19:33:00,
2013-03-02 14:34:00,37.2,28.4,29.68,NNW,333,4.3,7.4,70,0.00,,,0.00,VWS V14.01,2013-03-02 19:34:00,
2013-03-02 14:35:00,37.2,28.2,29.68,NW,322,6.1,8.0,70,0.00,,,0.00,VWS V14.01,2013-03-02 19:35:00,
2013-03-02 14:36:00,37.3,28.4,29.68,NW,305,3.4,7.6,70,0.00,,,0.00,VWS V14.01,2013-03-02 19:36:00,
2013-03-02 14:37:00,37.5,28.6,29.69,North,350,0.0,0.0,70,0.00,,---,0.00,VWS V14.01,2013-03-02 19:37:00,
2013-03-02 14:38:00,37.3,28.7,29.68,North,350,0.0,7.4,71,0.00,,,0.00,VWS V14.01,2013-03-02 19:38:00,
2013-03-02 14:39:00,37.5,28.6,29.68,North,350,0.0,0.0,70,0.00,,,0.00,VWS V14.01,2013-03-02 19:39:00,
2013-03-02 14:40:00,37.5,28.5,29.68,NNW,330,5.7,5.7,70,0.00,,,0.00,VWS V14.01,2013-03-02 19:40:00,
2013-03-02 14:41:00,37.6,28.5,29.68,NE,38,0.0,9.3,69,0.00,,,0.00,VWS V14.01,2013-03-02 19:41:00,
2013-03-02 14:42:00,37.4,28.0,29.69,NNW,330,6.5,6.8,68,0.00,,---,0.00,VWS V14.01,2013-03-02 19:42:00,
2013-03-02 14:43:00,37.4,28.1,29.68,NW,326,6.2,9.5,69,0.00,,,0.00,VWS V14.01,2013-03-02 19:43:00,
2013-03-02 14:44:00,37.4,28.0,29.68,NNW,330,6.5,6.8,68,0.00,,,0.00,VWS V14.01,2013-03-02 19:44:00,
2013-03-02 14:45:00,37.4,28.1,29.68,NNW,329,0.0,7.8,69,0.00,,,0.00,VWS V14.01,2013-03-02 19:45:00,
2013-03-02 14:46:00,37.4,28.2,29.68,NW,307,4.9,6.8,69,0.00,,,0.00,VWS V14.01,2013-03-02 19:46:00,
2013-03-02 14:47:00,37.6,28.6,29.68,NW,326,0.0,6.4,70,0.00,,---,0.00,VWS V14.01,2013-03-02 19:47:00,
2013-03-02 14:48:00,37.4,28.3,29.68,NW,326,6.4,8.4,69,0.00,,,0.00,VWS V14.01,2013-03-02 19:48:00,
2013-03-02 14:49:00,37.6,28.6,29.68,NW,326,0.0,6.4,70,0.00,,,0.00,VWS V14.01,2013-03-02 19:49:00,
2013-03-02 14:50:00,37.6,28.8,29.68,NW,326,0.0,0.0,70,0.00,,,0.00,VWS V14.01,2013-03-02 19:50:00,
2013-03-02 14:51:00,37.5,28.2,29.68,NW,326,0.0,0.0,69,0.00,,,0.00,VWS V14.01,2013-03-02 19:51:00,
2013-03-02 14:52:00,37.7,28.6,29.68,North,10,0.0,6.2,69,0.00,,---,0.00,VWS V14.01,2013-03-02 19:52:00,
2013-03-02 14:53:00,37.6,28.5,29.68,NNW,339,6.2,6.2,69,0.00,,,0.00,VWS V14.01,2013-03-02 19:53:00,
2013-03-02 14:54:00,37.7,28.6,29.68,North,10,0.0,6.2,69,0.00,,,0.00,VWS V14.01,2013-03-02 19:54:00,
2013-03-02 14:55:00,37.8,28.7,29.68,North,10,0.0,0.0,70,0.00,,,0.00,VWS V14.01,2013-03-02 19:55:00,
2013-03-02 14:56:00,37.8,28.7,29.68,WNW,297,5.5,5.5,69,0.00,,,0.00,VWS V14.01,2013-03-02 19:56:00,
2013-03-02 14:57:00,37.6,28.3,29.68,NW,308,3.5,9.9,69,0.00,,---,0.00,VWS V14.01,2013-03-02 19:57:00,
2013-03-02 14:58:00,37.7,28.4,29.68,NW,311,6.2,9.3,69,0.00,,,0.00,VWS V14.01,2013-03-02 19:58:00,
2013-03-02 14:59:00,37.6,28.3,29.68,NW,308,3.5,9.9,69,0.00,,,0.00,VWS V14.01,2013-03-02 19:59:00,
2013-03-02 15:00:00,37.6,28.3,29.68,North,359,0.0,6.2,69,0.00,,,0.00,VWS V14.01,2013-03-02 20:00:00,
2013-03-02 15:01:00,37.5,28.6,29.68,NNW,335,3.4,7.3,70,0.00,,,0.00,VWS V14.01,2013-03-02 20:01:00,
2013-03-02 15:02:00,37.7,28.5,29.68,NW,319,0.0,5.3,69,0.00,,---,0.00,VWS V14.01,2013-03-02 20:02:00,
2013-03-02 15:03:00,37.7,29.0,29.68,West,273,0.0,4.3,70,0.00,,,0.00,VWS V14.01,2013-03-02 20:03:00,
2013-03-02 15:04:00,37.7,28.5,29.68,NW,319,0.0,5.3,69,0.00,,,0.00,VWS V14.01,2013-03-02 20:04:00,
2013-03-02 15:05:00,37.8,28.8,29.68,NW,319,0.0,0.0,70,0.00,,,0.00,VWS V14.01,2013-03-02 20:05:00,
2013-03-02 15:06:00,37.8,28.7,29.68,North,10,3.4,5.5,69,0.00,,,0.00,VWS V14.01,2013-03-02 20:06:00,
2013-03-02 15:07:00,37.9,28.7,29.68,WNW,288,6.6,7.0,69,0.00,,---,0.00,VWS V14.01,2013-03-02 20:07:00,
2013-03-02 15:08:00,37.9,28.8,29.68,NW,308,0.0,0.0,69,0.00,,,0.00,VWS V14.01,2013-03-02 20:08:00,
2013-03-02 15:09:00,37.9,28.7,29.68,WNW,288,6.6,7.0,69,0.00,,,0.00,VWS V14.01,2013-03-02 20:09:00,
2013-03-02 15:10:00,37.9,28.8,29.68,NNE,13,0.0,6.7,70,0.00,,,0.00,VWS V14.01,2013-03-02 20:10:00,
2013-03-02 15:11:00,37.9,28.8,29.68,WNW,302,0.0,8.7,69,0.00,,,0.00,VWS V14.01,2013-03-02 20:11:00,
2013-03-02 15:12:00,37.7,28.6,29.68,North,8,0.0,6.9,69,0.00,,---,0.00,VWS V14.01,2013-03-02 20:12:00,
2013-03-02 15:13:00,37.7,28.4,29.68,NNE,21,5.8,9.4,69,0.00,,,0.00,VWS V14.01,2013-03-02 20:13:00,
2013-03-02 15:14:00,37.7,28.6,29.68,North,8,0.0,6.9,69,0.00,,,0.00,VWS V14.01,2013-03-02 20:14:00,
2013-03-02 15:15:00,37.7,28.8,29.68,WNW,301,5.6,8.3,70,0.00,,,0.00,VWS V14.01,2013-03-02 20:15:00,
2013-03-02 15:16:00,37.7,28.9,29.68,NNW,329,4.2,6.6,70,0.00,,,0.00,VWS V14.01,2013-03-02 20:16:00,
2013-03-02 15:17:00,37.5,28.7,29.68,NW,315,0.0,6.4,70,0.00,,---,0.00,VWS V14.01,2013-03-02 20:17:00,
2013-03-02 15:18:00,37.6,28.7,29.68,North,3,0.0,5.0,70,0.00,,,0.00,VWS V14.01,2013-03-02 20:18:00,
2013-03-02 15:19:00,37.5,28.7,29.68,NW,315,0.0,6.4,70,0.00,,,0.00,VWS V14.01,2013-03-02 20:19:00,
2013-03-02 15:20:00,37.4,28.4,29.68,North,7,6.4,8.5,70,0.00,,,0.00,VWS V14.01,2013-03-02 20:20:00,
2013-03-02 15:21:00,37.3,28.4,29.68,NNW,345,0.0,8.6,70,0.00,,,0.00,VWS V14.01,2013-03-02 20:21:00,
2013-03-02 15:22:00,37.4,28.8,29.68,WNW,294,0.0,0.0,71,0.00,,---,0.00,VWS V14.01,2013-03-02 20:22:00,
2013-03-02 15:23:00,37.4,28.8,29.68,WNW,294,0.0,2.2,71,0.00,,,0.00,VWS V14.01,2013-03-02 20:23:00,
2013-03-02 15:24:00,37.4,28.8,29.68,WNW,294,0.0,0.0,71,0.00,,,0.00,VWS V14.01,2013-03-02 20:24:00,
2013-03-02 15:25:00,37.5,28.9,29.68,WNW,294,0.0,0.0,71,0.00,,,0.00,VWS V14.01,2013-03-02 20:25:00,
2013-03-02 15:26:00,37.4,28.6,29.68,North,352,4.2,7.9,70,0.00,,,0.00,VWS V14.01,2013-03-02 20:26:00,
2013-03-02 15:27:00,37.2,28.4,29.68,North,349,0.0,0.0,70,0.00,,---,0.00,VWS V14.01,2013-03-02 20:27:00,
2013-03-02 15:28:00,37.2,28.4,29.68,North,349,0.0,0.0,70,0.00,,,0.00,VWS V14.01,2013-03-02 20:28:00,
2013-03-02 15:29:00,37.2,28.4,29.68,North,349,0.0,0.0,70,0.00,,,0.00,VWS V14.01,2013-03-02 20:29:00,
2013-03-02 15:30:00,37.3,28.6,29.68,North,349,0.0,0.0,70,0.00,,,0.00,VWS V14.01,2013-03-02 20:30:00,
2013-03-02 15:31:00,37.3,28.6,29.68,North,349,4.3,4.3,70,0.00,,,0.00,VWS V14.01,2013-03-02 20:31:00,
2013-03-02 15:32:00,37.2,28.5,29.68,NNW,333,5.3,5.6,71,0.00,,---,0.00,VWS V14.01,2013-03-02 20:32:00,
2013-03-02 15:33:00,37.3,28.6,29.68,NNW,328,0.0,4.6,71,0.00,,,0.00,VWS V14.01,2013-03-02 20:33:00,
2013-03-02 15:34:00,37.2,28.5,29.68,NNW,333,5.3,5.6,71,0.00,,,0.00,VWS V14.01,2013-03-02 20:34:00,
2013-03-02 15:35:00,37.2,28.5,29.68,NNE,31,3.5,9.3,70,0.00,,,0.00,VWS V14.01,2013-03-02 20:35:00,
2013-03-02 15:36:00,37.3,28.8,29.68,NNE,31,0.0,3.5,71,0.00,,,0.00,VWS V14.01,2013-03-02 20:36:00,
2013-03-02 15:37:00,37.3,28.6,29.68,NW,319,5.8,7.9,71,0.00,,---,0.00,VWS V14.01,2013-03-02 20:37:00,
2013-03-02 15:38:00,37.3,28.8,29.68,NW,305,0.0,5.2,71,0.00,,,0.00,VWS V14.01,2013-03-02 20:38:00,
2013-03-02 15:39:00,37.3,28.6,29.68,NW,319,5.8,7.9,71,0.00,,,0.00,VWS V14.01,2013-03-02 20:39:00,
2013-03-02 15:40:00,37.3,28.5,29.68,WNW,287,5.0,7.3,70,0.00,,,0.00,VWS V14.01,2013-03-02 20:40:00,
2013-03-02 15:41:00,37.2,28.4,29.68,North,359,5.1,6.9,70,0.00,,,0.00,VWS V14.01,2013-03-02 20:41:00,
2013-03-02 15:42:00,37.1,28.4,29.68,NNE,25,0.0,5.9,70,0.00,,---,0.00,VWS V14.01,2013-03-02 20:42:00,
2013-03-02 15:43:00,37.1,28.4,29.68,North,1,5.0,7.3,71,0.00,,,0.00,VWS V14.01,2013-03-02 20:43:00,
2013-03-02 15:44:00,37.1,28.4,29.68,NNE,25,0.0,5.9,70,0.00,,,0.00,VWS V14.01,2013-03-02 20:44:00,
2013-03-02 15:45:00,37.1,28.5,29.68,NNE,25,3.4,3.4,71,0.00,,,0.00,VWS V14.01,2013-03-02 20:45:00,
2013-03-02 15:46:00,37.0,28.4,29.68,NW,307,0.0,5.9,71,0.00,,,0.00,VWS V14.01,2013-03-02 20:46:00,
2013-03-02 15:47:00,37.0,28.2,29.68,NW,304,0.0,9.6,70,0.00,,---,0.00,VWS V14.01,2013-03-02 20:47:00,
2013-03-02 15:48:00,37.0,28.2,29.68,NNW,347,0.0,7.2,70,0.00,,,0.00,VWS V14.01,2013-03-02 20:48:00,
2013-03-02 15:49:00,37.0,28.2,29.68,NW,304,0.0,9.6,70,0.00,,,0.00,VWS V14.01,2013-03-02 20:49:00,
2013-03-02 15:50:00,37.0,28.5,29.68,SW,235,0.0,6.8,71,0.00,,,0.00,VWS V14.01,2013-03-02 20:50:00,
2013-03-02 15:51:00,37.0,28.5,29.68,NNW,336,5.0,6.5,71,0.00,,,0.00,VWS V14.01,2013-03-02 20:51:00,
2013-03-02 15:52:00,37.0,28.4,29.68,WNW,300,0.0,0.0,71,0.00,,---,0.00,VWS V14.01,2013-03-02 20:52:00,
2013-03-02 15:53:00,36.9,28.3,29.68,WNW,300,0.0,6.6,71,0.00,,,0.00,VWS V14.01,2013-03-02 20:53:00,
2013-03-02 15:54:00,37.0,28.4,29.68,WNW,300,0.0,0.0,71,0.00,,,0.00,VWS V14.01,2013-03-02 20:54:00,
2013-03-02 15:55:00,36.9,28.2,29.68,WNW,300,0.0,0.0,71,0.00,,,0.00,VWS V14.01,2013-03-02 20:55:00,
2013-03-02 15:56:00,36.9,28.1,29.68,North,352,5.2,7.5,70,0.00,,,0.00,VWS V14.01,2013-03-02 20:56:00,
2013-03-02 15:57:00,37.0,27.9,29.68,NNE,21,0.0,0.0,69,0.00,,---,0.00,VWS V14.01,2013-03-02 20:57:00,
2013-03-02 15:58:00,37.0,27.7,29.68,NNE,21,0.0,0.0,69,0.00,,,0.00,VWS V14.01,2013-03-02 20:58:00,
2013-03-02 15:59:00,37.0,27.9,29.68,NNE,21,0.0,0.0,69,0.00,,,0.00,VWS V14.01,2013-03-02 20:59:00,
2013-03-02 16:00:00,36.8,27.5,29.68,NW,305,4.7,7.8,69,0.00,,,0.00,VWS V14.01,2013-03-02 21:00:00,
2013-03-02 16:01:00,36.9,27.8,29.68,NW,304,0.0,6.0,69,0.00,,,0.00,VWS V14.01,2013-03-02 21:01:00,
2013-03-02 16:02:00,36.9,27.6,29.68,NNW,333,0.0,5.2,69,0.00,,---,0.00,VWS V14.01,2013-03-02 21:02:00,
2013-03-02 16:03:00,36.8,27.4,29.68,NW,314,5.2,7.2,68,0.00,,,0.00,VWS V14.01,2013-03-02 21:03:00,
2013-03-02 16:04:00,36.9,27.6,29.68,NNW,333,0.0,5.2,69,0.00,,,0.00,VWS V14.01,2013-03-02 21:04:00,
2013-03-02 16:05:00,36.9,27.6,29.68,NNW,333,0.0,0.0,69,0.00,,,0.00,VWS V14.01,2013-03-02 21:05:00,
2013-03-02 16:06:00,36.8,27.6,29.68,WSW,252,0.0,8.5,69,0.00,,,0.00,VWS V14.01,2013-03-02 21:06:00,
2013-03-02 16:07:00,36.9,27.8,29.68,WNW,294,0.0,5.6,69,0.00,,---,0.00,VWS V14.01,2013-03-02 21:07:00,
2013-03-02 16:08:00,36.9,27.8,29.68,West,271,3.4,3.5,69,0.00,,,0.00,VWS V14.01,2013-03-02 21:08:00,
2013-03-02 16:09:00,36.9,27.8,29.68,WNW,294,0.0,5.6,69,0.00,,,0.00,VWS V14.01,2013-03-02 21:09:00,
2013-03-02 16:10:00,36.9,27.7,29.68,WNW,294,0.0,0.0,69,0.00,,,0.00,VWS V14.01,2013-03-02 21:10:00,
2013-03-02 16:11:00,37.0,27.8,29.68,WNW,294,0.0,0.0,69,0.00,,,0.00,VWS V14.01,2013-03-02 21:11:00,
2013-03-02 16:12:00,37.0,28.1,29.68,NW,318,6.7,8.0,70,0.00,,---,0.00,VWS V14.01,2013-03-02 21:12:00,
2013-03-02 16:13:00,37.0,27.6,29.68,NNW,335,0.0,10.8,69,0.00,,,0.00,VWS V14.01,2013-03-02 21:13:00,
2013-03-02 16:14:00,37.0,28.1,29.68,NW,318,6.7,8.0,70,0.00,,,0.00,VWS V14.01,2013-03-02 21:14:00,
2013-03-02 16:15:00,36.9,27.4,29.68,NNW,346,6.3,10.4,68,0.00,,,0.00,VWS V14.01,2013-03-02 21:15:00,
2013-03-02 16:16:00,36.9,27.5,29.68,NW,326,7.6,7.6,68,0.00,,,0.00,VWS V14.01,2013-03-02 21:16:00,
2013-03-02 16:17:00,36.7,27.3,29.68,NW,326,0.0,6.0,68,0.00,,---,0.00,VWS V14.01,2013-03-02 21:17:00,
2013-03-02 16:18:00,36.9,27.5,29.68,WNW,292,0.0,0.0,68,0.00,,,0.00,VWS V14.01,2013-03-02 21:18:00,
2013-03-02 16:19:00,36.7,27.3,29.68,NW,326,0.0,6.0,68,0.00,,,0.00,VWS V14.01,2013-03-02 21:19:00,
2013-03-02 16:20:00,36.7,27.6,29.68,NW,326,0.0,0.0,69,0.00,,,0.00,VWS V14.01,2013-03-02 21:20:00,
2013-03-02 16:21:00,36.8,27.6,29.68,NW,326,0.0,0.0,69,0.00,,,0.00,VWS V14.01,2013-03-02 21:21:00,
2013-03-02 16:22:00,36.8,27.4,29.68,NNW,339,4.3,8.6,68,0.00,,---,0.00,VWS V14.01,2013-03-02 21:22:00,
2013-03-02 16:23:00,36.8,27.6,29.68,North,356,5.6,9.3,69,0.00,,,0.00,VWS V14.01,2013-03-02 21:23:00,
2013-03-02 16:24:00,36.8,27.4,29.68,NNW,339,4.3,8.6,68,0.00,,,0.00,VWS V14.01,2013-03-02 21:24:00,
2013-03-02 16:25:00,36.8,27.5,29.68,NNW,345,6.0,6.1,69,0.00,,,0.00,VWS V14.01,2013-03-02 21:25:00,
2013-03-02 16:26:00,36.7,27.5,29.68,WNW,295,3.0,8.1,69,0.00,,,0.00,VWS V14.01,2013-03-02 21:26:00,
2013-03-02 16:27:00,36.7,27.4,29.68,NNW,339,6.8,7.3,69,0.00,,---,0.00,VWS V14.01,2013-03-02 21:27:00,
2013-03-02 16:28:00,36.7,27.5,29.68,NNW,339,7.3,8.5,69,0.00,,,0.00,VWS V14.01,2013-03-02 21:28:00,
2013-03-02 16:29:00,36.7,27.4,29.68,NNW,339,6.8,7.3,69,0.00,,,0.00,VWS V14.01,2013-03-02 21:29:00,
2013-03-02 16:30:00,36.7,27.4,29.68,North,359,4.7,8.5,69,0.00,,,0.00,VWS V14.01,2013-03-02 21:30:00,
2013-03-02 16:31:00,36.7,27.5,29.68,NW,323,0.0,6.6,69,0.00,,,0.00,VWS V14.01,2013-03-02 21:31:00,
2013-03-02 16:32:00,36.7,27.5,29.68,NW,323,0.0,0.0,69,0.00,,---,0.00,VWS V14.01,2013-03-02 21:32:00,
2013-03-02 16:33:00,36.7,27.5,29.68,NW,323,0.0,5.3,69,0.00,,,0.00,VWS V14.01,2013-03-02 21:33:00,
2013-03-02 16:34:00,36.7,27.5,29.68,NW,323,0.0,0.0,69,0.00,,,0.00,VWS V14.01,2013-03-02 21:34:00,
2013-03-02 16:35:00,36.7,27.4,29.68,NW,323,0.0,0.0,69,0.00,,,0.00,VWS V14.01,2013-03-02 21:35:00,
2013-03-02 16:36:00,36.7,27.6,29.68,NW,323,0.0,0.0,69,0.00,,,0.00,VWS V14.01,2013-03-02 21:36:00,
2013-03-02 16:37:00,36.7,28.0,29.68,NW,323,0.0,0.0,70,0.00,,---,0.00,VWS V14.01,2013-03-02 21:37:00,
2013-03-02 16:38:00,36.7,27.9,29.68,NW,323,0.0,2.6,70,0.00,,,0.00,VWS V14.01,2013-03-02 21:38:00,
2013-03-02 16:39:00,36.7,28.0,29.68,NW,323,0.0,0.0,70,0.00,,,0.00,VWS V14.01,2013-03-02 21:39:00,
2013-03-02 16:40:00,36.7,27.8,29.68,WNW,290,3.3,8.0,70,0.00,,,0.00,VWS V14.01,2013-03-02 21:40:00,
2013-03-02 16:41:00,36.7,27.6,29.68,WNW,290,0.0,3.3,69,0.00,,,0.00,VWS V14.01,2013-03-02 21:41:00,
2013-03-02 16:42:00,36.6,27.4,29.68,NNE,14,0.0,0.0,69,0.00,,---,0.00,VWS V14.01,2013-03-02 21:42:00,
2013-03-02 16:43:00,36.5,27.1,29.68,NNE,14,0.0,9.2,68,0.00,,,0.00,VWS V14.01,2013-03-02 21:43:00,
2013-03-02 16:44:00,36.6,27.4,29.68,NNE,14,0.0,0.0,69,0.00,,,0.00,VWS V14.01,2013-03-02 21:44:00,
2013-03-02 16:45:00,36.6,27.5,29.68,NNE,14,0.0,0.0,69,0.00,,,0.00,VWS V14.01,2013-03-02 21:45:00,
2013-03-02 16:46:00,36.5,27.2,29.68,NNE,13,0.0,6.0,69,0.00,,,0.00,VWS V14.01,2013-03-02 21:46:00,
2013-03-02 16:47:00,36.5,27.4,29.68,NW,322,0.0,0.0,69,0.00,,---,0.00,VWS V14.01,2013-03-02 21:47:00,
2013-03-02 16:48:00,36.5,27.5,29.68,NW,322,0.0,5.9,70,0.00,,,0.00,VWS V14.01,2013-03-02 21:48:00,
2013-03-02 16:49:00,36.5,27.4,29.68,NW,322,0.0,0.0,69,0.00,,,0.00,VWS V14.01,2013-03-02 21:49:00,
2013-03-02 16:50:00,36.5,27.4,29.68,NW,322,2.7,2.7,69,0.00,,,0.00,VWS V14.01,2013-03-02 21:50:00,
2013-03-02 16:51:00,36.4,27.2,29.68,NNE,20,3.5,6.5,69,0.00,,,0.00,VWS V14.01,2013-03-02 21:51:00,
2013-03-02 16:52:00,36.5,27.5,29.68,WNW,287,0.0,0.0,70,0.00,,---,0.00,VWS V14.01,2013-03-02 21:52:00,
2013-03-02 16:53:00,36.5,27.4,29.68,WNW,287,0.0,0.0,69,0.00,,,0.00,VWS V14.01,2013-03-02 21:53:00,
2013-03-02 16:54:00,36.5,27.5,29.68,WNW,287,0.0,0.0,70,0.00,,,0.00,VWS V14.01,2013-03-02 21:54:00,
2013-03-02 16:55:00,36.5,27.6,29.68,WNW,287,0.0,0.0,70,0.00,,,0.00,VWS V14.01,2013-03-02 21:55:00,
2013-03-02 16:56:00,36.5,27.6,29.68,WNW,287,0.0,0.0,70,0.00,,,0.00,VWS V14.01,2013-03-02 21:56:00,
2013-03-02 16:57:00,36.5,27.7,29.68,WNW,287,0.0,0.0,70,0.00,,---,0.00,VWS V14.01,2013-03-02 21:57:00,
2013-03-02 16:58:00,36.5,27.6,29.68,WNW,287,0.0,0.0,70,0.00,,,0.00,VWS V14.01,2013-03-02 21:58:00,
2013-03-02 16:59:00,36.5,27.7,29.68,WNW,287,0.0,0.0,70,0.00,,,0.00,VWS V14.01,2013-03-02 21:59:00,
2013-03-02 17:00:00,36.6,27.7,29.68,WNW,287,0.0,0.0,70,0.00,,,0.00,VWS V14.01,2013-03-02 22:00:00,
2013-03-02 17:01:00,36.6,27.7,29.68,WNW,287,0.0,0.0,70,0.00,,,0.00,VWS V14.01,2013-03-02 22:01:00,
2013-03-02 17:02:00,36.6,27.8,29.68,NNW,345,0.0,0.0,70,0.00,,---,0.00,VWS V14.01,2013-03-02 22:02:00,
2013-03-02 17:03:00,36.6,27.7,29.68,NNW,345,0.0,6.3,70,0.00,,,0.00,VWS V14.01,2013-03-02 22:03:00,
2013-03-02 17:04:00,36.6,27.8,29.68,NNW,345,0.0,0.0,70,0.00,,,0.00,VWS V14.01,2013-03-02 22:04:00,
2013-03-02 17:05:00,36.6,28.0,29.68,NNW,345,0.0,0.0,71,0.00,,,0.00,VWS V14.01,2013-03-02 22:05:00,
2013-03-02 17:06:00,36.6,27.9,29.68,NNW,345,0.0,0.0,70,0.00,,,0.00,VWS V14.01,2013-03-02 22:06:00,
2013-03-02 17:07:00,36.3,27.5,29.69,WNW,301,0.0,7.4,70,0.00,,---,0.00,VWS V14.01,2013-03-02 22:07:00,
2013-03-02 17:08:00,36.4,27.7,29.68,NW,322,6.5,6.6,70,0.00,,,0.00,VWS V14.01,2013-03-02 22:08:00,
2013-03-02 17:09:00,36.3,27.5,29.68,WNW,301,0.0,7.4,70,0.00,,,0.00,VWS V14.01,2013-03-02 22:09:00,
2013-03-02 17:10:00,36.3,27.6,29.68,ENE,68,5.3,5.7,70,0.00,,,0.00,VWS V14.01,2013-03-02 22:10:00,
2013-03-02 17:11:00,36.3,27.6,29.68,NNW,333,5.8,7.6,70,0.00,,,0.00,VWS V14.01,2013-03-02 22:11:00,
2013-03-02 17:12:00,36.1,27.6,29.69,NW,319,3.5,5.7,71,0.00,,---,0.00,VWS V14.01,2013-03-02 22:12:00,
2013-03-02 17:13:00,36.2,27.6,29.68,North,350,0.0,5.0,71,0.00,,,0.00,VWS V14.01,2013-03-02 22:13:00,
2013-03-02 17:14:00,36.1,27.6,29.68,NW,319,3.5,5.7,71,0.00,,,0.00,VWS V14.01,2013-03-02 22:14:00,
2013-03-02 17:15:00,36.1,27.7,29.68,NNW,332,4.2,4.9,71,0.00,,,0.00,VWS V14.01,2013-03-02 22:15:00,
2013-03-02 17:16:00,36.1,27.7,29.68,NNW,339,4.1,4.3,71,0.00,,,0.00,VWS V14.01,2013-03-02 22:16:00,
2013-03-02 17:17:00,36.0,27.6,29.69,North,4,4.2,5.9,71,0.00,,---,0.00,VWS V14.01,2013-03-02 22:17:00,
2013-03-02 17:18:00,36.1,27.8,29.69,NNE,20,4.5,5.2,71,0.00,,,0.00,VWS V14.01,2013-03-02 22:18:00,
2013-03-02 17:19:00,36.0,27.6,29.69,North,4,4.2,5.9,71,0.00,,,0.00,VWS V14.01,2013-03-02 22:19:00,
2013-03-02 17:20:00,36.0,27.6,29.69,WNW,297,0.0,5.3,71,0.00,,,0.00,VWS V14.01,2013-03-02 22:20:00,
2013-03-02 17:21:00,36.0,27.7,29.69,WNW,297,0.0,0.0,72,0.00,,,0.00,VWS V14.01,2013-03-02 22:21:00,
2013-03-02 17:22:00,35.7,27.1,29.69,NNE,17,3.3,10.9,71,0.00,,---,0.00,VWS V14.01,2013-03-02 22:22:00,
2013-03-02 17:23:00,35.9,27.3,29.69,North,349,8.9,10.2,70,0.00,,,0.00,VWS V14.01,2013-03-02 22:23:00,
2013-03-02 17:24:00,35.7,27.1,29.69,NNE,17,3.3,10.9,71,0.00,,,0.00,VWS V14.01,2013-03-02 22:24:00,
2013-03-02 17:25:00,35.8,27.4,29.69,NNE,28,0.0,5.3,71,0.00,,,0.00,VWS V14.01,2013-03-02 22:25:00,
2013-03-02 17:26:00,35.7,27.3,29.69,WNW,292,0.0,5.9,71,0.00,,,0.00,VWS V14.01,2013-03-02 22:26:00,
2013-03-02 17:27:00,35.6,27.3,29.69,NNW,329,7.3,8.1,72,0.00,,---,0.00,VWS V14.01,2013-03-02 22:27:00,
2013-03-02 17:28:00,35.8,27.7,29.69,NNE,21,4.2,4.2,72,0.00,,,0.00,VWS V14.01,2013-03-02 22:28:00,
2013-03-02 17:29:00,35.6,27.3,29.69,NNW,329,7.3,8.1,72,0.00,,,0.00,VWS V14.01,2013-03-02 22:29:00,
2013-03-02 17:30:00,35.6,27.2,29.69,NNW,347,4.3,8.9,71,0.00,,,0.00,VWS V14.01,2013-03-02 22:30:00,
2013-03-02 17:31:00,35.6,27.3,29.69,North,3,5.2,6.6,71,0.00,,,0.00,VWS V14.01,2013-03-02 22:31:00,
2013-03-02 17:32:00,35.6,27.4,29.69,NE,34,0.0,0.0,72,0.00,,---,0.00,VWS V14.01,2013-03-02 22:32:00,
2013-03-02 17:33:00,35.6,27.6,29.69,NE,34,0.0,3.5,72,0.00,,,0.00,VWS V14.01,2013-03-02 22:33:00,
2013-03-02 17:34:00,35.6,27.4,29.69,NE,34,0.0,0.0,72,0.00,,,0.00,VWS V14.01,2013-03-02 22:34:00,
2013-03-02 17:35:00,35.5,27.4,29.69,NW,318,6.5,8.3,72,0.00,,,0.00,VWS V14.01,2013-03-02 22:35:00,
2013-03-02 17:36:00,35.5,27.4,29.69,North,349,8.1,9.1,72,0.00,,,0.00,VWS V14.01,2013-03-02 22:36:00,
2013-03-02 17:37:00,35.4,27.4,29.69,North,6,6.5,11.1,72,0.00,,---,0.00,VWS V14.01,2013-03-02 22:37:00,
2013-03-02 17:38:00,35.3,27.3,29.69,NNW,339,8.2,9.5,72,0.00,,,0.00,VWS V14.01,2013-03-02 22:38:00,
2013-03-02 17:39:00,35.4,27.4,29.69,North,6,6.5,11.1,72,0.00,,,0.00,VWS V14.01,2013-03-02 22:39:00,
2013-03-02 17:40:00,35.2,27.2,29.69,NNE,25,11.1,11.1,72,0.00,,,0.00,VWS V14.01,2013-03-02 22:40:00,
2013-03-02 17:41:00,35.1,27.2,29.69,NW,311,7.0,11.1,72,0.00,,,0.00,VWS V14.01,2013-03-02 22:41:00,
2013-03-02 17:42:00,35.2,27.5,29.70,North,352,7.6,10.4,73,0.00,,---,0.00,VWS V14.01,2013-03-02 22:42:00,
2013-03-02 17:43:00,35.2,27.7,29.69,NNW,335,6.8,7.1,74,0.00,,,0.00,VWS V14.01,2013-03-02 22:43:00,
2013-03-02 17:44:00,35.2,27.5,29.70,North,352,7.6,10.4,73,0.00,,,0.00,VWS V14.01,2013-03-02 22:44:00,
2013-03-02 17:45:00,35.1,27.3,29.69,North,359,7.1,10.1,73,0.00,,,0.00,VWS V14.01,2013-03-02 22:45:00,
2013-03-02 17:46:00,35.1,27.6,29.70,North,7,0.0,8.5,74,0.00,,,0.00,VWS V14.01,2013-03-02 22:46:00,
2013-03-02 17:47:00,35.1,27.5,29.70,North,357,3.4,8.3,73,0.00,,---,0.00,VWS V14.01,2013-03-02 22:47:00,
2013-03-02 17:48:00,35.1,27.7,29.70,NNE,22,3.4,4.2,74,0.00,,,0.00,VWS V14.01,2013-03-02 22:48:00,
2013-03-02 17:49:00,35.1,27.5,29.70,North,357,3.4,8.3,73,0.00,,,0.00,VWS V14.01,2013-03-02 22:49:00,
2013-03-02 17:50:00,35.1,27.6,29.70,NW,316,0.0,4.9,74,0.00,,,0.00,VWS V14.01,2013-03-02 22:50:00,
2013-03-02 17:51:00,35.1,27.5,29.70,NW,322,5.3,7.2,74,0.00,,,0.00,VWS V14.01,2013-03-02 22:51:00,
2013-03-02 17:52:00,35.1,27.7,29.70,North,6,2.9,7.1,74,0.00,,---,0.00,VWS V14.01,2013-03-02 22:52:00,
2013-03-02 17:53:00,35.0,27.6,29.70,NE,55,7.1,9.6,74,0.00,,,0.00,VWS V14.01,2013-03-02 22:53:00,
2013-03-02 17:54:00,35.1,27.7,29.70,North,6,2.9,7.1,74,0.00,,,0.00,VWS V14.01,2013-03-02 22:54:00,
2013-03-02 17:55:00,35.1,27.8,29.70,NNE,13,0.0,2.9,74,0.00,,,0.00,VWS V14.01,2013-03-02 22:55:00,
2013-03-02 17:56:00,35.1,27.9,29.70,NNW,339,6.1,7.1,75,0.00,,,0.00,VWS V14.01,2013-03-02 22:56:00,
2013-03-02 17:57:00,35.0,27.6,29.70,NNW,329,7.8,7.9,74,0.00,,---,0.00,VWS V14.01,2013-03-02 22:57:00,
2013-03-02 17:58:00,35.1,27.8,29.70,North,0,0.0,0.0,74,0.00,,,0.00,VWS V14.01,2013-03-02 22:58:00,
2013-03-02 17:59:00,35.0,27.6,29.70,NNW,329,7.8,7.9,74,0.00,,,0.00,VWS V14.01,2013-03-02 22:59:00,
2013-03-02 18:00:00,34.9,27.6,29.70,North,352,5.9,7.8,74,0.00,,,0.00,VWS V14.01,2013-03-02 23:00:00,
2013-03-02 18:01:00,34.9,27.6,29.70,NW,309,0.0,6.5,74,0.00,,,0.00,VWS V14.01,2013-03-02 23:01:00,
2013-03-02 18:02:00,35.0,27.9,29.70,NNW,340,0.0,0.0,75,0.00,,---,0.00,VWS V14.01,2013-03-02 23:02:00,
2013-03-02 18:03:00,34.9,27.8,29.70,NNW,340,0.0,5.9,75,0.00,,,0.00,VWS V14.01,2013-03-02 23:03:00,
2013-03-02 18:04:00,35.0,27.9,29.70,NNW,340,0.0,0.0,75,0.00,,,0.00,VWS V14.01,2013-03-02 23:04:00,
2013-03-02 18:05:00,34.9,27.7,29.70,North,6,5.5,7.4,75,0.00,,,0.00,VWS V14.01,2013-03-02 23:05:00,
2013-03-02 18:06:00,34.9,27.6,29.70,NNE,15,4.8,6.3,74,0.00,,,0.00,VWS V14.01,2013-03-02 23:06:00,
2013-03-02 18:07:00,35.0,27.8,29.70,North,356,0.0,3.2,75,0.00,,---,0.00,VWS V14.01,2013-03-02 23:07:00,
2013-03-02 18:08:00,34.9,27.7,29.70,North,356,3.2,3.4,75,0.00,,,0.00,VWS V14.01,2013-03-02 23:08:00,
2013-03-02 18:09:00,35.0,27.8,29.70,North,356,0.0,3.2,75,0.00,,,0.00,VWS V14.01,2013-03-02 23:09:00,
2013-03-02 18:10:00,34.9,27.7,29.70,North,356,0.0,0.0,75,0.00,,,0.00,VWS V14.01,2013-03-02 23:10:00,
2013-03-02 18:11:00,34.8,27.6,29.70,North,356,0.0,0.0,75,0.00,,,0.00,VWS V14.01,2013-03-02 23:11:00,
2013-03-02 18:12:00,34.8,27.6,29.70,West,276,0.0,6.5,75,0.00,,---,0.00,VWS V14.01,2013-03-02 23:12:00,
2013-03-02 18:13:00,34.9,28.0,29.70,North,356,0.0,0.0,76,0.00,,,0.00,VWS V14.01,2013-03-02 23:13:00,
2013-03-02 18:14:00,34.8,27.6,29.70,West,276,0.0,6.5,75,0.00,,,0.00,VWS V14.01,2013-03-02 23:14:00,
2013-03-02 18:15:00,34.8,27.6,29.70,West,276,0.0,3.5,75,0.00,,,0.00,VWS V14.01,2013-03-02 23:15:00,
2013-03-02 18:16:00,34.8,27.7,29.70,West,276,0.0,0.0,75,0.00,,,0.00,VWS V14.01,2013-03-02 23:16:00,
2013-03-02 18:17:00,34.8,27.9,29.70,West,276,0.0,0.0,76,0.00,,---,0.00,VWS V14.01,2013-03-02 23:17:00,
2013-03-02 18:18:00,34.9,27.8,29.70,West,276,0.0,0.0,75,0.00,,,0.00,VWS V14.01,2013-03-02 23:18:00,
2013-03-02 18:19:00,34.8,27.9,29.70,West,276,0.0,0.0,76,0.00,,,0.00,VWS V14.01,2013-03-02 23:19:00,
2013-03-02 18:20:00,34.8,27.8,29.70,West,276,0.0,0.0,75,0.00,,,0.00,VWS V14.01,2013-03-02 23:20:00,
2013-03-02 18:21:00,34.8,27.7,29.70,East,90,0.0,5.9,75,0.00,,,0.00,VWS V14.01,2013-03-02 23:21:00,
2013-03-02 18:22:00,34.7,27.5,29.70,WNW,290,0.0,0.0,75,0.00,,---,0.00,VWS V14.01,2013-03-02 23:22:00,
2013-03-02 18:23:00,34.8,27.6,29.70,WNW,290,0.0,7.3,75,0.00,,,0.00,VWS V14.01,2013-03-02 23:23:00,
2013-03-02 18:24:00,34.7,27.5,29.70,WNW,290,0.0,0.0,75,0.00,,,0.00,VWS V14.01,2013-03-02 23:24:00,
2013-03-02 18:25:00,34.7,27.5,29.70,North,8,5.2,8.5,75,0.00,,,0.00,VWS V14.01,2013-03-02 23:25:00,
2013-03-02 18:26:00,34.7,27.7,29.70,North,359,0.0,5.2,75,0.00,,,0.00,VWS V14.01,2013-03-02 23:26:00,
2013-03-02 18:27:00,34.6,27.7,29.70,North,359,5.2,10.2,76,0.00,,---,0.00,VWS V14.01,2013-03-02 23:27:00,
2013-03-02 18:28:00,34.5,27.3,29.70,NNW,333,8.5,11.4,75,0.00,,,0.00,VWS V14.01,2013-03-02 23:28:00,
2013-03-02 18:29:00,34.6,27.7,29.70,North,359,5.2,10.2,76,0.00,,,0.00,VWS V14.01,2013-03-02 23:29:00,
2013-03-02 18:30:00,34.5,27.5,29.71,North,359,5.2,7.6,75,0.00,,,0.00,VWS V14.01,2013-03-02 23:30:00,
2013-03-02 18:31:00,34.6,27.6,29.70,NW,322,5.2,6.2,75,0.00,,,0.00,VWS V14.01,2013-03-02 23:31:00,
2013-03-02 18:32:00,34.5,27.7,29.71,NW,304,7.1,7.5,76,0.00,,---,0.00,VWS V14.01,2013-03-02 23:32:00,
2013-03-02 18:33:00,34.6,27.6,29.71,North,359,5.6,7.4,75,0.00,,,0.00,VWS V14.01,2013-03-02 23:33:00,
2013-03-02 18:34:00,34.5,27.7,29.71,NW,304,7.1,7.5,76,0.00,,,0.00,VWS V14.01,2013-03-02 23:34:00,
2013-03-02 18:35:00,34.4,27.4,29.71,NW,311,5.2,7.4,75,0.00,,,0.00,VWS V14.01,2013-03-02 23:35:00,
2013-03-02 18:36:00,34.5,27.4,29.71,NNE,22,3.1,6.0,75,0.00,,,0.00,VWS V14.01,2013-03-02 23:36:00,
2013-03-02 18:37:00,34.6,27.7,29.71,NNE,25,0.0,0.0,76,0.00,,---,0.00,VWS V14.01,2013-03-02 23:37:00,
2013-03-02 18:38:00,34.5,27.6,29.71,NNE,25,0.0,0.0,76,0.00,,,0.00,VWS V14.01,2013-03-02 23:38:00,
2013-03-02 18:39:00,34.6,27.7,29.71,NNE,25,0.0,0.0,76,0.00,,,0.00,VWS V14.01,2013-03-02 23:39:00,
2013-03-02 18:40:00,34.6,27.9,29.71,NNE,25,0.0,0.0,76,0.00,,,0.00,VWS V14.01,2013-03-02 23:40:00,
2013-03-02 18:41:00,34.6,27.7,29.71,NW,315,9.0,9.9,76,0.00,,,0.00,VWS V14.01,2013-03-02 23:41:00,
2013-03-02 18:42:00,34.6,28.1,29.71,North,357,0.0,5.2,77,0.00,,---,0.00,VWS V14.01,2013-03-02 23:42:00,
2013-03-02 18:43:00,34.6,27.8,29.71,NE,52,0.0,5.2,76,0.00,,,0.00,VWS V14.01,2013-03-02 23:43:00,
2013-03-02 18:44:00,34.6,28.1,29.71,North,357,0.0,5.2,77,0.00,,,0.00,VWS V14.01,2013-03-02 23:44:00,
2013-03-02 18:45:00,34.6,27.7,29.71,North,357,0.0,0.0,76,0.00,,,0.00,VWS V14.01,2013-03-02 23:45:00,
2013-03-02 18:46:00,34.5,27.5,29.71,North,357,0.0,3.4,75,0.00,,,0.00,VWS V14.01,2013-03-02 23:46:00,
2013-03-02 18:47:00,34.5,27.4,29.71,NW,308,0.0,6.9,75,0.00,,---,0.00,VWS V14.01,2013-03-02 23:47:00,
2013-03-02 18:48:00,34.4,27.2,29.71,NNW,343,6.0,9.6,75,0.00,,,0.00,VWS V14.01,2013-03-02 23:48:00,
2013-03-02 18:49:00,34.5,27.4,29.71,NW,308,0.0,6.9,75,0.00,,,0.00,VWS V14.01,2013-03-02 23:49:00,
2013-03-02 18:50:00,34.6,27.5,29.71,NW,308,0.0,0.0,75,0.00,,,0.00,VWS V14.01,2013-03-02 23:50:00,
2013-03-02 18:51:00,34.5,27.6,29.71,NW,308,0.0,0.0,76,0.00,,,0.00,VWS V14.01,2013-03-02 23:51:00,
2013-03-02 18:52:00,34.5,27.7,29.71,WNW,298,1.4,4.8,76,0.00,,---,0.00,VWS V14.01,2013-03-02 23:52:00,
2013-03-02 18:53:00,34.5,27.8,29.71,WNW,298,0.0,4.3,76,0.00,,,0.00,VWS V14.01,2013-03-02 23:53:00,
2013-03-02 18:54:00,34.5,27.7,29.71,WNW,298,1.4,4.8,76,0.00,,,0.00,VWS V14.01,2013-03-02 23:54:00,
2013-03-02 18:55:00,34.5,27.6,29.71,WNW,288,0.0,6.5,76,0.00,,,0.00,VWS V14.01,2013-03-02 23:55:00,
2013-03-02 18:56:00,34.6,27.7,29.71,WNW,288,0.0,0.0,76,0.00,,,0.00,VWS V14.01,2013-03-02 23:56:00,
2013-03-02 18:57:00,34.5,27.5,29.71,North,1,0.0,7.8,75,0.00,,---,0.00,VWS V14.01,2013-03-02 23:57:00,
2013-03-02 18:58:00,34.6,27.5,29.71,NNW,336,6.5,11.7,75,0.00,,,0.00,VWS V14.01,2013-03-02 23:58:00,
2013-03-02 18:59:00,34.5,27.5,29.71,North,1,0.0,7.8,75,0.00,,,0.00,VWS V14.01,2013-03-02 23:59:00,
2013-03-02 19:00:00,34.4,27.4,29.71,North,7,5.7,8.0,75,0.00,,,0.00,VWS V14.01,2013-03-03 00:00:00,
2013-03-02 19:01:00,34.3,27.3,29.71,NNW,335,6.3,7.1,75,0.00,,,0.00,VWS V14.01,2013-03-03 00:01:00,
2013-03-02 19:02:00,34.3,27.5,29.71,NNW,338,0.0,5.2,76,0.00,,---,0.00,VWS V14.01,2013-03-03 00:02:00,
2013-03-02 19:03:00,34.3,27.5,29.71,NNW,330,3.5,8.2,76,0.00,,,0.00,VWS V14.01,2013-03-03 00:03:00,
2013-03-02 19:04:00,34.3,27.5,29.72,NNW,338,0.0,5.2,76,0.00,,,0.00,VWS V14.01,2013-03-03 00:04:00,
2013-03-02 19:05:00,34.3,27.6,29.71,NNW,338,0.0,0.0,76,0.00,,,0.00,VWS V14.01,2013-03-03 00:05:00,
2013-03-02 19:06:00,34.3,27.4,29.71,NW,318,4.3,6.2,76,0.00,,,0.00,VWS V14.01,2013-03-03 00:06:00,
2013-03-02 19:07:00,34.3,27.6,29.71,NE,35,7.3,10.7,76,0.00,,---,0.00,VWS V14.01,2013-03-03 00:07:00,
2013-03-02 19:08:00,34.3,27.4,29.71,NW,305,4.7,7.8,76,0.00,,,0.00,VWS V14.01,2013-03-03 00:08:00,
2013-03-02 19:09:00,34.3,27.6,29.71,NE,35,7.3,10.8,76,0.00,,,0.00,VWS V14.01,2013-03-03 00:09:00,
2013-03-02 19:10:00,34.3,27.3,29.71,NNW,342,6.3,8.5,75,0.00,,,0.00,VWS V14.01,2013-03-03 00:10:00,
2013-03-02 19:11:00,34.1,27.2,29.71,WNW,300,7.0,9.9,76,0.00,,,0.00,VWS V14.01,2013-03-03 00:11:00,
2013-03-02 19:12:00,33.9,27.3,29.71,WNW,295,0.0,8.0,76,0.00,,---,0.00,VWS V14.01,2013-03-03 00:12:00,
2013-03-02 19:13:00,34.0,27.2,29.71,NW,322,7.1,10.4,76,0.00,,,0.00,VWS V14.01,2013-03-03 00:13:00,
2013-03-02 19:14:00,33.9,27.3,29.71,WNW,295,0.0,8.0,76,0.00,,,0.00,VWS V14.01,2013-03-03 00:14:00,
2013-03-02 19:15:00,34.0,27.3,29.71,WNW,295,0.0,2.5,76,0.00,,,0.00,VWS V14.01,2013-03-03 00:15:00,
2013-03-02 19:16:00,34.0,27.4,29.71,WNW,295,0.0,0.0,77,0.00,,,0.00,VWS V14.01,2013-03-03 00:16:00,
2013-03-02 19:17:00,34.1,27.6,29.71,North,350,0.0,4.4,77,0.00,,---,0.00,VWS V14.01,2013-03-03 00:17:00,
2013-03-02 19:18:00,34.0,27.8,29.71,North,359,3.2,6.6,78,0.00,,,0.00,VWS V14.01,2013-03-03 00:18:00,
2013-03-02 19:19:00,34.1,27.6,29.71,North,350,0.0,4.4,77,0.00,,,0.00,VWS V14.01,2013-03-03 00:19:00,
2013-03-02 19:20:00,34.0,27.7,29.71,North,350,0.0,0.0,77,0.00,,,0.00,VWS V14.01,2013-03-03 00:20:00,
2013-03-02 19:21:00,33.9,27.3,29.71,NE,44,6.1,9.2,77,0.00,,,0.00,VWS V14.01,2013-03-03 00:21:00,
2013-03-02 19:22:00,33.8,27.4,29.71,North,359,6.5,8.7,77,0.00,,---,0.00,VWS V14.01,2013-03-03 00:22:00,
2013-03-02 19:23:00,33.8,27.3,29.71,NNW,328,6.5,6.8,77,0.00,,,0.00,VWS V14.01,2013-03-03 00:23:00,
2013-03-02 19:24:00,33.8,27.4,29.71,North,359,6.5,8.7,77,0.00,,,0.00,VWS V14.01,2013-03-03 00:24:00,
2013-03-02 19:25:00,33.8,27.3,29.71,NNW,329,4.7,8.7,77,0.00,,,0.00,VWS V14.01,2013-03-03 00:25:00,
2013-03-02 19:26:00,33.8,27.4,29.71,North,10,5.9,6.7,77,0.00,,,0.00,VWS V14.01,2013-03-03 00:26:00,
2013-03-02 19:27:00,33.8,27.5,29.71,NE,34,5.2,8.3,78,0.00,,---,0.00,VWS V14.01,2013-03-03 00:27:00,
2013-03-02 19:28:00,33.8,27.3,29.71,North,359,3.5,10.1,77,0.00,,,0.00,VWS V14.01,2013-03-03 00:28:00,
2013-03-02 19:29:00,33.8,27.5,29.71,NE,34,5.2,8.3,78,0.00,,,0.00,VWS V14.01,2013-03-03 00:29:00,
2013-03-02 19:30:00,33.8,27.5,29.71,NE,34,0.0,5.2,77,0.00,,,0.00,VWS V14.01,2013-03-03 00:30:00,
2013-03-02 19:31:00,33.8,27.5,29.71,North,354,7.6,7.6,77,0.00,,,0.00,VWS V14.01,2013-03-03 00:31:00,
2013-03-02 19:32:00,33.9,27.8,29.71,NW,314,0.0,0.0,78,0.00,,---,0.00,VWS V14.01,2013-03-03 00:32:00,
2013-03-02 19:33:00,33.9,27.6,29.71,NW,314,0.0,0.0,78,0.00,,,0.00,VWS V14.01,2013-03-03 00:33:00,
2013-03-02 19:34:00,33.9,27.8,29.71,NW,314,0.0,0.0,78,0.00,,,0.00,VWS V14.01,2013-03-03 00:34:00,
2013-03-02 19:35:00,33.9,27.8,29.71,NW,314,0.0,0.0,78,0.00,,,0.00,VWS V14.01,2013-03-03 00:35:00,
2013-03-02 19:36:00,33.9,27.7,29.71,NNE,13,3.4,6.7,78,0.00,,,0.00,VWS V14.01,2013-03-03 00:36:00,
2013-03-02 19:37:00,33.9,27.7,29.71,NW,318,4.5,5.4,78,0.00,,---,0.00,VWS V14.01,2013-03-03 00:37:00,
2013-03-02 19:38:00,34.0,27.8,29.71,NW,319,0.0,0.0,78,0.00,,,0.00,VWS V14.01,2013-03-03 00:38:00,
2013-03-02 19:39:00,33.9,27.7,29.71,NW,318,4.5,5.4,78,0.00,,,0.00,VWS V14.01,2013-03-03 00:39:00,
2013-03-02 19:40:00,34.0,27.8,29.71,West,280,0.0,4.5,78,0.00,,,0.00,VWS V14.01,2013-03-03 00:40:00,
2013-03-02 19:41:00,34.0,27.7,29.71,West,280,0.0,0.0,78,0.00,,,0.00,VWS V14.01,2013-03-03 00:41:00,
2013-03-02 19:42:00,33.9,27.6,29.71,WNW,290,3.2,5.7,77,0.00,,---,0.00,VWS V14.01,2013-03-03 00:42:00,
2013-03-02 19:43:00,34.1,27.8,29.71,West,280,0.0,0.0,78,0.00,,,0.00,VWS V14.01,2013-03-03 00:43:00,
2013-03-02 19:44:00,33.9,27.6,29.71,WNW,290,3.2,5.7,77,0.00,,,0.00,VWS V14.01,2013-03-03 00:44:00,
2013-03-02 19:45:00,33.9,27.7,29.71,WNW,290,0.0,3.2,78,0.00,,,0.00,VWS V14.01,2013-03-03 00:45:00,
2013-03-02 19:46:00,33.9,27.7,29.71,WNW,290,0.0,0.0,78,0.00,,,0.00,VWS V14.01,2013-03-03 00:46:00,
2013-03-02 19:47:00,33.9,27.8,29.71,North,4,0.0,6.3,78,0.00,,---,0.00,VWS V14.01,2013-03-03 00:47:00,
2013-03-02 19:48:00,34.0,28.0,29.71,North,1,4.6,4.6,78,0.00,,,0.00,VWS V14.01,2013-03-03 00:48:00,
2013-03-02 19:49:00,33.9,27.8,29.71,North,4,0.0,6.3,78,0.00,,,0.00,VWS V14.01,2013-03-03 00:49:00,
2013-03-02 19:50:00,33.9,27.8,29.71,NW,312,6.5,6.6,78,0.00,,,0.00,VWS V14.01,2013-03-03 00:50:00,
2013-03-02 19:51:00,33.8,27.8,29.71,NW,325,0.0,6.5,78,0.00,,,0.00,VWS V14.01,2013-03-03 00:51:00,
2013-03-02 19:52:00,33.6,27.6,29.71,North,8,4.7,7.3,78,0.00,,---,0.00,VWS V14.01,2013-03-03 00:52:00,
2013-03-02 19:53:00,33.7,27.7,29.71,NNE,27,6.5,9.6,78,0.00,,,0.00,VWS V14.01,2013-03-03 00:53:00,
2013-03-02 19:54:00,33.6,27.6,29.71,North,8,4.7,7.3,78,0.00,,,0.00,VWS V14.01,2013-03-03 00:54:00,
2013-03-02 19:55:00,33.7,27.8,29.71,North,1,0.0,4.7,79,0.00,,,0.00,VWS V14.01,2013-03-03 00:55:00,
2013-03-02 19:56:00,33.6,27.7,29.71,NNW,339,5.6,7.6,79,0.00,,,0.00,VWS V14.01,2013-03-03 00:56:00,
2013-03-02 19:57:00,33.4,27.6,29.71,North,359,3.2,8.7,79,0.00,,---,0.00,VWS V14.01,2013-03-03 00:57:00,
2013-03-02 19:58:00,33.6,27.8,29.71,NNW,342,5.8,6.6,79,0.00,,,0.00,VWS V14.01,2013-03-03 00:58:00,
2013-03-02 19:59:00,33.4,27.6,29.71,North,359,3.2,8.7,79,0.00,,,0.00,VWS V14.01,2013-03-03 00:59:00,
2013-03-02 20:00:00,33.5,27.8,29.71,North,359,4.9,8.6,79,0.00,,,0.00,VWS V14.01,2013-03-03 01:00:00,
2013-03-02 20:01:00,33.5,27.9,29.71,NNE,13,1.7,4.9,80,0.00,,,0.00,VWS V14.01,2013-03-03 01:01:00,
2013-03-02 20:02:00,33.5,28.0,29.71,NNE,13,0.0,0.0,80,0.00,,---,0.00,VWS V14.01,2013-03-03 01:02:00,
2013-03-02 20:03:00,33.5,28.0,29.72,NNE,13,0.0,0.0,80,0.00,,,0.00,VWS V14.01,2013-03-03 01:03:00,
2013-03-02 20:04:00,33.5,28.0,29.72,NNE,13,0.0,0.0,80,0.00,,,0.00,VWS V14.01,2013-03-03 01:04:00,
2013-03-02 20:05:00,33.5,28.1,29.72,NNE,13,0.0,0.0,80,0.00,,,0.00,VWS V14.01,2013-03-03 01:05:00,
2013-03-02 20:06:00,33.6,28.2,29.71,NNE,13,0.0,0.0,80,0.00,,,0.00,VWS V14.01,2013-03-03 01:06:00,
2013-03-02 20:07:00,33.7,28.4,29.71,NNE,13,0.0,0.0,81,0.00,,---,0.00,VWS V14.01,2013-03-03 01:07:00,
2013-03-02 20:08:00,33.6,28.3,29.72,NNE,13,0.0,0.0,81,0.00,,,0.00,VWS V14.01,2013-03-03 01:08:00,
2013-03-02 20:09:00,33.7,28.4,29.72,NNE,13,0.0,0.0,81,0.00,,,0.00,VWS V14.01,2013-03-03 01:09:00,
2013-03-02 20:10:00,33.6,28.2,29.72,NNE,13,0.0,0.0,80,0.00,,,0.00,VWS V14.01,2013-03-03 01:10:00,
2013-03-02 20:11:00,33.6,28.1,29.72,NNE,13,0.0,0.0,80,0.00,,,0.00,VWS V14.01,2013-03-03 01:11:00,
2013-03-02 20:12:00,33.6,28.4,29.71,NNW,345,7.8,7.8,81,0.00,,---,0.00,VWS V14.01,2013-03-03 01:12:00,
2013-03-02 20:13:00,33.7,28.5,29.72,NNE,13,0.0,0.0,81,0.00,,,0.00,VWS V14.01,2013-03-03 01:13:00,
2013-03-02 20:14:00,33.6,28.4,29.72,NNW,345,7.8,7.8,81,0.00,,,0.00,VWS V14.01,2013-03-03 01:14:00,
2013-03-02 20:15:00,33.5,28.4,29.72,NNE,15,5.5,8.6,81,0.00,,,0.00,VWS V14.01,2013-03-03 01:15:00,
2013-03-02 20:16:00,33.5,28.4,29.72,WSW,246,3.1,5.5,81,0.00,,,0.00,VWS V14.01,2013-03-03 01:16:00,
2013-03-02 20:17:00,33.3,28.5,29.71,NW,314,0.0,0.0,82,0.00,,---,0.00,VWS V14.01,2013-03-03 01:17:00,
2013-03-02 20:18:00,33.4,28.5,29.72,NW,314,0.0,6.1,82,0.00,,,0.00,VWS V14.01,2013-03-03 01:18:00,
2013-03-02 20:19:00,33.3,28.5,29.72,NW,314,0.0,0.0,82,0.00,,,0.00,VWS V14.01,2013-03-03 01:19:00,
2013-03-02 20:20:00,33.2,28.6,29.72,North,350,6.5,7.0,83,0.00,,,0.00,VWS V14.01,2013-03-03 01:20:00,
2013-03-02 20:21:00,33.1,28.5,29.72,NNE,32,4.2,8.7,83,0.00,,,0.00,VWS V14.01,2013-03-03 01:21:00,
2013-03-02 20:22:00,32.9,28.6,29.72,NNE,25,0.0,5.8,84,0.00,,---,0.00,VWS V14.01,2013-03-03 01:22:00,
2013-03-02 20:23:00,32.9,28.6,29.72,North,3,5.2,6.2,84,0.00,,,0.00,VWS V14.01,2013-03-03 01:23:00,
2013-03-02 20:24:00,32.9,28.6,29.72,NNE,25,0.0,5.8,84,0.00,,,0.00,VWS V14.01,2013-03-03 01:24:00,
2013-03-02 20:25:00,33.0,28.8,29.72,NW,315,3.3,8.3,84,0.00,,,0.00,VWS V14.01,2013-03-03 01:25:00,
2013-03-02 20:26:00,33.0,28.9,29.72,NNW,338,8.2,9.3,85,0.00,,,0.00,VWS V14.01,2013-03-03 01:26:00,
2013-03-02 20:27:00,32.6,28.6,29.72,NNE,22,3.4,7.2,85,0.00,,---,0.00,VWS V14.01,2013-03-03 01:27:00,
2013-03-02 20:28:00,32.6,28.5,29.72,NNW,345,7.2,7.3,85,0.00,,,0.00,VWS V14.01,2013-03-03 01:28:00,
2013-03-02 20:29:00,32.6,28.6,29.72,NNE,22,3.4,7.2,85,0.00,,,0.00,VWS V14.01,2013-03-03 01:29:00,
2013-03-02 20:30:00,32.7,28.8,29.72,North,6,6.4,6.5,85,0.00,,,0.00,VWS V14.01,2013-03-03 01:30:00,
2013-03-02 20:31:00,32.6,28.7,29.72,NW,326,4.8,7.6,86,0.00,,,0.00,VWS V14.01,2013-03-03 01:31:00,
2013-03-02 20:32:00,32.4,28.6,29.72,NW,316,0.0,7.2,86,0.00,,---,0.00,VWS V14.01,2013-03-03 01:32:00,
2013-03-02 20:33:00,32.5,28.7,29.72,North,356,7.2,8.2,86,0.00,,,0.00,VWS V14.01,2013-03-03 01:33:00,
2013-03-02 20:34:00,32.4,28.6,29.72,NW,316,0.0,7.2,86,0.00,,,0.00,VWS V14.01,2013-03-03 01:34:00,
2013-03-02 20:35:00,32.5,28.7,29.72,NW,316,0.0,3.1,86,0.00,,,0.00,VWS V14.01,2013-03-03 01:35:00,
2013-03-02 20:36:00,32.6,28.8,29.72,NW,316,0.0,0.0,86,0.00,,,0.00,VWS V14.01,2013-03-03 01:36:00,
2013-03-02 20:37:00,32.4,28.7,29.72,NNE,15,0.0,7.8,86,0.00,,---,0.00,VWS V14.01,2013-03-03 01:37:00,
2013-03-02 20:38:00,32.4,28.7,29.72,North,352,7.4,9.4,86,0.00,,,0.00,VWS V14.01,2013-03-03 01:38:00,
2013-03-02 20:39:00,32.4,28.7,29.72,NNE,15,0.0,7.8,86,0.00,,,0.00,VWS V14.01,2013-03-03 01:39:00,
2013-03-02 20:40:00,32.5,28.8,29.72,NNW,336,5.8,7.4,86,0.00,,,0.00,VWS V14.01,2013-03-03 01:40:00,
2013-03-02 20:41:00,32.3,28.7,29.72,NNE,21,7.6,9.1,86,0.00,,,0.00,VWS V14.01,2013-03-03 01:41:00,
2013-03-02 20:42:00,32.2,28.7,29.72,North,3,3.4,6.2,87,0.00,,---,0.00,VWS V14.01,2013-03-03 01:42:00,
2013-03-02 20:43:00,32.3,28.7,29.72,NNW,336,4.7,4.8,86,0.00,,,0.00,VWS V14.01,2013-03-03 01:43:00,
2013-03-02 20:44:00,32.2,28.7,29.72,North,3,3.4,6.2,87,0.00,,,0.00,VWS V14.01,2013-03-03 01:44:00,
2013-03-02 20:45:00,32.2,28.6,29.72,North,1,4.4,6.2,86,0.00,,,0.00,VWS V14.01,2013-03-03 01:45:00,
2013-03-02 20:46:00,32.3,28.7,29.72,North,1,0.0,4.4,86,0.00,,,0.00,VWS V14.01,2013-03-03 01:46:00,
2013-03-02 20:47:00,32.4,28.9,29.72,NW,322,0.0,0.0,87,0.00,,---,0.00,VWS V14.01,2013-03-03 01:47:00,
2013-03-02 20:48:00,32.3,28.6,29.72,NW,322,0.0,3.2,86,0.00,,,0.00,VWS V14.01,2013-03-03 01:48:00,
2013-03-02 20:49:00,32.4,28.9,29.72,NW,322,0.0,0.0,87,0.00,,,0.00,VWS V14.01,2013-03-03 01:49:00,
2013-03-02 20:50:00,32.3,28.8,29.72,NNW,343,3.2,5.6,87,0.00,,,0.00,VWS V14.01,2013-03-03 01:50:00,
2013-03-02 20:51:00,32.1,28.4,29.72,NW,323,0.0,6.6,86,0.00,,,0.00,VWS V14.01,2013-03-03 01:51:00,
2013-03-02 20:52:00,32.1,28.5,29.72,NNW,339,5.4,7.5,86,0.00,,---,0.00,VWS V14.01,2013-03-03 01:52:00,
2013-03-02 20:53:00,32.2,28.6,29.72,NNW,328,6.0,7.5,86,0.00,,,0.00,VWS V14.01,2013-03-03 01:53:00,
2013-03-02 20:54:00,32.1,28.5,29.72,NNW,339,5.4,7.5,86,0.00,,,0.00,VWS V14.01,2013-03-03 01:54:00,
2013-03-02 20:55:00,32.1,28.5,29.72,NW,309,0.0,5.7,86,0.00,,,0.00,VWS V14.01,2013-03-03 01:55:00,
2013-03-02 20:56:00,32.1,28.5,29.72,North,359,6.2,9.1,86,0.00,,,0.00,VWS V14.01,2013-03-03 01:56:00,
2013-03-02 20:57:00,32.0,28.6,29.72,NNW,340,6.1,8.1,87,0.00,,---,0.00,VWS V14.01,2013-03-03 01:57:00,
2013-03-02 20:58:00,31.9,28.4,29.72,North,359,6.1,6.1,87,0.00,,,0.00,VWS V14.01,2013-03-03 01:58:00,
2013-03-02 20:59:00,32.0,28.6,29.72,NNW,340,6.1,8.1,87,0.00,,,0.00,VWS V14.01,2013-03-03 01:59:00,
2013-03-02 21:00:00,31.9,28.4,29.72,NNW,340,5.5,6.6,87,0.00,,,0.00,VWS V14.01,2013-03-03 02:00:00,
2013-03-02 21:01:00,31.8,28.4,29.72,NNW,329,0.0,6.1,87,0.00,,,0.00,VWS V14.01,2013-03-03 02:01:00,
2013-03-02 21:02:00,31.8,28.3,29.72,NNW,329,0.0,0.0,87,0.00,,---,0.00,VWS V14.01,2013-03-03 02:02:00,
2013-03-02 21:03:00,31.9,28.4,29.72,NNW,329,0.0,0.0,87,0.00,,,0.00,VWS V14.01,2013-03-03 02:03:00,
2013-03-02 21:04:00,31.8,28.3,29.72,NNW,329,0.0,0.0,87,0.00,,,0.00,VWS V14.01,2013-03-03 02:04:00,
2013-03-02 21:05:00,32.0,28.5,29.72,NNW,329,0.0,0.0,87,0.00,,,0.00,VWS V14.01,2013-03-03 02:05:00,
2013-03-02 21:06:00,32.1,28.7,29.72,North,359,0.0,4.4,87,0.00,,,0.00,VWS V14.01,2013-03-03 02:06:00,
2013-03-02 21:07:00,32.1,28.7,29.72,NW,318,6.9,6.9,87,0.00,,,0.00,VWS V14.01,2013-03-03 02:07:00,
2013-03-02 21:08:00,31.8,28.2,29.72,NW,325,0.0,10.4,86,0.00,,---,0.00,VWS V14.01,2013-03-03 02:08:00,
2013-03-02 21:09:00,31.8,28.2,29.72,North,6,8.5,9.3,86,0.00,,,0.00,VWS V14.01,2013-03-03 02:09:00,
2013-03-02 21:10:00,31.9,28.3,29.72,NW,325,0.0,10.4,86,0.00,,,0.00,VWS V14.01,2013-03-03 02:10:00,
2013-03-02 21:11:00,31.8,28.2,29.72,NW,325,6.1,6.9,86,0.00,,,0.00,VWS V14.01,2013-03-03 02:11:00,
2013-03-02 21:12:00,31.8,28.2,29.72,WNW,290,0.0,6.1,86,0.00,,,0.00,VWS V14.01,2013-03-03 02:12:00,
2013-03-02 21:13:00,31.8,28.3,29.72,NNW,328,0.0,6.0,87,0.00,,---,0.00,VWS V14.01,2013-03-03 02:13:00,
2013-03-02 21:14:00,31.6,28.0,29.72,NE,41,4.2,7.3,86,0.00,,,0.00,VWS V14.01,2013-03-03 02:14:00,
2013-03-02 21:15:00,31.8,28.2,29.72,NNW,328,0.0,6.0,86,0.00,,,0.00,VWS V14.01,2013-03-03 02:15:00,
2013-03-02 21:16:00,31.7,28.1,29.72,North,11,4.2,4.2,86,0.00,,,0.00,VWS V14.01,2013-03-03 02:16:00,
2013-03-02 21:17:00,31.8,28.2,29.72,NNE,21,0.0,4.2,86,0.00,,,0.00,VWS V14.01,2013-03-03 02:17:00,
2013-03-02 21:18:00,31.9,28.2,29.72,NNE,21,0.0,0.0,86,0.00,,---,0.00,VWS V14.01,2013-03-03 02:18:00,
2013-03-02 21:19:00,31.9,28.2,29.72,NNE,21,0.0,0.0,86,0.00,,,0.00,VWS V14.01,2013-03-03 02:19:00,
2013-03-02 21:20:00,31.9,28.2,29.72,NNE,21,0.0,0.0,86,0.00,,,0.00,VWS V14.01,2013-03-03 02:20:00,
2013-03-02 21:21:00,31.8,28.3,29.72,NNE,21,0.0,0.0,87,0.00,,,0.00,VWS V14.01,2013-03-03 02:21:00,
2013-03-02 21:22:00,31.9,28.2,29.72,NNE,21,0.0,0.0,86,0.00,,,0.00,VWS V14.01,2013-03-03 02:22:00,
2013-03-02 21:23:00,31.9,28.1,29.72,NE,53,0.0,4.2,86,0.00,,---,0.00,VWS V14.01,2013-03-03 02:23:00,
2013-03-02 21:24:00,31.8,28.0,29.72,NE,53,4.2,5.1,86,0.00,,,0.00,VWS V14.01,2013-03-03 02:24:00,
2013-03-02 21:25:00,31.9,28.1,29.72,NE,53,0.0,4.2,86,0.00,,,0.00,VWS V14.01,2013-03-03 02:25:00,
2013-03-02 21:26:00,31.8,27.9,29.72,NE,53,0.0,0.0,85,0.00,,,0.00,VWS V14.01,2013-03-03 02:26:00,
2013-03-02 21:27:00,31.7,28.0,29.72,North,354,6.8,6.8,86,0.00,,,0.00,VWS V14.01,2013-03-03 02:27:00,
2013-03-02 21:28:00,31.6,28.0,29.72,NNE,21,3.1,3.1,86,0.00,,---,0.00,VWS V14.01,2013-03-03 02:28:00,
2013-03-02 21:29:00,31.5,27.8,29.72,ENE,58,0.0,8.6,86,0.00,,,0.00,VWS V14.01,2013-03-03 02:29:00,
2013-03-02 21:30:00,31.6,28.0,29.72,NNE,21,3.1,3.1,86,0.00,,,0.00,VWS V14.01,2013-03-03 02:30:00,
2013-03-02 21:31:00,31.5,27.9,29.72,ENE,59,0.0,4.7,86,0.00,,,0.00,VWS V14.01,2013-03-03 02:31:00,
2013-03-02 21:32:00,31.6,28.2,29.72,NE,55,5.3,6.4,87,0.00,,,0.00,VWS V14.01,2013-03-03 02:32:00,
2013-03-02 21:33:00,31.5,27.9,29.72,NW,323,6.0,6.0,86,0.00,,---,0.00,VWS V14.01,2013-03-03 02:33:00,
2013-03-02 21:34:00,31.4,27.7,29.72,North,4,4.3,8.5,86,0.00,,,0.00,VWS V14.01,2013-03-03 02:34:00,
2013-03-02 21:35:00,31.5,27.9,29.72,NW,323,6.0,6.0,86,0.00,,,0.00,VWS V14.01,2013-03-03 02:35:00,
2013-03-02 21:36:00,31.4,27.9,29.72,NNW,329,4.9,8.3,87,0.00,,,0.00,VWS V14.01,2013-03-03 02:36:00,
2013-03-02 21:37:00,31.3,27.8,29.72,North,356,3.5,8.6,87,0.00,,,0.00,VWS V14.01,2013-03-03 02:37:00,
2013-03-02 21:38:00,31.2,27.8,29.72,NNE,22,0.0,5.5,87,0.00,,---,0.00,VWS V14.01,2013-03-03 02:38:00,
2013-03-02 21:39:00,31.3,27.9,29.72,North,11,3.5,5.6,87,0.00,,,0.00,VWS V14.01,2013-03-03 02:39:00,
2013-03-02 21:40:00,31.2,27.8,29.72,NNE,22,0.0,5.5,87,0.00,,,0.00,VWS V14.01,2013-03-03 02:40:00,
2013-03-02 21:41:00,31.1,27.8,29.72,West,277,3.4,7.7,87,0.00,,,0.00,VWS V14.01,2013-03-03 02:41:00,
2013-03-02 21:42:00,31.1,27.9,29.72,NNW,329,7.3,8.1,88,0.00,,,0.00,VWS V14.01,2013-03-03 02:42:00,
2013-03-02 21:43:00,31.0,28.1,29.72,NNW,328,5.7,7.5,89,0.00,,---,0.00,VWS V14.01,2013-03-03 02:43:00,
2013-03-02 21:44:00,31.0,28.0,29.72,NNW,340,5.1,6.9,88,0.00,,,0.00,VWS V14.01,2013-03-03 02:44:00,
2013-03-02 21:45:00,31.0,28.1,29.72,NNW,328,5.7,7.5,89,0.00,,,0.00,VWS V14.01,2013-03-03 02:45:00,
2013-03-02 21:46:00,31.0,28.0,29.72,WNW,290,0.0,11.4,88,0.00,,,0.00,VWS V14.01,2013-03-03 02:46:00,
2013-03-02 21:47:00,31.0,28.0,29.72,NW,325,3.5,6.0,89,0.00,,,0.00,VWS V14.01,2013-03-03 02:47:00,
2013-03-02 21:48:00,31.0,28.2,29.72,NW,322,0.0,0.0,89,0.00,,---,0.00,VWS V14.01,2013-03-03 02:48:00,
2013-03-02 21:49:00,30.9,28.0,29.72,NW,322,0.0,0.0,89,0.00,,,0.00,VWS V14.01,2013-03-03 02:49:00,
2013-03-02 21:50:00,30.9,28.1,29.72,NW,322,0.0,0.0,89,0.00,,,0.00,VWS V14.01,2013-03-03 02:50:00,
2013-03-02 21:51:00,31.0,28.2,29.72,NNW,342,0.0,4.3,89,0.00,,,0.00,VWS V14.01,2013-03-03 02:51:00,
2013-03-02 21:52:00,30.8,27.9,29.72,North,1,7.0,7.5,89,0.00,,,0.00,VWS V14.01,2013-03-03 02:52:00,
2013-03-02 21:53:00,30.7,27.8,29.72,NW,315,6.1,8.5,89,0.00,,---,0.00,VWS V14.01,2013-03-03 02:53:00,
2013-03-02 21:54:00,30.8,28.0,29.72,North,8,5.6,7.0,89,0.00,,,0.00,VWS V14.01,2013-03-03 02:54:00,
2013-03-02 21:55:00,30.7,27.8,29.72,NW,315,6.1,8.5,89,0.00,,,0.00,VWS V14.01,2013-03-03 02:55:00,
2013-03-02 21:56:00,30.5,27.8,29.72,NW,319,6.3,8.0,89,0.00,,,0.00,VWS V14.01,2013-03-03 02:56:00,
2013-03-02 21:57:00,30.6,27.9,29.72,North,359,0.0,6.3,90,0.00,,,0.00,VWS V14.01,2013-03-03 02:57:00,
2013-03-02 21:58:00,30.7,28.1,29.72,NNW,328,8.9,8.9,90,0.00,,---,0.00,VWS V14.01,2013-03-03 02:58:00,
2013-03-02 21:59:00,30.7,28.1,29.72,NW,308,0.0,2.9,90,0.00,,,0.00,VWS V14.01,2013-03-03 02:59:00,
2013-03-02 22:00:00,30.7,28.1,29.72,NNW,328,8.9,8.9,90,0.00,,,0.00,VWS V14.01,2013-03-03 03:00:00,
2013-03-02 22:01:00,30.4,27.8,29.72,NW,323,5.7,9.0,90,0.00,,,0.00,VWS V14.01,2013-03-03 03:01:00,
2013-03-02 22:02:00,30.6,28.0,29.72,NE,38,5.0,7.6,90,0.00,,,0.00,VWS V14.01,2013-03-03 03:02:00,
2013-03-02 22:03:00,30.2,27.7,29.72,NNE,32,6.2,11.0,90,0.00,,---,0.00,VWS V14.01,2013-03-03 03:03:00,
2013-03-02 22:04:00,30.4,27.9,29.72,NW,323,7.5,9.6,90,0.00,,,0.00,VWS V14.01,2013-03-03 03:04:00,
2013-03-02 22:05:00,30.2,27.7,29.72,NNE,32,6.2,11.0,90,0.00,,,0.00,VWS V14.01,2013-03-03 03:05:00,
2013-03-02 22:06:00,30.1,27.6,29.72,NNW,339,5.6,10.4,90,0.00,,,0.00,VWS V14.01,2013-03-03 03:06:00,
2013-03-02 22:07:00,30.1,27.7,29.72,North,0,4.3,8.4,90,0.00,,,0.00,VWS V14.01,2013-03-03 03:07:00,
2013-03-02 22:08:00,30.1,27.8,29.72,North,359,5.8,8.5,91,0.00,,---,0.00,VWS V14.01,2013-03-03 03:08:00,
2013-03-02 22:09:00,30.1,27.8,29.72,NNW,343,6.9,8.5,91,0.00,,,0.00,VWS V14.01,2013-03-03 03:09:00,
2013-03-02 22:10:00,30.1,27.8,29.72,North,359,5.8,8.5,91,0.00,,,0.00,VWS V14.01,2013-03-03 03:10:00,
2013-03-02 22:11:00,30.0,27.8,29.72,NNE,32,4.3,6.8,91,0.00,,,0.00,VWS V14.01,2013-03-03 03:11:00,
2013-03-02 22:12:00,30.0,27.8,29.72,NNE,28,0.0,4.3,91,0.00,,,0.00,VWS V14.01,2013-03-03 03:12:00,
2013-03-02 22:13:00,30.3,28.0,29.71,West,280,0.0,0.0,91,0.00,,---,0.00,VWS V14.01,2013-03-03 03:13:00,
2013-03-02 22:14:00,30.1,27.8,29.72,West,280,0.0,0.0,91,0.00,,,0.00,VWS V14.01,2013-03-03 03:14:00,
2013-03-02 22:15:00,30.3,28.0,29.72,West,280,0.0,0.0,91,0.00,,,0.00,VWS V14.01,2013-03-03 03:15:00,
2013-03-02 22:16:00,30.4,28.1,29.72,West,280,0.0,0.0,91,0.00,,,0.00,VWS V14.01,2013-03-03 03:16:00,
2013-03-02 22:17:00,30.4,28.0,29.72,West,280,0.0,0.0,91,0.00,,,0.00,VWS V14.01,2013-03-03 03:17:00,
2013-03-02 22:18:00,30.4,28.1,29.71,West,280,0.0,0.0,91,0.00,,---,0.00,VWS V14.01,2013-03-03 03:18:00,
2013-03-02 22:19:00,30.3,28.0,29.72,West,280,0.0,0.0,91,0.00,,,0.00,VWS V14.01,2013-03-03 03:19:00,
2013-03-02 22:20:00,30.4,28.1,29.72,West,280,0.0,0.0,91,0.00,,,0.00,VWS V14.01,2013-03-03 03:20:00,
2013-03-02 22:21:00,30.6,28.3,29.72,West,280,0.0,0.0,91,0.00,,,0.00,VWS V14.01,2013-03-03 03:21:00,
2013-03-02 22:22:00,30.6,28.3,29.72,West,280,0.0,0.0,91,0.00,,,0.00,VWS V14.01,2013-03-03 03:22:00,
2013-03-02 22:23:00,30.4,28.1,29.71,NNW,339,0.0,0.0,91,0.00,,---,0.00,VWS V14.01,2013-03-03 03:23:00,
2013-03-02 22:24:00,30.5,28.2,29.72,NNW,339,0.0,5.2,91,0.00,,,0.00,VWS V14.01,2013-03-03 03:24:00,
2013-03-02 22:25:00,30.4,28.1,29.72,NNW,339,0.0,0.0,91,0.00,,,0.00,VWS V14.01,2013-03-03 03:25:00,
2013-03-02 22:26:00,30.5,28.2,29.72,NNW,339,0.0,0.0,91,0.00,,,0.00,VWS V14.01,2013-03-03 03:26:00,
2013-03-02 22:27:00,30.6,28.3,29.71,West,280,0.0,4.4,91,0.00,,,0.00,VWS V14.01,2013-03-03 03:27:00,
2013-03-02 22:28:00,30.5,28.3,29.71,West,280,0.0,2.7,91,0.00,,---,0.00,VWS V14.01,2013-03-03 03:28:00,
2013-03-02 22:29:00,30.5,28.3,29.72,West,280,0.0,3.3,91,0.00,,,0.00,VWS V14.01,2013-03-03 03:29:00,
2013-03-02 22:30:00,30.5,28.3,29.72,West,280,0.0,2.7,91,0.00,,,0.00,VWS V14.01,2013-03-03 03:30:00,
2013-03-02 22:31:00,30.6,28.3,29.71,NW,307,3.5,4.2,91,0.00,,,0.00,VWS V14.01,2013-03-03 03:31:00,
2013-03-02 22:32:00,30.6,28.3,29.72,NNW,332,0.0,4.8,91,0.00,,,0.00,VWS V14.01,2013-03-03 03:32:00,
2013-03-02 22:33:00,30.5,28.3,29.71,WNW,298,0.0,0.0,91,0.00,,---,0.00,VWS V14.01,2013-03-03 03:33:00,
2013-03-02 22:34:00,30.6,28.3,29.71,WNW,298,0.0,4.8,91,0.00,,,0.00,VWS V14.01,2013-03-03 03:34:00,
2013-03-02 22:35:00,30.5,28.3,29.72,WNW,298,0.0,0.0,91,0.00,,,0.00,VWS V14.01,2013-03-03 03:35:00,
2013-03-02 22:36:00,30.5,28.4,29.72,NW,318,3.3,3.3,92,0.00,,,0.00,VWS V14.01,2013-03-03 03:36:00,
2013-03-02 22:37:00,30.4,28.2,29.71,NNW,335,3.2,6.5,92,0.00,,,0.00,VWS V14.01,2013-03-03 03:37:00,
2013-03-02 22:38:00,30.5,28.4,29.71,NW,314,0.0,2.8,92,0.00,,---,0.00,VWS V14.01,2013-03-03 03:38:00,
2013-03-02 22:39:00,30.5,28.3,29.72,NW,304,0.0,0.0,92,0.00,,,0.00,VWS V14.01,2013-03-03 03:39:00,
2013-03-02 22:40:00,30.5,28.4,29.71,NW,314,0.0,2.8,92,0.00,,,0.00,VWS V14.01,2013-03-03 03:40:00,
2013-03-02 22:41:00,30.4,28.4,29.71,NW,314,0.0,0.0,92,0.00,,,0.00,VWS V14.01,2013-03-03 03:41:00,
2013-03-02 22:42:00,30.4,28.4,29.72,NW,314,0.0,0.0,92,0.00,,,0.00,VWS V14.01,2013-03-03 03:42:00,
2013-03-02 22:43:00,30.4,28.4,29.71,NNE,18,0.0,0.0,92,0.00,,---,0.00,VWS V14.01,2013-03-03 03:43:00,
2013-03-02 22:44:00,30.5,28.6,29.71,NNE,18,0.0,5.2,93,0.00,,,0.00,VWS V14.01,2013-03-03 03:44:00,
2013-03-02 22:45:00,30.4,28.4,29.71,NNE,18,0.0,0.0,92,0.00,,,0.00,VWS V14.01,2013-03-03 03:45:00,
2013-03-02 22:46:00,30.3,28.3,29.71,North,10,6.8,7.4,92,0.00,,,0.00,VWS V14.01,2013-03-03 03:46:00,
2013-03-02 22:47:00,30.1,28.1,29.71,NNW,335,5.3,6.8,92,0.00,,,0.00,VWS V14.01,2013-03-03 03:47:00,
2013-03-02 22:48:00,29.9,28.0,29.71,NW,312,3.0,7.4,93,0.00,,---,0.00,VWS V14.01,2013-03-03 03:48:00,
2013-03-02 22:49:00,30.0,28.1,29.71,NNW,338,5.8,5.8,92,0.00,,,0.00,VWS V14.01,2013-03-03 03:49:00,
2013-03-02 22:50:00,29.9,28.0,29.71,NW,312,3.0,7.4,93,0.00,,,0.00,VWS V14.01,2013-03-03 03:50:00,
2013-03-02 22:51:00,29.9,28.0,29.71,NW,312,0.0,3.0,93,0.00,,,0.00,VWS V14.01,2013-03-03 03:51:00,
2013-03-02 22:52:00,29.8,28.0,29.71,NW,312,0.0,0.0,93,0.00,,,0.00,VWS V14.01,2013-03-03 03:52:00,
2013-03-02 22:53:00,29.8,28.0,29.71,NNW,345,0.0,6.3,93,0.00,,---,0.00,VWS V14.01,2013-03-03 03:53:00,
2013-03-02 22:54:00,29.9,28.1,29.71,NW,312,0.0,0.0,93,0.00,,,0.00,VWS V14.01,2013-03-03 03:54:00,
2013-03-02 22:55:00,29.8,28.0,29.72,NNW,345,0.0,6.3,93,0.00,,,0.00,VWS V14.01,2013-03-03 03:55:00,
2013-03-02 22:56:00,29.8,28.0,29.71,North,4,6.4,6.8,93,0.00,,,0.00,VWS V14.01,2013-03-03 03:56:00,
2013-03-02 22:57:00,29.6,27.7,29.71,NNW,333,5.0,7.6,93,0.00,,,0.00,VWS V14.01,2013-03-03 03:57:00,
2013-03-02 22:58:00,29.7,27.9,29.71,West,260,0.0,5.2,93,0.00,,---,0.00,VWS V14.01,2013-03-03 03:58:00,
2013-03-02 22:59:00,29.7,27.9,29.71,NW,308,3.5,5.6,93,0.00,,,0.00,VWS V14.01,2013-03-03 03:59:00,
2013-03-02 23:00:00,29.7,27.9,29.71,West,260,0.0,5.2,93,0.00,,,0.00,VWS V14.01,2013-03-03 04:00:00,
2013-03-02 23:01:00,29.6,27.8,29.71,NW,304,0.0,7.0,93,0.00,,,0.00,VWS V14.01,2013-03-03 04:01:00,
2013-03-02 23:02:00,29.6,27.8,29.71,NW,304,0.0,0.0,93,0.00,,,0.00,VWS V14.01,2013-03-03 04:02:00,
2013-03-02 23:03:00,29.7,28.0,29.71,NW,304,0.0,0.0,93,0.00,,---,0.00,VWS V14.01,2013-03-03 04:03:00,
2013-03-02 23:04:00,29.8,28.1,29.71,NW,304,0.0,0.0,93,0.00,,,0.00,VWS V14.01,2013-03-03 04:04:00,
2013-03-02 23:05:00,29.7,28.0,29.71,NW,304,0.0,0.0,93,0.00,,,0.00,VWS V14.01,2013-03-03 04:05:00,
2013-03-02 23:06:00,29.7,28.0,29.71,NW,304,0.0,0.0,93,0.00,,,0.00,VWS V14.01,2013-03-03 04:06:00,
2013-03-02 23:07:00,29.7,28.0,29.71,NW,318,3.0,6.6,93,0.00,,,0.00,VWS V14.01,2013-03-03 04:07:00,
2013-03-02 23:08:00,29.5,27.8,29.71,NNW,330,7.5,7.6,93,0.00,,---,0.00,VWS V14.01,2013-03-03 04:08:00,
2013-03-02 23:09:00,29.5,27.7,29.71,WNW,297,0.0,6.8,93,0.00,,,0.00,VWS V14.01,2013-03-03 04:09:00,
2013-03-02 23:10:00,29.5,27.8,29.71,NNW,330,7.5,7.6,93,0.00,,,0.00,VWS V14.01,2013-03-03 04:10:00,
2013-03-02 23:11:00,29.4,27.6,29.71,NNW,339,0.0,7.5,93,0.00,,,0.00,VWS V14.01,2013-03-03 04:11:00,
2013-03-02 23:12:00,29.5,27.8,29.71,NNW,332,5.2,7.3,93,0.00,,,0.00,VWS V14.01,2013-03-03 04:12:00,
2013-03-02 23:13:00,29.3,27.5,29.71,North,0,6.8,11.8,93,0.00,,---,0.00,VWS V14.01,2013-03-03 04:13:00,
2013-03-02 23:14:00,29.4,27.7,29.71,WNW,300,3.4,7.0,93,0.00,,,0.00,VWS V14.01,2013-03-03 04:14:00,
2013-03-02 23:15:00,29.3,27.5,29.71,North,0,6.8,11.8,93,0.00,,,0.00,VWS V14.01,2013-03-03 04:15:00,
2013-03-02 23:16:00,29.1,27.3,29.71,NNW,338,3.4,10.1,93,0.00,,,0.00,VWS V14.01,2013-03-03 04:16:00,
2013-03-02 23:17:00,29.1,27.4,29.71,North,353,9.9,9.9,93,0.00,,,0.00,VWS V14.01,2013-03-03 04:17:00,
2013-03-02 23:18:00,28.9,27.4,29.71,NW,312,4.9,9.1,94,0.00,,---,0.00,VWS V14.01,2013-03-03 04:18:00,
2013-03-02 23:19:00,28.8,27.2,29.71,NNW,340,8.4,10.4,94,0.00,,,0.00,VWS V14.01,2013-03-03 04:19:00,
2013-03-02 23:20:00,28.9,27.4,29.71,NW,312,4.9,9.1,94,0.00,,,0.00,VWS V14.01,2013-03-03 04:20:00,
2013-03-02 23:21:00,28.9,27.4,29.71,NW,311,8.0,9.5,94,0.00,,,0.00,VWS V14.01,2013-03-03 04:21:00,
2013-03-02 23:22:00,28.7,27.2,29.71,NNE,21,3.4,8.1,94,0.00,,,0.00,VWS V14.01,2013-03-03 04:22:00,
2013-03-02 23:23:00,28.9,27.5,29.71,NW,322,8.5,8.5,94,0.00,,---,0.00,VWS V14.01,2013-03-03 04:23:00,
2013-03-02 23:24:00,29.0,27.5,29.71,North,8,0.0,0.0,94,0.00,,,0.00,VWS V14.01,2013-03-03 04:24:00,
2013-03-02 23:25:00,28.9,27.5,29.71,NW,322,8.5,8.5,94,0.00,,,0.00,VWS V14.01,2013-03-03 04:25:00,
2013-03-02 23:26:00,28.9,27.4,29.71,North,8,3.1,8.5,94,0.00,,,0.00,VWS V14.01,2013-03-03 04:26:00,
2013-03-02 23:27:00,29.2,27.7,29.71,NW,319,0.0,3.1,94,0.00,,,0.00,VWS V14.01,2013-03-03 04:27:00,
2013-03-02 23:28:00,29.2,27.7,29.71,North,359,3.3,7.3,94,0.00,,---,0.00,VWS V14.01,2013-03-03 04:28:00,
2013-03-02 23:29:00,29.1,27.6,29.71,NNW,342,5.3,5.5,94,0.00,,,0.00,VWS V14.01,2013-03-03 04:29:00,
2013-03-02 23:30:00,29.2,27.7,29.71,North,359,3.3,7.3,94,0.00,,,0.00,VWS V14.01,2013-03-03 04:30:00,
2013-03-02 23:31:00,29.2,27.7,29.71,NNW,347,4.9,6.2,94,0.00,,,0.00,VWS V14.01,2013-03-03 04:31:00,
2013-03-02 23:32:00,29.1,27.5,29.71,NNW,347,0.0,6.0,94,0.00,,,0.00,VWS V14.01,2013-03-03 04:32:00,
2013-03-02 23:33:00,29.1,27.6,29.71,WNW,291,5.3,6.9,94,0.00,,---,0.00,VWS V14.01,2013-03-03 04:33:00,
2013-03-02 23:34:00,29.1,27.5,29.71,NE,42,5.3,6.3,94,0.00,,,0.00,VWS V14.01,2013-03-03 04:34:00,
2013-03-02 23:35:00,29.1,27.6,29.71,WNW,291,5.3,6.9,94,0.00,,,0.00,VWS V14.01,2013-03-03 04:35:00,
2013-03-02 23:36:00,29.3,27.8,29.71,WNW,290,0.0,5.3,94,0.00,,,0.00,VWS V14.01,2013-03-03 04:36:00,
2013-03-02 23:37:00,29.3,27.8,29.71,NNW,330,7.1,7.3,94,0.00,,,0.00,VWS V14.01,2013-03-03 04:37:00,
2013-03-02 23:38:00,29.1,27.6,29.71,NNE,14,0.0,0.0,94,0.00,,---,0.00,VWS V14.01,2013-03-03 04:38:00,
2013-03-02 23:39:00,29.1,27.5,29.71,NNE,14,0.0,3.2,94,0.00,,,0.00,VWS V14.01,2013-03-03 04:39:00,
2013-03-02 23:40:00,29.1,27.6,29.71,NNE,14,0.0,0.0,94,0.00,,,0.00,VWS V14.01,2013-03-03 04:40:00,
2013-03-02 23:41:00,29.2,27.7,29.71,NNE,14,0.0,0.0,94,0.00,,,0.00,VWS V14.01,2013-03-03 04:41:00,
2013-03-02 23:42:00,29.1,27.6,29.71,WNW,287,7.0,7.1,94,0.00,,,0.00,VWS V14.01,2013-03-03 04:42:00,
2013-03-02 23:43:00,29.1,27.6,29.71,NNW,333,0.0,5.3,94,0.00,,---,0.00,VWS V14.01,2013-03-03 04:43:00,
2013-03-02 23:44:00,29.0,27.5,29.71,NW,325,5.1,5.6,94,0.00,,,0.00,VWS V14.01,2013-03-03 04:44:00,
2013-03-02 23:45:00,29.1,27.6,29.71,NNW,333,0.0,5.3,94,0.00,,,0.00,VWS V14.01,2013-03-03 04:45:00,
2013-03-02 23:46:00,29.1,27.6,29.71,North,359,7.7,11.5,94,0.00,,,0.00,VWS V14.01,2013-03-03 04:46:00,
2013-03-02 23:47:00,29.0,27.6,29.71,NW,321,5.9,9.9,94,0.00,,,0.00,VWS V14.01,2013-03-03 04:47:00,
2013-03-02 23:48:00,29.1,27.8,29.71,WSW,240,5.4,9.8,95,0.00,,---,0.00,VWS V14.01,2013-03-03 04:48:00,
2013-03-02 23:49:00,28.9,27.4,29.71,WNW,302,4.9,7.6,94,0.00,,,0.00,VWS V14.01,2013-03-03 04:49:00,
2013-03-02 23:50:00,29.1,27.8,29.71,WSW,240,5.4,9.8,95,0.00,,,0.00,VWS V14.01,2013-03-03 04:50:00,
2013-03-02 23:51:00,28.7,27.2,29.71,NNW,340,7.8,10.2,94,0.00,,,0.00,VWS V14.01,2013-03-03 04:51:00,
2013-03-02 23:52:00,28.6,27.2,29.71,NW,321,6.8,9.5,94,0.00,,,0.00,VWS V14.01,2013-03-03 04:52:00,
2013-03-02 23:53:00,28.6,27.3,29.71,North,6,9.8,9.8,95,0.00,,---,0.00,VWS V14.01,2013-03-03 04:53:00,
2013-03-02 23:54:00,28.6,27.2,29.71,NW,309,6.8,10.5,95,0.00,,,0.00,VWS V14.01,2013-03-03 04:54:00,
2013-03-02 23:55:00,28.6,27.3,29.71,North,6,9.8,9.8,95,0.00,,,0.00,VWS V14.01,2013-03-03 04:55:00,
2013-03-02 23:56:00,28.5,27.2,29.71,NNE,21,5.5,10.6,95,0.00,,,0.00,VWS V14.01,2013-03-03 04:56:00,
2013-03-02 23:57:00,28.7,27.4,29.71,NNE,18,0.0,5.8,95,0.00,,,0.00,VWS V14.01,2013-03-03 04:57:00,
2013-03-02 23:58:00,28.9,27.6,29.71,NNW,342,7.6,7.6,95,0.00,,,0.00,VWS V14.01,2013-03-03 04:58:00,
2013-03-02 23:59:00,28.7,27.4,29.71,NW,309,8.1,13.2,95,0.00,,,0.00,VWS V14.01,2013-03-03 04:59:00,